[[{"header":{"parameterUnit":"m.s-1","parameterCategory":1,"la1":30.6,"la2":28.766,"lo1":-90.7593,"lo2":-88.6598,"dx":0.0162,"dy":0.0183,"nx":116,"ny":114,"refTime":"2022-11-23T18:00:00:Z","depth":0,"parameterNumber":2,"parameterNumberName":"U-component_of_WINDS"},"data":[0.0,0.0,0.0,0.0,0.0,0.0,0.0,0.0,0.0,0.0,0.0,0.0,0.0,0.0,0.0,0.0,0.0,0.0,0.0,0.0,0.0,0.0,0.0,0.0,0.0,0.0,0.0,0.0,0.0,0.0,0.0,0.0,0.0,0.0,0.0,0.0,0.0,0.0,0.0,0.0,0.0,0.0,0.0,0.0,0.0,0.0,0.0,0.0,0.0,0.0,0.0,0.0,0.0,0.0,0.0,0.0,0.0,0.0,0.0,0.0,0.0,0.0,0.0,0.0,0.0,0.0,0.0,0.0,0.0,0.0,0.0,0.0,0.0,0.0,0.0,0.0,0.0,0.0,0.0,0.0,0.0,0.0,0.0,0.0,0.0,0.0,0.0,0.0,0.0,0.0,0.0,0.0,0.0,0.0,0.0,0.0,0.0,0.0,0.0,0.0,0.0,0.0,0.0,0.0,0.0,0.0,0.0,0.0,0.0,0.0,0.0,0.0,0.0,0.0,0.0,0.0,0.0,0.0,0.0,0.0,0.0,0.0,0.0,0.0,0.0,0.0,0.0,0.0,0.0,0.0,0.0,0.0,0.0,0.0,0.0,0.0,0.0,0.0,0.0,0.0,0.0,0.0,0.0,0.0,0.0,0.0,0.0,0.0,0.0,0.0,0.0,0.0,0.0,0.0,0.0,0.0,0.0,0.0,0.0,0.0,0.0,0.0,0.0,0.0,0.0,0.0,0.0,0.0,0.0,0.0,0.0,0.0,0.0,0.0,0.0,0.0,0.0,0.0,0.0,0.0,0.0,0.0,0.0,0.0,0.0,0.0,0.0,0.0,0.0,0.0,0.0,0.0,0.0,0.0,0.0,0.0,0.0,0.0,0.0,0.0,0.0,0.0,0.0,0.0,0.0,0.0,0.0,0.0,0.0,0.0,0.0,0.0,0.0,0.0,0.0,0.0,0.0,0.0,0.0,0.0,0.0,0.0,0.0,0.0,0.0,0.0,0.0,0.0,0.0,0.0,0.0,0.0,0.0,0.0,0.0,0.0,0.0,0.0,0.0,0.0,0.0,0.0,0.0,0.0,0.0,0.0,0.0,0.0,0.0,0.0,0.0,0.0,0.0,0.0,0.0,0.0,0.0,0.0,0.0,0.0,0.0,0.0,0.0,0.0,0.0,0.0,0.0,0.0,0.0,0.0,0.0,0.0,0.0,0.0,0.0,0.0,0.0,0.0,0.0,0.0,0.0,0.0,0.0,0.0,0.0,0.0,0.0,0.0,0.0,0.0,0.0,0.0,0.0,0.0,0.0,0.0,0.0,0.0,0.0,0.0,0.0,0.0,0.0,0.0,0.0,0.0,0.0,0.0,0.0,0.0,0.0,0.0,0.0,0.0,0.0,0.0,0.0,0.0,0.0,0.0,0.0,0.0,0.0,0.0,0.0,0.0,0.0,0.0,0.0,0.0,0.0,0.0,0.0,0.0,0.0,0.0,0.0,0.0,0.0,0.0,0.0,0.0,0.0,0.0,0.0,0.0,0.0,0.0,0.0,0.0,0.0,0.0,0.0,0.0,0.0,0.0,0.0,0.0,0.0,0.0,0.0,0.0,0.0,0.0,0.0,0.0,0.0,0.0,0.0,0.0,0.0,0.0,0.0,0.0,0.0,0.0,0.0,0.0,0.0,0.0,0.0,0.0,0.0,0.0,0.0,0.0,0.0,0.0,0.0,0.0,0.0,0.0,0.0,0.0,0.0,0.0,0.0,0.0,0.0,0.0,0.0,0.0,0.0,0.0,0.0,0.0,0.0,0.0,0.0,0.0,0.0,0.0,0.0,0.0,0.0,0.0,0.0,0.0,0.0,0.0,0.0,0.0,0.0,0.0,0.0,0.0,0.0,0.0,0.0,0.0,0.0,0.0,0.0,0.0,0.0,0.0,0.0,0.0,0.0,0.0,0.0,0.0,0.0,0.0,0.0,0.0,0.0,0.0,0.0,0.0,0.0,0.0,0.0,0.0,0.0,0.0,0.0,0.0,0.0,0.0,0.0,0.0,0.0,0.0,0.0,0.0,0.0,0.0,0.0,0.0,0.0,0.0,0.0,0.0,0.0,0.0,0.0,0.0,0.0,0.0,0.0,0.0,0.0,0.0,0.0,0.0,0.0,0.0,0.0,0.0,0.0,0.0,0.0,0.0,0.0,0.0,0.0,0.0,0.0,0.0,0.0,0.0,0.0,0.0,0.0,0.0,0.0,0.0,0.0,0.0,0.0,0.0,0.0,0.0,0.0,0.0,0.0,0.0,0.0,0.0,0.0,0.0,0.0,0.0,0.0,0.0,0.0,0.0,0.0,0.0,0.0,0.0,0.0,0.0,0.0,0.0,0.0,0.0,0.0,0.0,0.0,0.0,0.0,0.0,0.0,0.0,0.0,0.0,0.0,0.0,0.0,0.0,0.0,0.0,0.0,0.0,0.0,0.0,0.0,0.0,0.0,0.0,0.0,0.0,0.0,0.0,0.0,0.0,0.0,0.0,0.0,0.0,0.0,0.0,0.0,0.0,0.0,0.0,0.0,0.0,0.0,0.0,0.0,0.0,0.0,0.0,0.0,0.0,0.0,0.0,0.0,0.0,0.0,0.0,0.0,0.0,0.0,0.0,0.0,0.0,0.0,0.0,0.0,0.0,0.0,0.0,0.0,0.0,0.0,0.0,0.0,0.0,0.0,0.0,0.0,0.0,0.0,0.0,0.0,0.0,0.0,0.0,0.0,0.0,0.0,0.0,0.0,0.0,0.0,0.0,0.0,0.0,0.0,0.0,0.0,0.0,0.0,0.0,0.0,0.0,0.0,0.0,0.0,0.0,0.0,0.0,0.0,0.0,0.0,0.0,0.0,0.0,0.0,0.0,0.0,0.0,0.0,0.0,0.0,0.0,0.0,0.0,0.0,0.0,0.0,0.0,0.0,0.0,0.0,0.0,0.0,0.0,0.0,0.0,0.0,0.0,0.0,0.0,0.0,0.0,0.0,0.0,0.0,0.0,0.0,0.0,0.0,0.0,0.0,0.0,0.0,0.0,0.0,0.0,0.0,0.0,0.0,0.0,0.0,0.0,0.0,0.0,0.0,0.0,0.0,0.0,0.0,0.0,0.0,0.0,0.0,0.0,0.0,0.0,0.0,0.0,0.0,0.0,0.0,0.0,0.0,0.0,0.0,0.0,0.0,0.0,0.0,0.0,0.0,0.0,0.0,0.0,0.0,0.0,0.0,0.0,0.0,0.0,0.0,0.0,0.0,0.0,0.0,0.0,0.0,0.0,0.0,0.0,0.0,0.0,0.0,0.0,0.0,0.0,0.0,0.0,0.0,0.0,0.0,0.0,0.0,0.0,0.0,0.0,0.0,0.0,0.0,0.0,0.0,0.0,0.0,0.0,0.0,0.0,0.0,0.0,0.0,0.0,0.0,0.0,0.0,0.0,0.0,0.0,0.0,0.0,0.0,0.0,0.0,0.0,0.0,0.0,0.0,0.0,0.0,0.0,0.0,0.0,0.0,0.0,0.0,0.0,0.0,0.0,0.0,0.0,0.0,0.0,0.0,0.0,0.0,0.0,0.0,0.0,0.0,0.0,0.0,0.0,0.0,0.0,0.0,0.0,0.0,0.0,0.0,0.0,0.0,0.0,0.0,0.0,0.0,0.0,0.0,0.0,0.0,0.0,0.0,0.0,0.0,0.0,0.0,0.0,0.0,0.0,0.0,0.0,0.0,0.0,0.0,0.0,0.0,0.0,0.0,0.0,0.0,0.0,0.0,0.0,0.0,0.0,0.0,0.0,0.0,0.0,0.0,0.0,0.0,0.0,0.0,0.0,0.0,0.0,0.0,0.0,0.0,0.0,0.0,0.0,0.0,0.0,0.0,0.0,0.0,0.0,0.0,0.0,0.0,0.0,0.0,0.0,0.0,0.0,0.0,0.0,0.0,0.0,0.0,0.0,0.0,0.0,0.0,0.0,0.0,0.0,0.0,0.0,0.0,0.0,0.0,0.0,0.0,0.0,0.0,0.0,0.0,0.0,0.0,0.0,0.0,0.0,0.0,0.0,0.0,0.0,0.0,0.0,0.0,0.0,0.0,0.0,0.0,0.0,0.0,0.0,0.0,0.0,0.0,0.0,0.0,0.0,0.0,0.0,0.0,0.0,0.0,0.0,0.0,0.0,0.0,0.0,0.0,0.0,0.0,0.0,0.0,0.0,0.0,0.0,0.0,0.0,0.0,0.0,0.0,0.0,0.0,0.0,0.0,0.0,0.0,0.0,0.0,0.0,0.0,0.0,0.0,0.0,0.0,0.0,0.0,0.0,0.0,0.0,0.0,0.0,0.0,0.0,0.0,0.0,0.0,0.0,0.0,0.0,0.0,0.0,0.0,0.0,0.0,0.0,0.0,0.0,0.0,0.0,0.0,0.0,0.0,0.0,0.0,0.0,0.0,0.0,0.0,0.0,0.0,0.0,0.0,0.0,0.0,0.0,0.0,0.0,0.0,0.0,0.0,0.0,0.0,0.0,0.0,0.0,0.0,0.0,0.0,0.0,0.0,0.0,0.0,0.0,0.0,0.0,0.0,0.0,0.0,0.0,0.0,0.0,0.0,0.0,0.0,0.0,0.0,0.0,0.0,0.0,0.0,0.0,0.0,0.0,0.0,0.0,0.0,0.0,0.0,0.0,0.0,0.0,0.0,0.0,0.0,0.0,0.0,0.0,0.0,0.0,0.0,0.0,0.0,0.0,0.0,0.0,0.0,0.0,0.0,0.0,0.0,0.0,0.0,0.0,0.0,0.0,0.0,0.0,0.0,0.0,0.0,0.0,0.0,0.0,0.0,0.0,0.0,0.0,0.0,0.0,0.0,0.0,0.0,0.0,0.0,0.0,0.0,0.0,0.0,0.0,0.0,0.0,0.0,0.0,0.0,0.0,0.0,0.0,0.0,0.0,0.0,0.0,0.0,0.0,0.0,0.0,0.0,0.0,0.0,0.0,0.0,0.0,0.0,0.0,0.0,0.0,0.0,0.0,0.0,0.0,0.0,0.0,0.0,0.0,0.0,0.0,0.0,0.0,0.0,0.0,0.0,0.0,0.0,0.0,0.0,0.0,0.0,0.0,0.0,0.0,0.0,0.0,0.0,0.0,0.0,0.0,0.0,0.0,0.0,0.0,0.0,0.0,0.0,0.0,0.0,0.0,0.0,0.0,0.0,0.0,0.0,0.0,0.0,0.0,0.0,0.0,0.0,0.0,0.0,0.0,0.0,0.0,0.0,0.0,0.0,0.0,0.0,0.0,0.0,0.0,0.0,0.0,0.0,0.0,0.0,0.0,0.0,0.0,0.0,0.0,0.0,0.0,0.0,0.0,0.0,0.0,0.0,0.0,0.0,0.0,0.0,0.0,0.0,0.0,0.0,0.0,0.0,0.0,0.0,0.0,0.0,0.0,0.0,0.0,0.0,0.0,0.0,0.0,0.0,0.0,0.0,0.0,0.0,0.0,0.0,0.0,0.0,0.0,0.0,0.0,0.0,0.0,0.0,0.0,0.0,0.0,0.0,0.0,0.0,0.0,0.0,0.0,0.0,0.0,0.0,0.0,0.0,0.0,0.0,0.0,0.0,0.0,0.0,0.0,0.0,0.0,0.0,0.0,0.0,0.0,0.0,0.0,0.0,0.0,0.0,0.0,0.0,0.0,0.0,0.0,0.0,0.0,0.0,0.0,0.0,0.0,0.0,0.0,0.0,0.0,0.0,0.0,0.0,0.0,0.0,0.0,0.0,0.0,0.0,0.0,0.0,0.0,0.0,0.0,0.0,0.0,0.0,0.0,0.0,0.0,0.0,0.0,0.0,0.0,0.0,0.0,0.0,0.0,0.0,0.0,0.0,0.0,0.0,0.0,0.0,0.0,0.0,0.0,0.0,0.0,0.0,0.0,0.0,0.0,0.0,0.0,0.0,0.0,0.0,0.0,0.0,0.0,0.0,0.0,0.0,0.0,0.0,0.0,0.0,0.0,0.0,0.0,0.0,0.0,0.0,0.0,0.0,0.0,0.0,0.0,0.0,0.0,0.0,0.0,0.0,0.0,0.0,0.0,-2.9026,0.0,0.0,0.0,0.0,0.0,0.0,0.0,0.0,0.0,0.0,0.0,0.0,0.0,0.0,0.0,0.0,0.0,0.0,0.0,0.0,0.0,0.0,0.0,0.0,-1.4104,-1.4244,-1.4366,-1.4256,0.0,0.0,0.0,0.0,0.0,0.0,0.0,-1.4303,-1.5201,-1.5862,-1.6235,-1.6045,-1.6213,-1.6732,-1.5692,-1.4819,-1.4107,0.0,0.0,0.0,0.0,0.0,0.0,0.0,0.0,0.0,0.0,0.0,0.0,0.0,0.0,0.0,0.0,0.0,0.0,0.0,0.0,0.0,0.0,0.0,0.0,0.0,0.0,0.0,0.0,0.0,0.0,0.0,0.0,0.0,0.0,0.0,0.0,0.0,0.0,0.0,0.0,0.0,0.0,0.0,0.0,0.0,0.0,0.0,0.0,0.0,0.0,0.0,0.0,0.0,0.0,0.0,0.0,0.0,0.0,0.0,0.0,0.0,0.0,0.0,0.0,0.0,0.0,0.0,0.0,0.0,0.0,0.0,-2.6175,0.0,0.0,0.0,0.0,0.0,0.0,0.0,0.0,0.0,0.0,0.0,0.0,0.0,0.0,0.0,0.0,0.0,0.0,0.0,0.0,0.0,-1.3611,-1.4706,-1.5124,-1.5604,-1.6218,-1.6349,-1.6182,-1.5654,-1.5742,0.0,0.0,0.0,0.0,-1.4992,-1.6576,-1.7529,-1.7798,-1.8124,-1.8411,-1.8537,-1.9216,-1.8876,-1.7663,-1.7242,0.0,0.0,0.0,0.0,0.0,0.0,0.0,0.0,0.0,0.0,0.0,0.0,0.0,0.0,0.0,0.0,0.0,0.0,0.0,0.0,0.0,0.0,0.0,0.0,0.0,0.0,0.0,0.0,0.0,0.0,0.0,0.0,0.0,0.0,0.0,0.0,0.0,0.0,0.0,0.0,0.0,0.0,0.0,0.0,0.0,0.0,0.0,0.0,0.0,0.0,0.0,0.0,0.0,0.0,0.0,0.0,0.0,0.0,0.0,0.0,0.0,0.0,0.0,0.0,-1.9046,-2.0995,-1.5033,-1.3926,-1.6518,-1.6718,-1.8986,-2.3176,0.0,0.0,0.0,0.0,0.0,0.0,0.0,0.0,0.0,0.0,0.0,0.0,0.0,0.0,0.0,0.0,0.0,0.0,0.0,0.0,-1.5119,-1.5385,-1.6208,-1.6891,-1.7272,-1.674,-1.645,-1.6516,-1.6069,0.0,0.0,0.0,-1.5858,-1.5679,-1.6031,-1.6728,-1.7798,-1.9561,-2.0501,-2.0736,-2.1677,-2.2021,-2.1792,-1.9584,-1.874,-1.8945,0.0,0.0,0.0,0.0,0.0,0.0,0.0,0.0,0.0,0.0,0.0,0.0,0.0,0.0,0.0,0.0,0.0,0.0,0.0,0.0,0.0,0.0,0.0,0.0,0.0,0.0,0.0,0.0,0.0,0.0,0.0,0.0,0.0,0.0,0.0,0.0,0.0,0.0,0.0,0.0,0.0,0.6219,0.567,0.0,0.0,0.0,0.0,0.0,0.0,0.0,0.0,0.0,0.0,0.0,0.0,0.0,0.0,-1.5666,-0.8137,-0.615,-0.9846,-0.1663,0.0719,-0.2038,-0.5167,-0.7064,-0.8189,-1.3143,0.0,-1.9018,-2.3711,0.0,0.0,0.0,0.0,0.0,0.0,0.0,0.0,0.0,0.0,0.0,0.0,0.0,0.0,0.0,0.0,0.0,0.0,0.0,0.0,0.0,-1.7529,-1.804,-1.8564,-1.8345,-1.8166,-1.8285,-1.8012,0.0,0.0,-1.7386,-1.7625,-1.6877,-1.8411,-2.0048,-2.1678,-2.2984,-2.3669,-2.3748,-2.4219,-2.4382,-2.4365,-2.2959,-2.2062,-2.1569,-2.0685,0.0,0.0,0.0,0.0,0.0,0.0,0.0,0.0,0.0,0.0,0.0,0.0,0.0,0.0,0.0,0.0,0.0,0.0,0.0,0.0,0.0,0.0,0.0,0.0,0.0,0.0,0.0,0.0,0.0,0.0,0.0,0.0,0.0,0.0,0.0,0.0,0.0,0.0,0.0,-0.8637,-0.5216,-0.7623,-1.2828,-1.9777,0.0,0.0,0.0,0.0,0.0,0.0,0.0,0.0,0.0,-0.3354,-0.5401,-0.4741,-0.0587,0.3353,0.3638,0.0229,0.3628,0.2992,-0.1301,-0.5112,-0.8154,-1.0514,-1.357,-1.5929,-1.8045,-2.315,-2.8454,-3.3762,0.0,0.0,0.0,0.0,0.0,-4.3192,0.0,0.0,0.0,0.0,0.0,0.0,0.0,0.0,0.0,0.0,0.0,0.0,-1.8692,-1.8932,-1.9264,-1.9964,-1.9834,-1.9811,-2.0024,-1.9717,-1.8974,-1.7773,-1.9021,-1.9319,-1.8525,-2.0713,-2.2807,-2.4807,-2.524,-2.5547,-2.5824,-2.5981,-2.5955,-2.5798,-2.5537,-2.5013,-2.4226,-2.3223,-2.2274,-2.1346,0.0,0.0,0.0,0.0,0.0,0.0,0.0,0.0,0.0,0.0,0.0,0.0,0.0,0.0,0.0,0.0,0.0,0.0,0.0,0.0,0.0,0.0,0.0,0.0,0.0,0.0,0.0,0.0,0.0,0.0,0.0,0.0,0.0,0.0,0.0,0.0,0.0,-0.973,-0.6239,-1.3673,-0.8554,-1.0798,0.0,0.0,0.0,0.0,0.0,0.0,-0.6599,-0.9386,-0.6183,0.4313,0.2247,0.4024,1.041,1.021,0.8028,0.402,0.3023,-0.0397,-0.5708,-0.875,-1.1643,-1.4192,-1.542,-1.7087,-1.9328,-2.344,-2.6446,-2.9095,-3.4952,-3.8279,-3.9893,-4.1657,-4.2147,-4.1944,0.0,0.0,0.0,0.0,0.0,0.0,0.0,0.0,0.0,0.0,0.0,-1.8704,-2.0152,-2.0364,-2.0676,-2.1339,-2.0772,-2.0705,-2.1427,-2.0213,-1.9835,-2.0592,-2.0026,-2.0004,-2.0633,-2.1794,-2.3206,-2.497,-2.4608,-2.4911,-2.5824,-2.6373,-2.6347,-2.585,-2.6347,-2.662,-2.6441,-2.502,-2.4174,-2.3733,-2.3062,0.0,0.0,0.0,0.0,0.0,0.0,0.0,0.0,0.0,0.0,0.0,0.0,0.0,0.0,0.0,0.0,0.0,0.0,0.0,0.0,0.0,0.0,0.0,0.0,0.0,0.0,0.0,0.0,0.0,0.0,0.0,0.0,0.0,0.0,0.0,0.0,0.0,0.0,0.4302,1.7308,0.0,0.0,0.0,0.0,-0.3948,-0.5689,-0.2837,0.5497,-0.0344,0.2333,1.6136,1.2052,0.9062,0.7616,0.5973,0.1866,-0.4672,-0.3922,-0.6258,-1.1475,-1.51,-1.638,-1.5692,-1.8139,-2.0542,-2.2846,-2.1809,-2.5235,-3.1255,-3.2245,-3.7756,-4.4724,-4.0576,-4.1518,-4.4152,0.0,0.0,0.0,-1.4125,-1.4253,-1.4543,-1.4993,-1.5802,-1.6819,-1.7956,-1.8859,-1.9539,-1.9965,-2.0294,-2.0511,-2.0717,-2.0502,-2.0676,-2.1609,-2.0845,-2.0854,-2.2032,-2.1407,-2.166,-2.2882,-2.311,-2.4076,-2.5734,-2.5578,-2.5946,-2.6922,-2.7131,-2.7105,-2.6922,-2.6739,-2.7158,-2.7788,-2.6468,-2.5503,-2.4807,-2.4649,-2.3457,0.0,0.0,0.0,0.0,0.0,0.0,0.0,0.0,0.0,0.0,0.0,0.0,0.0,0.0,0.0,0.0,0.0,0.0,0.0,0.0,0.0,0.0,0.0,0.0,0.0,0.0,0.0,0.0,0.0,0.0,0.0,0.0,0.0,0.0,0.0,0.0,0.0,0.6077,1.9436,0.0,0.6746,1.3825,1.5845,0.6992,1.353,1.602,1.1693,0.8691,0.8118,1.0029,0.7384,0.4839,0.2556,0.0272,-0.2329,-0.5348,-0.8001,-1.161,-1.5769,-1.6059,-1.712,-1.8673,-2.1608,-2.3335,-2.4228,-2.5786,-2.7453,-2.9219,-3.0466,-3.3181,-3.6391,-3.7273,-3.8494,-3.989,0.0,0.0,0.0,-1.5247,-1.5105,-1.528,-1.6038,-1.6998,-1.8008,-1.9006,-1.9761,-2.0149,-2.0041,-2.0238,-2.0421,-2.0597,-2.0902,-2.151,-2.2654,-2.2141,-2.2287,-2.345,-2.3062,-2.3317,-2.4563,-2.4364,-2.5012,-2.6552,-2.6252,-2.662,-2.7523,-2.7523,-2.7523,-2.7497,-2.7131,-2.7695,-2.8769,-2.7759,-2.6963,-2.6385,-2.6181,-2.513,-2.3814,0.0,0.0,0.0,0.0,0.0,0.0,0.0,0.0,0.0,0.0,0.0,0.0,0.0,0.0,0.0,0.0,0.0,0.0,0.0,0.0,0.0,0.0,0.0,0.0,0.0,0.0,0.0,0.0,0.0,0.0,0.0,0.0,0.0,0.0,0.0,2.4088,0.5985,2.3644,3.0711,1.3966,2.4708,2.8742,1.9104,2.4925,2.4421,1.4163,1.1553,0.836,0.4108,0.2172,0.0275,-0.1919,-0.4287,-0.6936,-1.0116,-1.2421,-1.5503,-1.9094,-1.8394,-1.9464,-2.2018,-2.4553,-2.6147,-2.718,-2.9383,-3.0479,-3.0885,-3.0945,-3.2027,-3.3677,-3.6716,-3.8544,-3.9922,0.0,0.0,-1.6281,-1.6318,-1.6316,-1.6607,-1.7489,-1.8822,-1.9811,-1.9978,-2.0395,-2.0652,-2.0414,-2.038,-2.0554,-2.1241,-2.2078,-2.3189,-2.4719,-2.4163,-2.4088,-2.4878,-2.4803,-2.5053,-2.5614,-2.5383,-2.5929,-2.7509,-2.6602,-2.6671,-2.7575,-2.7575,-2.7575,-2.7549,-2.7549,-2.8287,-2.9476,-2.8825,-2.857,-2.8599,-2.7631,-2.7024,-2.6757,0.0,0.0,0.0,0.0,0.0,0.0,0.0,0.0,0.0,0.0,0.0,0.0,0.0,0.0,0.0,0.0,0.0,0.0,0.0,0.0,0.0,0.0,0.0,0.0,0.0,0.0,0.0,0.0,0.0,0.0,0.0,0.0,0.0,0.8054,1.9938,2.3943,0.6594,3.2132,4.483,2.8732,3.6996,4.002,3.1997,2.6672,2.0676,1.3242,0.7937,0.3409,-0.0409,-0.2349,-0.4172,-0.5698,-0.7498,-1.2064,-1.9387,-1.7107,-1.7959,-2.1559,-2.2536,-2.3882,-2.574,-2.7089,-2.923,-3.1525,-3.2275,-3.4238,-3.6553,-3.384,-3.4833,-3.7927,-3.9396,-4.2002,-4.4993,-1.5973,-1.6679,-1.7311,-1.695,-1.71,-1.7504,-1.8212,-1.9364,-2.0109,-2.0086,-2.0414,-2.0652,-2.0581,-2.0805,-2.1524,-2.2895,-2.3643,-2.4494,-2.5598,-2.4581,-2.4205,-2.4887,-2.5915,-2.6492,-2.6629,-2.5798,-2.6141,-2.7738,-2.7451,-2.7809,-2.8804,-2.8804,-2.8569,-2.815,-2.815,-2.8663,-2.9504,-2.9336,-2.952,-2.9864,-2.8703,-2.7915,-2.7431,0.0,0.0,0.0,0.0,0.0,0.0,0.0,0.0,0.0,0.0,0.0,0.0,0.0,0.0,0.0,0.0,0.0,0.0,0.0,0.0,0.0,0.0,0.0,0.0,0.0,0.0,0.0,0.0,0.0,0.0,0.0,0.0,2.5094,2.2876,3.5375,4.2739,3.7342,4.4252,4.647,3.875,3.946,3.6664,2.7409,2.4611,1.9575,1.1206,0.4753,-0.0411,-0.4013,-0.7021,-0.9467,-1.1114,-1.2204,-1.4806,-1.9059,-1.8943,-2.086,-2.4401,-2.513,-2.6792,-2.91,-3.0531,-3.1617,-3.2838,-3.4719,-3.6413,-3.7736,-3.6225,-3.7466,-4.0144,-4.1755,-4.4136,-4.6742,-1.6769,-1.7475,-1.8198,-1.8124,-1.8243,-1.8608,-1.9239,-2.0574,-2.1178,-2.0093,-2.1195,-2.1797,-2.1035,-2.1707,-2.2805,-2.43,-2.5397,-2.6197,-2.6768,-2.6302,-2.6161,-2.6462,-2.7466,-2.7978,-2.7926,-2.7401,-2.7503,-2.8435,-2.8435,-2.8749,-2.9274,-2.9274,-2.9276,-2.9278,-2.9278,-2.9777,-3.0706,-3.0449,-3.0684,-3.124,-2.9924,-2.8858,-2.8123,-2.8939,-2.8661,-2.8078,-2.9682,-2.9866,-2.951,-3.0621,0.0,0.0,0.0,0.0,0.0,0.0,0.0,0.0,0.0,0.0,0.0,0.0,0.0,0.0,0.0,0.0,0.0,0.0,0.0,0.0,0.0,0.0,0.0,0.0,2.5616,3.3043,3.4008,4.0621,4.494,4.3775,4.3279,4.1972,3.918,3.5456,3.0303,2.3288,2.0186,1.4833,0.6122,0.1102,-0.3758,-0.8578,-1.11,-1.3154,-1.4955,-1.6046,-1.825,-2.1698,-2.2138,-2.438,-2.8073,-2.8442,-2.9791,0.0,-3.3373,-3.43,-3.5051,-3.7441,-3.9254,0.0,0.0,0.0,0.0,0.0,-4.6319,-4.7801,-1.7327,-1.8013,-1.8855,-1.9406,-1.9551,-1.9762,-2.0343,-2.204,-2.2448,-2.0114,-2.23,-2.3384,-2.1547,-2.2886,-2.4315,-2.5419,-2.7163,-2.8185,-2.8223,-2.8569,-2.8708,-2.8657,-2.9038,-2.9373,-2.9353,-2.9379,-2.9431,-2.9562,-2.951,-2.951,-2.9562,-2.951,-2.983,-3.0487,-3.0487,-3.1244,-3.246,-3.1878,-3.1924,-3.2407,-3.13,-2.9983,-2.8876,-3.038,-3.021,-2.9403,-3.1541,-3.1488,-3.0465,-3.1203,0.0,0.0,0.0,0.0,0.0,0.0,0.0,0.0,0.0,0.0,0.0,0.0,0.0,0.0,0.0,0.0,0.0,0.0,0.0,0.0,0.0,0.0,0.0,0.0,3.7241,4.2583,3.9798,3.7442,3.5719,3.5002,3.4563,3.391,3.2858,2.8096,2.3193,1.8825,1.415,0.8013,-0.0,0.0,0.0,0.0,0.0,-1.5698,-1.7721,-1.9262,-2.2013,-2.5903,-2.604,-2.8109,-3.1863,-3.1881,-3.2799,-3.4255,-3.578,-3.6978,-3.7932,-4.0286,-4.2233,-4.3752,-4.3185,-4.3664,-4.4938,-4.7624,-4.855,0.0,-1.7868,-1.8316,-1.8855,-1.9406,-1.9869,-2.0369,-2.0993,-2.2347,-2.2625,-2.0758,-2.2909,-2.4,-2.2415,-2.3928,-2.5466,-2.6375,-2.826,-2.9497,-2.9654,-2.9016,-2.8691,-2.8776,-2.9133,-2.9521,-2.9954,-2.998,-3.0424,-3.1339,-3.0895,-3.0895,-3.1339,-3.0869,-3.0811,-3.1015,-3.1015,-3.1567,-3.246,-3.2344,-3.2397,-3.2527,-3.2796,-3.1509,-2.9485,-3.0227,-3.0035,-2.9609,-3.1708,-3.2299,-3.2378,-3.4755,-3.4524,-3.3496,-3.5161,-3.4614,0.0,0.0,0.0,0.0,0.0,0.0,0.0,0.0,0.0,0.0,0.0,0.0,0.0,0.0,0.0,0.0,0.0,0.0,0.0,2.4264,3.1693,3.5719,3.0507,2.5491,2.4468,3.0154,3.0461,2.8846,2.5128,2.5277,2.1408,1.1221,0.6862,0.288,-0.126,-0.7358,0.0,-1.6661,-1.6734,-1.7903,-2.038,-2.2166,-2.4649,-2.7752,0.0,0.0,-3.335,-3.386,-3.504,-3.6593,-3.7488,-3.8947,-4.0785,-4.2634,-4.5121,-4.7761,-4.7314,-4.7486,-4.827,-4.9358,-5.0086,-5.0672,-1.9724,-1.9402,-1.9266,-1.9833,-2.0566,-2.1151,-2.1312,-2.3188,-2.3915,-2.2073,-2.4319,-2.5578,-2.4313,-2.5101,-2.6049,-2.6761,-2.818,-2.9459,-3.0601,-3.0035,-2.9813,-3.0117,-3.014,-3.0398,-3.0898,-3.0924,-3.1418,-3.2254,-3.1967,-3.1993,-3.2254,-3.1967,-3.215,-3.2763,-3.2648,-3.3192,-3.4095,-3.3706,-3.3724,-3.4028,-3.4059,-3.331,-3.2195,-3.2019,-3.1533,-3.1199,-3.2993,-3.3668,-3.3944,-3.5842,-3.5937,-3.543,-3.6774,-3.6433,-3.5403,0.0,0.0,0.0,0.0,0.0,0.0,0.0,0.0,0.0,0.0,0.0,0.0,0.0,0.0,0.857,1.6618,0.0,2.655,3.2096,3.1449,2.8395,2.3237,1.7158,1.5924,2.313,2.3841,2.2424,1.9309,1.7577,1.3895,0.6875,0.1364,-0.2771,-0.5213,-1.1981,-1.6423,-1.8065,-1.9772,-2.1393,-2.3094,-2.5426,-2.7889,-3.048,-3.1419,-3.3169,-3.5465,-3.611,-3.7033,-3.8357,-4.0107,-4.1604,-4.3033,-4.546,-4.7853,-4.9912,-5.005,-5.0118,-5.0218,-5.0944,-5.1425,-5.1929,-2.1376,-2.0699,-2.0158,-2.0619,-2.1349,-2.19,-2.1792,-2.4092,-2.5226,-2.3558,-2.5707,-2.6893,-2.5547,-2.5687,-2.615,-2.6885,-2.7694,-2.9153,-3.148,-3.1203,-3.1237,-3.1957,-3.1487,-3.1483,-3.1959,-3.1756,-3.1967,-3.2542,-3.2411,-3.2489,-3.2751,-3.2697,-3.3268,-3.4341,-3.4229,-3.4737,-3.5657,-3.5115,-3.5156,-3.5546,-3.5408,-3.5284,-3.515,-3.4697,-3.3811,-3.3061,-3.4501,-3.4978,-3.515,-3.6358,-3.678,-3.6927,-3.7881,-3.7882,-3.7377,-3.682,-2.854,0.0,0.0,0.0,0.0,0.0,0.0,0.0,0.0,-0.7075,-0.4975,1.1055,1.3948,1.7638,3.0963,2.8386,2.8104,3.9966,3.1479,2.1544,1.6796,1.0601,0.8565,1.408,1.5169,1.5,1.3316,0.9612,0.6187,0.3137,-0.346,-0.8144,-0.9912,-1.5643,-1.9071,-1.9413,-2.2519,-2.4649,-2.5884,-2.864,-3.1045,-3.3266,-3.4064,-3.5471,-3.7482,-3.8129,-3.8925,-4.0105,-4.3004,-4.4695,-4.5498,-4.8274,-5.0068,-5.132,-5.1948,-5.2072,-5.1904,-5.2511,-5.2811,-5.3208,-2.1376,-2.1788,-2.2033,-2.207,-2.1972,-2.2287,-2.3412,-2.4702,-2.5273,-2.4511,-2.6355,-2.6769,-2.4286,-2.4634,-2.5602,-2.7049,-2.7674,-2.9462,-3.2924,-3.2306,-3.2407,-3.378,-3.2807,-3.2245,-3.2327,-3.1501,-3.1365,-3.194,-3.1418,-3.1796,-3.2955,-3.2608,-3.3241,-3.4563,-3.4563,-3.5001,-3.5752,-3.6198,-3.6105,-3.5698,-3.6938,-3.71,-3.6719,-3.7735,-3.651,-3.4338,-3.5381,-3.5651,-3.5796,-3.7765,-3.8432,-3.8689,-4.023,-4.0634,-4.0535,-4.0259,-3.7991,-3.6414,-4.0125,-2.9275,-1.3965,-0.1612,0.1735,0.8973,0.0,3.1942,2.7222,4.2498,4.6387,4.6571,4.5187,4.2644,4.0112,3.8062,2.6923,1.631,1.0072,0.4563,0.117,0.1458,0.4113,0.5587,0.4936,0.5406,0.3285,-0.264,-0.8023,-1.1966,-1.4206,-1.6656,-1.9575,-2.314,-2.4302,-2.6388,-2.9372,-3.1391,-3.3266,-3.516,-3.6169,-3.7554,-3.8946,-3.9078,-4.0473,-4.3004,-4.6175,-4.821,-4.9308,-5.0293,-5.132,-5.2408,-5.2516,-5.325,-5.4272,-5.417,-5.4476,-5.521,-2.3102,-2.2998,-2.3072,-2.3717,-2.3597,-2.3522,-2.384,-2.5352,-2.6264,-2.5779,-2.6854,-2.7252,-2.6122,-2.5319,-2.5289,-2.6291,-2.7169,-2.8944,-3.202,-3.2497,-3.3069,-3.4036,-3.3464,-3.3283,-3.3648,-3.3318,-3.3404,-3.3936,-3.3688,-3.3938,-3.4454,-3.4276,-3.4654,-3.5406,-3.5234,-3.5598,-3.6538,-3.6569,-3.6955,-3.7568,-3.8172,-3.8725,-3.9248,-3.9795,-3.9346,-3.8408,-3.7933,-3.7496,0.0,-3.8884,-3.9178,-3.9217,-4.0662,-4.1235,-4.1319,-4.0941,-3.5033,-2.498,-0.8388,-0.4781,-0.2072,1.3178,1.6971,2.0458,3.3771,3.192,3.1896,4.7774,5.1164,5.0403,4.741,4.1852,3.5805,0.0,2.0003,1.0279,0.2919,-0.052,-0.3696,-0.7322,-0.5454,-0.2927,-0.0802,-0.2834,-0.4919,-0.6915,-1.1621,-1.5459,-1.7757,-2.0551,-2.3198,-2.5692,-2.8132,-3.0292,-3.2129,-3.4176,-3.5646,-3.6364,-3.7729,-3.8925,-4.0084,-4.0388,-4.212,-4.5086,-4.7691,-4.9675,-5.0934,-5.1649,-5.2408,-5.3184,-5.3681,-5.4171,-5.4684,-5.4713,-5.532,-5.6047,-2.4214,-2.3917,-2.3853,-2.476,-2.4804,-2.4705,-2.4521,-2.5914,-2.6895,-2.6678,-2.6958,-2.6983,-2.6516,-2.5246,-2.483,-2.5679,-2.6842,-2.8697,-3.1424,-3.2576,-3.3516,-3.4175,-3.3966,-3.4023,-3.4416,-3.438,-3.4583,-3.4967,-3.4967,-3.5139,-3.5353,-3.5353,-3.5653,-3.6022,-3.5955,-3.6402,-3.7115,-3.7203,-3.7873,-3.8908,-3.9156,-3.9868,-4.0886,-4.107,-4.118,-4.0999,-3.9659,-3.8911,-3.8559,-3.8973,-3.899,-3.9107,-4.0304,-4.0998,-4.1454,-4.1667,-3.5221,-2.215,0.4788,0.8108,0.7585,2.2796,2.9526,3.2783,3.3827,3.38,3.6884,4.878,5.0835,4.9375,4.5842,3.8605,3.1059,2.4613,1.4604,0.4703,-0.3373,-0.5935,-0.8392,-1.2561,-1.2437,-1.0697,-0.736,-0.9514,-1.1016,-1.0391,-1.444,-1.8153,-2.078,-2.3901,-2.6603,-2.8717,-3.1454,-3.3601,-3.4661,-3.6475,-3.7482,-3.775,-3.9188,-4.0214,-4.0839,-4.2143,-4.4202,-4.7221,-4.9354,-5.1044,-5.2339,-5.3052,-5.3704,-5.434,-5.4761,-5.4981,-5.5155,-5.5209,-5.5849,-5.6634,-2.4039,-2.4287,-2.4379,-2.4823,-2.5221,-2.5603,-2.5999,-2.6419,-2.679,-2.7061,-2.6491,-2.5392,-2.3708,-2.3476,-2.4029,-2.5459,-2.6999,-2.9092,-3.1911,-3.2881,-3.3679,-3.4475,-3.4207,-3.4125,-3.4125,-3.3859,-3.3699,-3.3728,-3.3728,-3.4138,-3.4935,-3.5037,-3.5494,-3.6226,-3.6815,-3.7087,-3.7175,-3.8358,-3.8854,-3.8962,-3.9714,-4.0417,-4.0932,-4.1516,-4.1271,-4.051,-3.9677,-3.9265,-3.8877,-3.7542,-3.7624,-3.847,-3.9312,-4.0193,-4.1292,-4.3235,-4.3852,-3.9932,-2.163,-0.6953,0.7005,2.3175,3.8353,4.9387,4.9592,4.9892,5.0361,5.0973,5.0719,4.8433,4.1965,3.5984,3.0187,2.455,1.2105,0.0254,-0.8242,-1.1773,-1.3561,-1.37,-1.6085,-1.7128,0.0,-1.303,-1.1848,-1.3384,-1.6211,-1.9356,-2.2974,-2.5647,-2.875,-3.2402,-3.3391,-3.4816,-3.6924,-3.7709,-3.8395,-3.921,-4.0839,-4.1505,-4.1421,-4.4596,-4.7221,-4.9448,-5.1655,-5.2961,-5.3675,-5.488,-5.5683,-5.6161,-5.5542,-5.5619,-5.6047,-5.5722,-5.6244,-5.7019,-2.4214,-2.4317,-2.4533,-2.5291,-2.5519,-2.5852,-2.6521,-2.6657,-2.6556,-2.6151,-2.6521,0.0,0.0,0.0,0.0,0.0,-2.7033,-2.8746,-3.1085,-3.2499,-3.3498,-3.4241,-3.4755,-3.5003,-3.5003,-3.5389,-3.5529,-3.5529,-3.5529,-3.5913,-3.66,-3.6569,-3.6935,-3.7589,-3.7674,-3.7962,-3.8502,-3.8799,-3.8944,-3.9009,-3.9617,-4.0238,-4.0898,-4.2222,-4.1748,-4.0281,0.0,-3.862,-3.7149,-3.7055,-3.6939,-3.722,-3.9012,-3.9962,-4.084,-4.296,-3.6342,-2.4896,-0.9128,0.6684,2.2427,3.8081,4.6114,5.0191,5.0336,5.0623,5.0858,5.0777,3.966,2.8656,2.4276,1.6715,0.8599,0.103,0.0678,-0.1525,-0.9869,-1.3734,-1.6615,-1.8697,-2.0208,0.0,0.0,0.0,0.0,-1.9387,-2.159,-2.4238,-2.7534,-2.9446,-3.1595,-3.4048,-3.5317,-3.7038,-3.8988,-3.9256,-4.0034,-4.1458,-4.3826,-4.4768,-4.4719,-4.8316,-5.0155,-5.0812,-5.2995,-5.4524,-5.5421,-5.5869,-5.6385,-5.6779,-5.6541,-5.6557,-5.6765,-5.6629,-5.7525,-5.8584,-2.4854,-2.4988,-2.5282,-2.6171,-2.6356,0.0,0.0,0.0,0.0,0.0,0.0,0.0,0.0,0.0,0.0,0.0,0.0,-2.8793,-3.0949,-3.1945,-3.2912,-3.3944,-3.4352,-3.4679,-3.4898,-3.5477,-3.6184,-3.7086,-3.6748,-3.7233,-3.8456,-3.795,-3.7911,-3.8334,-3.857,-3.8743,-3.8844,-3.9312,-3.9671,-3.9917,-3.9486,-4.0126,-4.1324,-4.1482,-4.0614,0.0,-3.8736,-3.7032,-3.5043,-3.504,-3.5262,-3.5844,-3.7594,-3.9646,-4.0514,-3.5991,-2.7904,-1.5882,0.496,1.851,3.042,4.5848,4.9936,5.0275,5.0511,5.0751,5.0853,5.0622,3.4823,1.9957,1.6521,0.7214,-0.2574,-1.0548,-0.878,-0.9838,-1.9915,-2.2139,-2.2689,-2.2563,-2.3583,-2.4163,0.0,0.0,0.0,-2.3236,-2.5219,-2.7713,-3.0484,-3.2349,-3.4089,-3.6023,-3.7432,-3.8807,-4.0055,-4.0694,-4.2282,-4.472,-4.6091,-4.7368,-4.8695,-5.096,-5.2066,-5.2293,-5.4537,-5.5874,-5.6417,-5.6976,-5.7494,-5.7782,-5.7543,-5.7663,-5.7811,-5.76,-5.8399,-5.9336,-2.5854,-2.623,-2.6509,0.0,0.0,0.0,0.0,0.0,0.0,0.0,0.0,0.0,0.0,0.0,0.0,0.0,0.0,0.0,-3.1392,-3.1409,-3.2011,-3.3494,-3.3125,-3.321,-3.3906,-3.4316,-3.566,-3.797,-3.702,-3.7801,-4.0146,-3.8778,-3.8219,-3.8274,-3.9362,-3.9192,-3.8204,-3.9791,-4.0795,-4.1096,-3.9297,-3.9966,-4.1816,-3.9565,-3.8188,-3.7395,-3.6595,-3.4894,-3.2904,-3.2097,-3.2517,-3.3418,-3.3577,-3.7075,-3.8089,-2.2413,-1.8184,-1.2008,1.8248,2.7201,3.1591,4.6402,5.0153,5.0325,5.0812,5.0837,5.0459,4.9337,3.4596,2.0526,1.6033,0.5737,-0.4367,-1.1361,-1.574,-2.2735,-3.5647,-3.4773,-3.0777,-2.5322,-2.6262,-2.7416,-2.7764,-2.8748,0.0,-2.5084,0.0,-2.9504,-3.2211,-3.4328,-3.6294,-3.82,-3.9692,-4.0517,-4.0561,-4.2339,-4.5059,-4.8677,-4.7784,-4.9244,-5.2872,-5.2531,-5.2903,-5.398,-5.6362,-5.7063,-5.6683,-5.8397,-5.9099,-5.9039,-5.8411,-5.867,-5.9276,-5.8767,-5.9123,-5.9492,0.0,0.0,0.0,0.0,0.0,0.0,0.0,0.0,0.0,0.0,0.0,0.0,0.0,0.0,0.0,0.0,0.0,0.0,-3.0635,-3.1426,-3.2225,-3.3162,-3.3575,-3.3885,-3.4052,-3.4712,-3.5295,-3.5958,-3.5698,-3.6129,-3.7182,-3.6831,-3.6898,-3.7327,-3.7812,-3.787,-3.7615,-3.8259,-3.7925,-3.7018,-3.7497,-3.7784,-3.7984,-3.9241,-3.8822,-3.7568,-3.7555,-3.646,-3.499,-3.4698,-2.8657,-1.9577,-0.9839,-0.7385,-0.7497,-0.4335,0.4798,1.5606,2.3571,3.4447,4.4552,4.8922,5.0317,5.066,5.0893,4.9283,4.4449,3.2843,1.3479,-0.5174,-1.7694,-2.0541,-2.2743,-2.8165,-1.8596,-1.3021,-2.0588,-2.5005,-2.719,-2.6232,-2.878,-3.0374,-2.9577,-3.123,0.0,0.0,-3.0735,-3.2281,-3.5391,-3.6787,-3.8487,-4.0666,-4.2282,-4.3576,-4.4529,-4.7032,-4.8762,-4.9748,-5.0895,-5.2075,-5.3528,-5.4318,-5.5306,-5.6472,-5.7445,-5.8178,-5.8426,-5.8931,-5.9099,-5.9177,-5.9531,-5.9862,-6.0145,-6.0577,-6.1221,-6.1848,0.0,0.0,0.0,0.0,0.0,0.0,0.0,0.0,0.0,0.0,0.0,0.0,0.0,0.0,0.0,0.0,0.0,0.0,0.0,-3.1346,-3.2285,-3.3376,-3.3275,-3.3389,-3.3705,-3.3635,-3.427,-3.5686,-3.4906,-3.5474,-3.7184,-3.6146,-3.5863,-3.6256,-3.666,-3.6508,-3.5984,-3.6604,-3.6555,0.0,0.0,-3.6625,-3.7158,-3.8278,-3.8108,-3.7384,-3.795,-3.3682,-2.6847,-2.0264,-1.3282,-0.6031,0.1315,0.3345,0.4254,1.0657,1.868,2.7011,3.3979,4.2458,4.9491,4.9951,5.0338,4.8651,4.1396,3.8447,3.2634,1.6251,-0.3263,-2.0124,-2.9006,-2.9702,-3.1693,-4.0188,-2.7249,-1.8385,-2.4692,-2.9258,-3.1184,-2.9288,-3.099,-3.2085,-3.1626,-3.3598,-3.4922,0.0,-3.4246,-3.4946,-3.7804,-3.9154,-4.1001,-4.3138,-4.4178,-4.5404,-4.7075,-4.9239,-5.0804,-5.1777,-5.3021,-5.3946,-5.4571,-5.6047,-5.6781,-5.7003,0.0,-5.8664,-5.8773,-5.8991,-5.9315,-5.9713,-6.0106,-6.0732,-6.145,-6.1853,-6.258,-6.326,0.0,0.0,0.0,0.0,0.0,0.0,0.0,0.0,0.0,-2.8949,-2.9237,-2.9431,0.0,0.0,0.0,0.0,0.0,0.0,0.0,0.0,-3.2216,-3.3566,-3.2748,-3.2573,-3.3209,-3.2154,-3.2962,-3.5715,-3.4228,-3.4958,-3.7701,-3.5703,-3.4805,-3.4805,-3.5356,-3.4987,-3.3945,-3.4936,-3.5656,-3.6058,-3.5377,-3.6067,-3.7486,0.0,-3.7151,-3.7375,-3.833,-2.966,-1.5502,-0.0808,0.5629,0.7727,0.9299,0.8836,1.0557,2.482,2.8663,3.1382,4.5388,4.9439,4.9814,5.0153,4.9908,4.5263,2.8865,2.4438,1.8416,-0.0537,-1.6709,-2.8203,-3.0753,-3.1317,-3.5031,-4.614,-3.6192,-2.918,-3.5313,-3.7595,-3.701,-3.2555,-3.2662,-3.3361,-3.3757,-3.5806,-3.7318,-3.792,-3.752,-3.8006,-3.9848,-4.1684,-4.3673,-4.591,-4.6155,-4.711,-4.9284,-5.038,-5.2009,-5.3868,-5.4566,-5.5193,-5.5961,-5.7528,-5.764,-5.6851,0.0,0.0,-5.8305,-5.8991,-5.9713,-6.0316,-6.0524,-6.1551,-6.2808,-6.2905,-6.3421,-6.4024,0.0,0.0,0.0,0.0,0.0,0.0,0.0,0.0,0.0,0.0,-3.042,-2.9655,0.0,0.0,0.0,0.0,0.0,0.0,0.0,0.0,0.0,-3.2724,-3.3014,-3.3248,-3.3339,-3.2443,-3.2275,-3.2838,-3.2538,-3.2668,-3.3231,-3.281,-3.2639,-3.266,-3.2978,-3.3013,-3.2787,-3.3203,-3.3077,-3.276,-3.4699,-3.5284,-3.5173,-3.7259,-3.8541,0.0,-4.0296,-3.0878,-1.5913,-0.1896,1.1082,2.3347,3.4756,3.8868,4.0068,4.309,4.4444,4.5701,4.884,5.0046,5.0431,5.0523,4.7811,4.1434,2.7411,1.9899,0.8393,-1.8032,-2.6732,-3.363,-4.6785,-4.2863,-3.7785,-3.827,-3.2254,-2.7082,-2.569,-2.9399,-3.2117,-3.175,-3.3616,-3.517,-3.5869,-3.7407,0.0,0.0,0.0,0.0,-4.3409,-4.4606,-4.6927,-5.0492,-5.0688,-5.1347,-5.267,-5.3508,-5.4334,-5.5126,-5.5763,-5.6622,-5.7751,-5.8085,-5.8305,-5.8664,0.0,0.0,-5.8991,-5.9819,-6.0211,-6.042,-6.1885,-6.2481,-6.2905,-6.3517,-6.3897,-6.4088,0.0,0.0,0.0,0.0,0.0,0.0,0.0,-3.1195,-3.1753,-3.44,-3.3994,-3.3081,-3.2159,-3.1627,-3.1531,0.0,0.0,0.0,0.0,0.0,0.0,-3.337,-3.3226,-3.3141,-3.3141,-3.1867,-3.1447,-3.1905,0.0,-3.1447,-3.1867,-3.1447,-3.1211,-3.1259,-3.1392,-3.1469,-3.1482,-3.163,-3.1458,-3.13,-3.3945,-3.4757,-3.4736,-3.7856,-3.9597,0.0,-4.0948,-3.1706,-1.8241,-1.1281,0.5961,2.7126,4.1912,4.7132,4.7882,4.8455,4.9002,4.9454,4.9886,5.0248,5.0227,4.9116,4.5988,3.7291,1.4708,0.6099,-0.5319,-3.4241,-4.036,-4.2911,-5.0913,-4.5551,-3.9994,-4.0256,-3.3522,-2.853,-2.9439,-3.0568,-3.1905,-3.3599,-3.4962,-3.6258,-3.733,-3.917,-4.0993,-4.2535,0.0,0.0,-4.6197,-4.8315,-5.0228,-5.1801,-5.2706,-5.3379,-5.3613,-5.4878,-5.565,-5.5905,-5.6822,-5.7528,-5.7751,-5.8415,-5.8634,-5.8664,0.0,0.0,-5.9713,-6.0106,-6.0835,-6.1652,-6.2481,-6.3099,-6.3549,-6.4222,-6.4542,-6.4639,0.0,0.0,0.0,0.0,0.0,0.0,0.0,-3.3083,-3.387,-3.7553,-3.8229,-3.7465,-3.5095,-3.4174,-3.3583,0.0,0.0,0.0,0.0,0.0,0.0,0.0,0.0,0.0,-3.2706,0.0,0.0,-3.1742,-3.124,0.0,0.0,0.0,0.0,0.0,-3.0509,-3.0509,-3.0518,-3.0591,-3.0692,0.0,0.0,-3.4924,-3.5444,0.0,0.0,0.0,0.0,-3.4082,-2.4307,-2.0863,-0.4297,1.7522,3.2756,4.0019,4.2959,4.361,4.4018,4.4991,4.8426,4.9528,4.8954,4.5972,4.2556,3.2025,0.183,-0.7228,-1.7296,-4.5679,-5.0772,-5.0407,-5.1242,-4.68,-4.3429,-4.4617,-3.858,-3.4244,-3.5849,-3.4916,-3.4604,-3.5734,-3.6488,-3.7253,-3.8551,-4.0894,0.0,0.0,0.0,0.0,0.0,-5.1489,-5.2812,-5.2486,-5.3884,-5.4422,-5.4068,-5.5591,-5.6509,-5.6623,-5.764,-5.7974,-5.7751,-5.8664,-5.8882,-5.8415,0.0,0.0,0.0,-6.0732,-6.1652,-6.2808,-6.3002,-6.3485,-6.4283,-6.4833,-6.5125,-6.5351,0.0,0.0,0.0,0.0,0.0,0.0,0.0,-3.5662,-3.7729,-4.181,-4.2252,-4.1512,-3.9661,-3.76,-3.5738,0.0,0.0,0.0,0.0,0.0,0.0,0.0,0.0,0.0,0.0,0.0,0.0,-3.188,-3.2586,0.0,0.0,0.0,0.0,0.0,0.0,-3.0605,-3.0605,-3.0613,0.0,0.0,0.0,0.0,0.0,0.0,0.0,0.0,0.0,-4.0281,-3.7269,-2.456,-1.831,-1.3377,0.0751,1.4652,2.5715,2.5415,2.6209,2.9987,4.3013,4.6982,4.602,4.0254,3.5311,2.4614,-0.3099,-1.26,-2.2521,-4.714,-5.1551,-5.1225,-5.1964,-5.1629,-5.0143,-4.6852,-4.8091,-4.6488,-3.7934,-3.9948,-4.0875,-3.7,-3.7569,-3.8574,-3.9873,-4.2201,-4.3891,0.0,0.0,0.0,0.0,-5.3131,-5.3809,-5.4369,-5.4569,-5.485,-5.5295,-5.6049,-5.6623,-5.7191,-5.7863,-5.8415,-5.8991,-5.8991,-5.9099,-5.9099,0.0,0.0,0.0,-6.1985,-6.271,-6.2905,-6.3612,-6.4285,-6.493,-6.4995,-6.5448,-6.6096,0.0,0.0,0.0,0.0,0.0,0.0,-3.6054,-3.5901,-3.7403,-4.3391,-4.3748,-4.3196,-4.2678,-4.1401,-3.9083,-3.5328,0.0,0.0,0.0,0.0,0.0,0.0,0.0,0.0,0.0,0.0,-3.2686,-3.2686,-3.3036,0.0,0.0,0.0,0.0,0.0,0.0,-3.1143,-3.072,-3.1256,0.0,0.0,0.0,0.0,0.0,0.0,0.0,0.0,0.0,0.0,-4.0941,-3.4912,-2.7103,-2.0717,-2.5297,-1.6696,-0.104,1.9005,2.3814,2.6,4.1393,4.3578,4.0406,3.6014,2.5445,1.1279,-0.7288,-1.9057,-3.0798,-4.738,-5.0091,-4.973,-5.0534,-5.1097,-5.1305,-5.0786,-4.9877,-4.8326,-4.5673,-4.3416,-4.1644,-4.0363,-3.9478,-3.9703,-4.1184,0.0,0.0,0.0,0.0,0.0,0.0,-5.465,-5.4878,-5.5131,-5.5478,-5.5822,-5.6077,-5.6964,-5.764,-5.7863,-5.8415,-5.8882,-5.9099,-5.9099,-5.9422,-5.9819,0.0,0.0,0.0,-6.2481,-6.3099,-6.3549,-6.435,-6.4801,-6.5125,-6.5999,-6.6517,-6.6841,0.0,0.0,0.0,0.0,0.0,-3.2428,-3.6868,-3.6571,-3.7943,-4.3824,-4.4263,-4.4078,-4.4261,-4.297,-4.0591,-3.6974,-3.6035,0.0,0.0,0.0,0.0,0.0,0.0,0.0,0.0,0.0,-3.3646,-3.3646,-3.3918,-3.3918,0.0,0.0,-3.3195,-3.2405,0.0,0.0,0.0,0.0,0.0,0.0,0.0,0.0,0.0,0.0,0.0,0.0,0.0,0.0,0.0,0.0,0.0,-2.8659,-4.0808,-3.8104,-2.5125,0.2119,1.1695,1.6507,3.0577,3.544,3.5061,2.9083,1.6244,0.1447,-1.2439,-2.4867,-3.6666,-4.7828,-4.9614,-4.932,-4.9939,-5.0519,-5.1486,-5.3227,-5.1611,-5.0379,-5.1048,-4.7776,-4.5061,-4.4385,-4.3298,-4.2933,-4.3924,-4.5516,0.0,0.0,0.0,0.0,0.0,-5.5613,-5.5729,-5.5729,-5.6193,-5.6509,-5.6623,-5.764,-5.8195,-5.8195,-5.8773,-5.9099,-5.9099,-5.9315,-5.9819,0.0,0.0,0.0,0.0,-6.3099,-6.3613,-6.4347,-6.4833,-6.5287,-6.5805,-6.6809,-6.7327,-6.7553,0.0,0.0,0.0,0.0,0.0,0.0,-3.6285,-3.8385,-4.0631,-4.3352,-4.4059,-4.4316,-4.4316,-4.1388,-3.9441,-3.9352,-3.713,0.0,0.0,0.0,0.0,0.0,0.0,0.0,0.0,0.0,-3.4666,-3.4666,-3.5561,-3.5522,-3.4666,-3.4666,-3.4237,-3.3336,0.0,0.0,0.0,0.0,0.0,0.0,0.0,0.0,0.0,0.0,0.0,0.0,0.0,0.0,0.0,0.0,0.0,0.0,0.0,-4.4816,-4.3638,-3.1348,-1.6734,-0.2534,0.6699,2.1061,3.0519,1.8529,0.8665,-0.2339,-1.8976,-2.9589,-3.8721,-4.8817,-5.0867,-5.0867,-5.0906,-5.0906,-5.1486,-5.3227,-5.4834,-5.4893,-5.2015,-5.3526,-5.3373,-4.9126,-4.9117,-4.9316,-4.8745,0.0,0.0,0.0,0.0,0.0,0.0,0.0,-5.6394,-5.6394,-5.6394,-5.6737,-5.7303,-5.7863,-5.8195,-5.8195,-5.8773,-5.9099,-5.9099,-5.9895,0.0,0.0,0.0,0.0,0.0,-6.3707,-6.4412,-6.5027,-6.5027,-6.5902,-6.7165,-6.7165,-6.7618,-6.8201,0.0,0.0,0.0,0.0,0.0,0.0,0.0,-3.6384,-3.7737,-4.1088,-4.1152,-4.1546,-4.3278,-4.1093,-3.9452,-3.9452,-3.7229,0.0,0.0,0.0,0.0,0.0,0.0,0.0,0.0,0.0,-3.5543,-3.5603,-3.5781,-3.5738,-3.5507,-3.5507,-3.5038,-3.4129,-3.3941,-3.3234,0.0,0.0,0.0,0.0,0.0,0.0,0.0,0.0,0.0,0.0,0.0,0.0,0.0,0.0,0.0,0.0,0.0,0.0,0.0,-4.3395,-3.2985,-1.8722,-0.4856,-0.0196,-0.0355,-0.4998,-1.554,-2.5865,-3.0005,-3.886,-4.6729,-4.8778,-4.9204,-4.9204,-4.9204,-4.9924,-5.1126,-5.28,-5.3843,-5.4778,-5.5851,-5.3806,-5.1916,-5.1127,-4.9249,-4.8387,0.0,0.0,0.0,0.0,0.0,0.0,0.0,0.0,-5.6394,-5.6394,-5.7191,-5.7751,-5.7863,-5.8525,-5.8773,-5.8773,-5.8991,-5.9099,-5.9099,-5.9925,0.0,0.0,0.0,0.0,0.0,-6.3897,-6.4412,-6.506,-6.5578,-6.6355,-6.7262,-6.7715,-6.8007,-6.8201,0.0,0.0,0.0,0.0,0.0,0.0,0.0,-3.5514,-3.6425,-3.8849,-3.8667,-3.9336,-4.1956,-3.9733,-3.8478,-3.948,-3.7336,0.0,0.0,0.0,0.0,0.0,0.0,0.0,0.0,-3.5937,-3.6054,-3.6406,-3.6342,-3.629,-3.6355,-3.6355,-3.5874,-3.4991,-3.4722,-3.4218,0.0,0.0,0.0,0.0,0.0,0.0,-4.0962,0.0,0.0,0.0,0.0,0.0,0.0,0.0,0.0,0.0,0.0,0.0,0.0,0.0,-4.2478,-3.3616,-2.1178,-1.6254,-1.5309,-1.8351,-2.7994,-3.672,-3.6689,-4.3826,-5.0055,-4.8662,-4.8392,-4.8377,-4.8221,-4.9162,-5.035,-5.1622,-5.2616,-5.387,-5.5805,-5.4012,-5.271,-5.3414,-5.1386,0.0,0.0,0.0,0.0,0.0,0.0,0.0,0.0,0.0,-5.7191,-5.7387,-5.7974,-5.8305,-5.8555,-5.8882,-5.9099,-5.9099,-5.9099,-5.9315,-5.9606,0.0,0.0,0.0,0.0,0.0,0.0,-6.4283,-6.4801,-6.5513,-6.6226,-6.6938,-6.7618,-6.8039,-6.8201,-6.8201,0.0,0.0,0.0,0.0,0.0,0.0,0.0,-3.5571,-3.6374,-3.6737,-3.6691,-3.7604,-4.0169,-3.7615,-3.6735,-3.9195,0.0,0.0,0.0,0.0,0.0,0.0,0.0,0.0,0.0,-3.589,-3.627,-3.7011,-3.704,-3.7079,-3.7084,-3.7084,-3.6655,-3.5836,-3.4983,-3.5168,0.0,0.0,0.0,0.0,-4.0145,-4.0294,0.0,0.0,0.0,0.0,0.0,0.0,0.0,0.0,0.0,0.0,0.0,0.0,0.0,0.0,0.0,0.0,0.0,-2.8168,-1.8736,-2.45,-3.147,-3.7536,-4.0016,-4.5292,0.0,-4.8508,-4.8299,-4.8237,-4.8106,-4.8662,-4.9362,-5.01,-5.1444,-5.2521,-5.2951,-5.4148,-5.5168,-5.5688,-5.4681,0.0,0.0,0.0,0.0,0.0,0.0,0.0,0.0,0.0,0.0,-5.9009,-5.8495,-5.8525,-5.9099,-5.9099,-5.9099,-5.9099,-5.9207,-5.9606,-6.0316,0.0,0.0,0.0,0.0,0.0,0.0,-6.4704,-6.5416,-6.6161,-6.6841,-6.7553,-6.8201,-6.8201,-6.8201,-6.8201,0.0,0.0,0.0,0.0,0.0,0.0,0.0,0.0,0.0,0.0,-3.584,-3.6102,-3.6745,-3.6242,-3.6122,0.0,0.0,0.0,0.0,0.0,0.0,0.0,0.0,0.0,0.0,-3.5777,-3.585,-3.6118,-3.6658,-3.6966,-3.7007,-3.7007,-3.6892,-3.6619,-3.5839,-3.636,0.0,0.0,0.0,0.0,-4.0703,-4.071,0.0,0.0,0.0,0.0,-4.0877,-4.0955,0.0,0.0,0.0,0.0,0.0,0.0,0.0,0.0,-4.4478,-4.5269,-4.5004,0.0,-4.1943,-4.3384,-4.5137,-4.6449,0.0,-4.7601,-4.8469,-4.7579,-4.7224,-4.7645,-4.9429,-4.9034,-4.9315,-5.1926,-5.2461,-5.2864,-5.3772,-5.3775,-5.3779,-5.4114,-5.3376,-5.3633,0.0,0.0,0.0,0.0,0.0,0.0,0.0,0.0,0.0,-5.9683,-5.9177,-5.8991,-5.9099,-5.9099,-5.9099,-5.9099,-5.9713,-6.0106,-6.0316,0.0,0.0,0.0,0.0,0.0,-6.4024,-6.4185,-6.4995,-6.6129,-6.629,-6.71,-6.8201,-6.8201,-6.8201,-6.8201,0.0,0.0,0.0,0.0,0.0,0.0,0.0,0.0,0.0,0.0,0.0,-3.5659,-3.5755,-3.5845,0.0,0.0,0.0,0.0,0.0,0.0,0.0,0.0,0.0,0.0,0.0,0.0,-3.5881,-3.6285,-3.6706,-3.713,-3.755,-3.7124,-3.6939,-3.6914,-3.6915,-3.7456,0.0,0.0,0.0,-4.0805,-4.0461,0.0,0.0,0.0,0.0,0.0,-4.09,-4.0955,0.0,-4.1483,-4.1637,-4.164,0.0,0.0,0.0,0.0,-4.3112,-4.3812,-4.5518,-4.8089,-5.0299,-5.0287,-5.0012,-4.9591,-4.9088,-4.7967,-4.6899,-4.6436,-4.609,-4.6369,-4.7905,-4.7935,-4.8475,-5.0804,-5.1359,-5.2145,-5.3962,-5.4305,-5.4405,-5.4482,-5.4081,0.0,0.0,0.0,0.0,0.0,0.0,0.0,0.0,0.0,0.0,0.0,-5.9713,-5.9315,-5.9099,-5.9499,-5.9499,-5.9099,-6.0316,-6.0835,-6.0908,0.0,0.0,0.0,0.0,0.0,-6.4024,-6.4347,-6.493,-6.5643,-6.5967,-6.6776,-6.7748,-6.7748,-6.7942,-6.8201,0.0,0.0,0.0,0.0,0.0,0.0,0.0,0.0,0.0,0.0,0.0,0.0,0.0,0.0,0.0,0.0,0.0,0.0,0.0,0.0,0.0,0.0,0.0,0.0,0.0,0.0,-3.6106,-3.6903,-3.7174,-3.7754,-3.8566,-3.7831,-3.7367,-3.7135,-3.819,-3.8569,0.0,0.0,0.0,-4.0745,-4.0043,0.0,0.0,0.0,0.0,0.0,0.0,0.0,0.0,-4.1831,-4.2103,-4.206,-4.2013,0.0,0.0,0.0,0.0,0.0,-4.433,-4.7388,-5.0079,-5.0101,-4.9707,-4.9266,-4.908,-4.7174,-4.5399,-4.5304,-4.5159,-4.5268,-4.6052,-4.6979,-4.8082,-4.9381,-5.0154,-5.1396,-5.3758,-5.4689,-5.5312,-5.5689,-5.5499,0.0,0.0,0.0,0.0,0.0,0.0,0.0,0.0,0.0,0.0,0.0,-6.0241,-5.9546,-5.8949,-5.9864,-5.9925,-5.9315,-6.0815,-6.1628,-6.1721,-6.2453,0.0,0.0,0.0,0.0,-6.4056,-6.4639,-6.493,-6.5092,-6.5708,-6.6388,-6.7035,-6.7035,-6.7392,-6.7877,0.0,0.0,0.0,0.0,0.0,0.0,0.0,0.0,0.0,0.0,0.0,0.0,0.0,0.0,0.0,0.0,0.0,0.0,0.0,0.0,0.0,0.0,0.0,0.0,0.0,0.0,0.0,0.0,-3.8373,-3.9533,-4.0384,-4.0268,-3.9417,-3.8063,-3.9673,-3.9983,-3.9352,-4.025,-4.0703,-4.0784,-4.068,0.0,0.0,0.0,0.0,0.0,0.0,0.0,0.0,-4.1104,-4.109,-4.1081,-4.1045,0.0,0.0,0.0,0.0,0.0,-4.5142,-4.5934,-4.6379,-4.6552,-4.7038,-4.7264,-4.6275,-4.5742,-4.5304,-4.5023,-4.5293,-4.6181,-4.8114,-4.9118,-5.0335,-5.2365,-5.2468,-5.2511,-5.2924,-5.3069,-5.3827,-5.5886,0.0,0.0,0.0,0.0,0.0,0.0,0.0,0.0,0.0,0.0,0.0,0.0,0.0,-5.9334,-5.8291,-5.9622,-6.0211,-6.0106,-6.1127,-6.1977,-6.258,-6.2842,-6.3315,0.0,0.0,-6.4024,-6.4024,-6.4121,-6.4509,-6.5027,-6.5157,-6.5643,-6.629,-6.629,-6.6323,-6.6518,0.0,0.0,0.0,0.0,0.0,0.0,0.0,0.0,0.0,0.0,0.0,0.0,0.0,0.0,0.0,0.0,0.0,0.0,0.0,0.0,0.0,0.0,0.0,0.0,0.0,0.0,0.0,0.0,0.0,-4.2473,-4.2821,-4.1429,-4.0384,-3.9611,-3.9959,-3.9894,-3.9584,-4.0423,-4.081,-4.081,0.0,0.0,0.0,0.0,0.0,0.0,0.0,0.0,0.0,0.0,-4.1558,-4.1544,-4.1461,0.0,0.0,0.0,0.0,0.0,-4.4678,-4.5411,-4.574,-4.6125,-4.6531,-4.6956,-4.7708,-4.7154,-4.6428,-4.6174,-4.6165,-4.6612,-4.7867,-4.8969,-5.0295,-5.2133,-5.3314,-5.4155,-5.4518,-5.5293,-5.6233,0.0,0.0,0.0,0.0,0.0,0.0,0.0,0.0,0.0,0.0,0.0,0.0,0.0,0.0,0.0,-5.8535,-5.9276,-5.9522,-5.9215,-6.0994,-6.1884,-6.2203,-6.2646,-6.3311,-6.3991,0.0,-6.3635,-6.3991,-6.357,-6.3829,-6.4477,-6.4477,-6.4898,-6.5578,-6.5967,-6.6096,-6.6096,0.0,0.0,0.0,0.0,0.0,0.0,0.0,0.0,0.0,0.0,0.0,0.0,0.0,0.0,0.0,0.0,0.0,0.0,0.0,0.0,0.0,0.0,0.0,0.0,0.0,0.0,-4.1119,-4.3208,-4.4755,-4.5374,-4.5142,-4.3401,-4.2048,-4.1042,-4.0384,-3.9959,-3.9855,-4.05,-4.081,-4.081,0.0,0.0,0.0,0.0,0.0,0.0,0.0,0.0,0.0,0.0,0.0,0.0,0.0,0.0,0.0,-4.2009,-4.228,-4.2963,-4.466,-4.5214,-4.5668,-4.6985,-4.6987,-4.7158,-4.9119,-4.8461,-4.741,-4.75,-4.7339,-4.7275,-4.7758,-4.9307,-5.104,-5.2733,-5.4416,-5.5513,-5.5621,-5.6956,0.0,0.0,0.0,0.0,0.0,0.0,0.0,0.0,0.0,0.0,0.0,0.0,0.0,0.0,0.0,0.0,-5.8848,-5.9098,-5.9109,-5.88,-6.058,-6.1648,-6.1981,-6.2418,-6.3052,-6.3732,-6.3149,-6.3117,-6.3473,-6.3052,-6.3214,-6.3764,-6.3959,-6.4315,-6.4866,-6.5416,-6.561,-6.561,0.0,0.0,0.0,0.0,0.0,0.0,0.0,0.0,0.0,0.0,0.0,0.0,0.0,0.0,0.0,0.0,0.0,0.0,0.0,0.0,0.0,0.0,0.0,0.0,0.0,-4.2589,-4.344,-4.6728,-4.7657,-4.7695,-4.6922,-4.754,-4.5722,-4.1893,-4.1854,-4.139,-4.0694,-4.0771,-4.081,-4.081,-4.081,0.0,0.0,0.0,0.0,0.0,0.0,0.0,0.0,0.0,0.0,0.0,0.0,0.0,-4.2009,-4.2009,-4.3169,-4.4713,-4.6142,-4.5268,-4.4872,-4.8627,-4.83,-4.7269,-4.8075,-4.7754,-4.7535,-4.8411,-4.8451,-4.8514,-4.9333,-5.2021,-5.4722,-5.6836,-5.6738,-5.5973,-5.4718,0.0,0.0,0.0,0.0,0.0,0.0,0.0,0.0,0.0,0.0,0.0,0.0,0.0,0.0,0.0,0.0,0.0,-5.8748,-5.9473,-5.9916,-6.0201,-6.0412,-6.1289,-6.2765,-6.2178,-6.2275,-6.2955,-6.2923,-6.2534,-6.2016,-6.2631,-6.2923,-6.3052,-6.3732,-6.4056,-6.4088,-6.4153,-6.4153,-6.4153,0.0,0.0,0.0,0.0,0.0,0.0,0.0,0.0,0.0,0.0,0.0,0.0,0.0,0.0,0.0,0.0,0.0,0.0,0.0,0.0,0.0,0.0,0.0,-4.0307,-4.3711,-4.5761,-4.8198,-5.1061,-5.1409,-5.0867,-4.9397,-4.7115,-4.4871,-4.2744,-4.1699,-4.1081,-4.081,-4.081,-4.081,-4.081,-4.081,-4.0792,0.0,0.0,0.0,0.0,0.0,0.0,0.0,0.0,-4.0423,-4.0075,-4.0616,-4.1351,-4.206,-4.2395,-4.3365,-4.4504,-4.5627,-4.5658,-4.5864,-4.782,-4.7867,-4.7815,-4.934,-4.9705,-4.9948,-5.0999,-5.0689,-5.0504,-5.1324,-5.269,-5.4004,-5.5168,-5.5521,-5.5474,0.0,0.0,0.0,0.0,0.0,0.0,0.0,0.0,0.0,0.0,0.0,0.0,0.0,0.0,0.0,0.0,0.0,0.0,0.0,-5.9724,-5.996,-6.055,-6.0291,-6.0728,-6.1749,-6.1491,-6.1749,-6.2424,-6.1974,-6.1938,-6.2252,-6.2123,-6.2668,-6.3603,-6.3894,-6.4024,-6.4024,-6.4024,-6.4024,-6.4024,0.0,0.0,0.0,0.0,0.0,0.0,0.0,0.0,0.0,0.0,0.0,0.0,0.0,0.0,0.0,0.0,0.0,0.0,0.0,0.0,0.0,0.0,0.0,-3.9779,-4.2328,-4.7101,-5.0571,-5.2685,-5.3498,-5.2453,-4.9629,-4.6496,-4.4407,-4.3247,-4.1545,-4.0926,-4.1158,0.0,0.0,-4.081,-4.081,-4.0804,0.0,0.0,0.0,0.0,0.0,0.0,0.0,0.0,-4.0166,-3.9573,-4.0679,-4.1562,-4.2233,-4.2672,-4.3675,-4.4744,-4.5171,-4.5715,-4.6356,-4.7426,-4.772,-4.8297,-5.0506,-5.0928,-5.1311,-5.2705,-5.2313,-5.2123,-5.3316,-5.345,-5.3758,-5.4922,-5.5123,0.0,0.0,0.0,0.0,0.0,0.0,0.0,0.0,0.0,0.0,0.0,0.0,0.0,0.0,0.0,0.0,0.0,0.0,0.0,0.0,-6.0304,-6.0279,-6.0515,-6.0488,-6.0801,-6.1363,-6.1209,-6.1372,-6.182,-6.1308,-6.1338,-6.1716,-6.1552,-6.2511,-6.4024,-6.4024,-6.4024,-6.4024,-6.4024,-6.4024,-6.4024,0.0,0.0,0.0,0.0,0.0,0.0,0.0,0.0,0.0,0.0,0.0,0.0,0.0,0.0,0.0,0.0,0.0,0.0,0.0,-3.5704,0.0,0.0,0.0,-3.9727,-4.0323,-4.6128,-4.9701,-5.089,-5.3536,-5.2144,-4.7038,-4.6264,-4.4949,-4.3208,-4.1545,-4.1235,-4.1932,0.0,0.0,-4.081,-4.081,-4.081,-4.0759,0.0,0.0,0.0,0.0,0.0,0.0,0.0,-4.0034,-3.9391,-4.1063,-4.1973,-4.2443,-4.2718,-4.427,-4.5754,-4.5204,-4.5291,-4.5954,-4.7839,-4.8212,-4.8736,-5.1083,-5.098,-5.1016,-5.3062,-5.2935,-5.3091,-5.521,-5.4529,-5.4529,-5.7006,0.0,0.0,0.0,0.0,0.0,0.0,0.0,0.0,0.0,0.0,0.0,0.0,0.0,0.0,0.0,0.0,0.0,0.0,0.0,0.0,0.0,-6.1317,-6.0986,-6.0345,-6.1066,-6.1611,-6.2061,-6.1363,-6.1116,-6.1116,-6.1116,-6.07,-6.0124,-6.1106,-6.2511,-6.4024,-6.4024,-6.4024,-6.4024,-6.4024,-6.4024,-6.4024,0.0,0.0,0.0,0.0,0.0,0.0,0.0,0.0,0.0,0.0,0.0,0.0,0.0,0.0,0.0,0.0,0.0,0.0,-3.5704,-3.5704,-3.562,-3.5432,0.0,0.0,0.0,0.0,-4.6105,-5.1168,-5.2526,-5.0389,-4.5076,-4.4845,-4.3559,-4.1545,-4.1622,0.0,0.0,0.0,0.0,-4.0771,-4.0598,-4.0539,-4.05,0.0,0.0,0.0,0.0,0.0,0.0,0.0,0.0,0.0,-4.0063,-4.1719,-4.3156,-4.245,-4.3931,-4.5481,-4.4158,-4.5366,-4.7226,-4.8251,-4.9611,-5.0997,-5.2463,-5.2216,-5.1917,-5.2838,-5.4018,-5.4904,-5.4966,-5.5111,-5.5324,0.0,0.0,0.0,0.0,0.0,0.0,0.0,0.0,0.0,0.0,0.0,0.0,0.0,0.0,0.0,0.0,0.0,0.0,0.0,0.0,0.0,0.0,0.0,-6.0745,-6.1098,-6.0769,-6.0715,-6.0865,-6.1122,-6.128,-6.128,-6.128,-6.1249,-6.1376,-6.249,-6.332,-6.3707,-6.3707,-6.3707,-6.3707,-6.3517,-6.3421,-6.3517,0.0,0.0,0.0,0.0,0.0,0.0,0.0,0.0,0.0,0.0,-3.3278,-3.3829,0.0,0.0,0.0,0.0,0.0,0.0,-3.5546,-3.5534,-3.5418,-3.5193,-3.5982,-3.6705,-3.7255,-4.0745,-4.4204,-4.7606,-4.8991,-4.7489,-4.332,-4.3667,-4.311,-4.1816,-4.2318,-4.2201,0.0,0.0,0.0,-4.0469,-4.0628,-4.0498,-4.0251,0.0,0.0,0.0,0.0,0.0,0.0,0.0,0.0,0.0,-4.0457,-4.1713,-4.2862,-4.2855,-4.4878,-4.6903,-4.5808,-4.7555,-4.972,-5.0026,-5.0764,-5.176,-5.2869,-5.2997,-5.3055,-5.3434,-5.4316,-5.509,-5.5472,-5.5477,0.0,0.0,0.0,0.0,0.0,0.0,0.0,0.0,0.0,0.0,0.0,0.0,0.0,0.0,0.0,0.0,0.0,0.0,0.0,0.0,0.0,0.0,0.0,0.0,0.0,-6.0955,-6.109,-6.0959,-6.0739,-6.1182,-6.1403,-6.1403,-6.1403,-6.1565,-6.1918,-6.2908,-6.3293,-6.3421,-6.3421,-6.3421,-6.3421,-6.3228,-6.3228,-6.3228,0.0,0.0,0.0,0.0,0.0,0.0,0.0,0.0,0.0,-3.3078,-3.3245,-3.3813,0.0,0.0,0.0,-3.5643,-3.5631,-3.5521,-3.5283,-3.5283,-3.5178,-3.4961,-3.5704,-3.7516,-4.049,-4.2693,-4.3133,-4.1795,-4.4166,-4.4124,-4.184,-4.2753,-4.3139,-4.3115,-4.3192,-4.2988,0.0,0.0,0.0,-3.989,-4.0629,-4.0477,-3.9944,-4.1203,0.0,0.0,0.0,0.0,0.0,0.0,0.0,0.0,-4.1717,-4.1829,-4.2032,-4.3529,-4.6396,-4.8998,-4.8644,-5.0628,-5.2651,-5.2301,-5.1753,-5.1691,-5.2677,-5.3536,-5.4188,-5.4398,-5.4025,-5.4329,-5.6325,-5.5688,0.0,0.0,0.0,0.0,0.0,0.0,0.0,0.0,0.0,0.0,0.0,0.0,0.0,0.0,0.0,0.0,0.0,0.0,0.0,0.0,0.0,0.0,0.0,0.0,0.0,0.0,-6.1623,-6.2045,-6.1498,-6.1498,-6.1498,-6.1498,-6.1498,-6.1595,-6.1917,-6.2553,-6.2905,-6.3131,-6.3131,-6.3131,-6.3131,-6.3131,-6.3131,-6.3131,0.0,0.0,0.0,0.0,0.0,0.0,0.0,0.0,-3.1255,-3.2997,-3.3158,-3.38,-3.5503,-3.5495,0.0,-3.5405,-3.5262,-3.5136,-3.5047,-3.5047,-3.4943,-3.4695,-3.5327,-3.6845,-3.9378,-3.9341,-3.9548,-4.0026,-4.3114,-4.3141,-4.0367,-4.1694,-4.2036,-4.1686,-4.2297,-4.1819,0.0,0.0,-3.9315,-3.9248,-3.9022,-3.8942,-3.8975,-3.9037,-3.9289,0.0,0.0,0.0,0.0,0.0,0.0,0.0,-4.1613,-4.2076,-4.2581,-4.2965,-4.5139,-4.7161,-4.6047,-4.8544,-5.1451,-5.1374,-5.242,-5.3582,-5.3703,-5.4322,-5.4529,-5.344,-5.4228,-5.5378,-5.5852,0.0,0.0,0.0,0.0,0.0,0.0,0.0,0.0,0.0,0.0,0.0,0.0,0.0,0.0,0.0,0.0,0.0,0.0,0.0,0.0,0.0,0.0,0.0,-5.9476,-5.9644,-5.9914,0.0,-6.1153,-6.1851,-6.2193,-6.2193,-6.2193,-6.2193,-6.2193,-6.2193,-6.2323,-6.2646,-6.2808,-6.2905,-6.2905,-6.2905,-6.2905,-6.2612,-6.2513,-6.271,0.0,0.0,0.0,0.0,0.0,0.0,0.0,0.0,-3.2141,-3.3024,-3.339,-3.4044,-3.5367,-3.5321,0.0,0.0,-3.5047,-3.4963,-3.4813,-3.4794,-3.5052,-3.5595,-3.6658,-3.7819,-3.9082,-3.8798,-3.8752,-3.8922,-4.0252,-4.0571,-3.9926,-4.1092,-4.1472,-4.122,-4.166,-4.1102,-3.9738,-3.9304,-3.8888,-3.8563,-3.9089,-3.8914,-3.838,-3.9052,-3.9208,-3.9184,-3.9746,0.0,0.0,0.0,0.0,0.0,0.0,0.0,-4.2365,-4.3051,-4.5023,-4.7126,-4.7686,-5.0317,-5.2768,-5.2417,-5.3151,-5.3881,-5.3651,-5.409,-5.4393,-5.3785,-5.5042,-5.6258,0.0,0.0,0.0,0.0,0.0,0.0,0.0,0.0,0.0,0.0,0.0,0.0,0.0,0.0,0.0,0.0,0.0,0.0,0.0,0.0,0.0,0.0,0.0,0.0,-5.8792,-5.9124,-5.9633,-6.0297,-6.1055,-6.1751,-6.2446,-6.2446,-6.2446,-6.2446,-6.2446,-6.2446,-6.2414,-6.2513,-6.2612,-6.2612,-6.2612,-6.2612,-6.2612,-6.2414,-6.2612,-6.3068,0.0,0.0,0.0,0.0,0.0,0.0,0.0,0.0,0.0,-3.3225,-3.3686,-3.4309,-3.5177,-3.5064,-3.4868,0.0,0.0,0.0,-3.4341,-3.4604,-3.5408,-3.6842,-3.8191,-3.8971,-3.9082,-3.9189,-3.8826,-3.8023,-3.7347,-3.7898,-3.9553,-4.0447,-4.0903,-4.1054,-4.0984,-4.0321,-3.9288,-3.8987,-3.8377,-3.7664,-3.8998,-3.8765,-3.7713,-3.9184,-3.938,-3.9008,-3.9863,-4.12,-4.2575,-4.2575,0.0,0.0,0.0,0.0,-4.1414,-4.2814,-4.481,-4.7111,-4.9407,-5.1983,-5.3943,-5.3719,-5.3584,-5.345,-5.3315,-5.3788,-5.4328,-5.4601,-5.5753,0.0,0.0,0.0,0.0,0.0,0.0,0.0,0.0,0.0,0.0,0.0,0.0,0.0,0.0,0.0,0.0,0.0,0.0,0.0,0.0,0.0,0.0,0.0,0.0,-5.8882,-5.8274,-5.9064,-5.976,-6.0297,-6.115,-6.1877,-6.2446,-6.2446,-6.2446,-6.2446,-6.2446,-6.2446,-6.2446,-6.2446,-6.2446,-6.2446,-6.2446,-6.2446,-6.2446,-6.2446,-6.2905,-6.3516,0.0,0.0,0.0,0.0,0.0,0.0,0.0,0.0,0.0,0.0,-3.3953,-3.4251,-3.4971,-3.4813,-3.4391,-3.3674,-3.4046,-3.3999,-3.3245,0.0,0.0,-3.7671,-3.7931,-3.8377,-3.9082,-3.8468,-3.7713,-3.6894,-3.6819,-3.7254,-3.8201,-3.9021,-3.9805,-4.0476,-3.973,-3.892,-3.8048,-3.6633,-3.6072,-3.6167,-3.6162,-3.616,-3.622,-3.6945,-3.7559,-3.8154,-3.8971,-4.0346,-4.1757,-4.1757,-4.1582,0.0,0.0,0.0,-3.9586,-4.0881,-4.2806,-4.4693,-4.5466,-4.8237,-5.1279,-5.3006,-5.3076,-5.2903,-5.3517,-5.4431,-5.5139,0.0,0.0,0.0,0.0,0.0,0.0,0.0,0.0,0.0,0.0,0.0,0.0,0.0,0.0,0.0,0.0,0.0,0.0,0.0,0.0,0.0,0.0,0.0,-5.861,-5.9152,-5.8701,0.0,-5.8274,-5.9538,-6.0202,-6.0297,-6.1656,-6.2351,-6.2446,-6.2446,-6.2446,-6.2446,-6.2446,-6.2446,-6.2446,-6.2446,-6.2446,-6.2446,-6.2446,-6.2446,-6.2446,-6.2446,-6.2905,-6.3516,0.0,0.0,0.0,0.0,0.0,0.0,0.0,0.0,0.0,0.0,0.0,-3.4471,-3.4737,-3.4529,-3.4054,-3.3231,-3.338,-3.3361,-3.3027,-3.4996,-3.6482,-3.7188,-3.8079,-3.8525,-3.8414,-3.7634,-3.6816,-3.6036,-3.5553,-3.5821,-3.6859,-3.7933,-3.8859,-3.9602,-3.8339,-3.7559,-3.7113,-3.5479,-3.4833,-3.4913,-3.4809,-3.566,-3.6834,-3.5732,-3.6746,-3.8705,-3.8004,-3.8789,-4.0174,-4.0436,-4.0698,-4.0796,-4.0051,0.0,0.0,0.0,-4.1137,-4.2644,-4.623,-4.9223,-5.1802,-5.3661,-5.3781,-5.3617,-5.3881,-5.4364,-5.4867,-5.5553,0.0,0.0,0.0,0.0,0.0,0.0,0.0,0.0,0.0,0.0,0.0,0.0,0.0,0.0,0.0,0.0,0.0,0.0,0.0,0.0,0.0,-5.8058,-5.815,-5.8701,-5.8459,0.0,-5.8274,-5.9254,-6.0139,-6.0929,-6.194,-6.2446,-6.2446,-6.2446,-6.2446,-6.2446,-6.2446,-6.2446,-6.2446,-6.2446,-6.2446,-6.2383,-6.2003,-6.1845,-6.1845,-6.23,-6.2936,-6.3622,0.0,0.0,0.0,0.0,0.0,0.0,0.0,0.0,0.0,0.0,0.0,-3.4572,-3.4486,0.0,0.0,0.0,-3.3175,-3.3263,-3.3167,-3.5168,-3.6345,-3.6266,-3.7718,-3.8116,-3.7299,-3.6705,-3.5936,-3.5018,-3.4711,-3.5151,-3.6369,-3.7618,-3.8693,-3.9497,-3.821,-3.7522,-3.7188,-3.533,-3.4661,-3.4822,-3.4797,-3.608,-3.7893,-3.6884,-3.8252,-4.0444,0.0,-3.8645,-3.9597,-3.9276,-3.9649,-4.002,-3.8834,-3.8798,0.0,0.0,0.0,-4.1805,-4.7015,-4.9781,-5.1543,-5.3575,-5.3886,-5.3836,-5.4072,-5.4194,-5.4626,0.0,0.0,0.0,0.0,0.0,0.0,0.0,0.0,0.0,0.0,0.0,0.0,0.0,0.0,0.0,0.0,0.0,0.0,0.0,0.0,0.0,-5.8089,-5.7871,-5.7871,-5.8274,-5.8274,-5.8274,-5.8274,-5.9128,-6.017,-6.1403,-6.2098,-6.2446,-6.2446,-6.2446,-6.2446,-6.2446,-6.2446,-6.2446,-6.2414,-6.2256,-6.2161,-6.2098,-6.1403,-6.1119,-6.1215,-6.2139,-6.2918,-6.3744,0.0,0.0,0.0,0.0,0.0,0.0,0.0,0.0,0.0,0.0,0.0,-3.4486,-3.425,-3.4203,-3.3881,-3.3064,-3.3696,-3.3981,-3.3579,-3.4818,-3.5388,-3.4999,-3.6176,0.0,-3.5627,-3.5553,-3.4955,-3.3726,-3.4844,-3.6065,-3.7271,-3.8469,-3.966,-4.0687,-4.0355,-3.9751,-3.8822,-3.6445,-3.585,-3.6559,-3.6421,-3.7228,-3.8777,-4.1714,-4.3247,0.0,0.0,-4.1288,-4.1005,-3.862,-3.8041,-3.8188,-3.7376,-3.7341,-3.7714,0.0,0.0,0.0,-4.606,-4.7525,-4.8792,-5.1647,-5.2466,-5.2864,-5.3676,-5.443,-5.4979,0.0,0.0,0.0,0.0,0.0,0.0,0.0,0.0,0.0,0.0,0.0,0.0,0.0,0.0,0.0,0.0,0.0,0.0,0.0,0.0,0.0,-5.759,-5.7965,-5.8274,-5.8274,-5.8274,-5.8274,-5.8274,-5.957,-6.0645,-6.1403,-6.2098,-6.2446,-6.2446,-6.2446,-6.2446,-6.2446,-6.2446,-6.2446,-6.2383,-6.1719,-6.1435,-6.1371,-6.0645,-6.036,-6.0519,-6.1947,-6.2918,-6.3563,0.0,0.0,0.0,0.0,0.0,0.0,0.0,0.0,0.0,0.0,0.0,0.0,0.0,-3.4179,-3.3881,-3.3064,-3.325,0.0,0.0,-3.4649,-3.5325,-3.4934,-3.5781,-3.5789,-3.4717,-3.4652,-3.4193,-3.3219,-3.3655,-3.4485,-3.5647,-3.7377,-3.8538,-3.9153,-3.9126,-3.8774,-3.8081,-3.5952,-3.522,-3.5578,-3.6594,-3.8501,-4.0987,-4.3269,0.0,0.0,0.0,-4.4008,-4.1418,0.0,0.0,0.0,0.0,0.0,-3.8035,-3.8355,-4.0184,-4.2719,-4.5354,-4.6968,-4.8444,-5.0597,-5.1726,-5.2323,-5.2438,-5.3686,-5.4795,0.0,0.0,0.0,0.0,0.0,0.0,0.0,0.0,0.0,0.0,0.0,0.0,0.0,0.0,0.0,0.0,0.0,0.0,0.0,0.0,0.0,-5.7965,-5.8182,-5.8274,-5.8274,-5.8274,-5.8685,-5.957,-6.0044,-6.0897,-6.2067,-6.2319,-6.2446,-6.2446,-6.2446,-6.2446,-6.2446,-6.2446,-6.2446,-6.2383,-6.1687,-6.1403,-6.1277,-6.0107,-5.9916,-6.038,-6.1426,-6.2297,-6.2933,0.0,0.0,0.0,0.0,0.0,0.0,0.0,0.0,0.0,0.0,0.0,0.0,0.0,0.0,-3.4401,-3.3881,-3.3547,-3.3265,-3.3004,-3.4175,-3.4632,-3.4081,-3.4709,-3.4649,-3.3831,-3.3795,-3.3373,-3.2429,-3.2834,-3.3359,-3.4023,-3.629,-3.7542,-3.7835,-3.7935,-3.8182,-3.8402,-3.6837,-3.6084,-3.6185,-3.8191,-4.0141,-4.2144,-4.5297,0.0,0.0,0.0,0.0,0.0,0.0,0.0,0.0,0.0,0.0,0.0,-3.8209,-4.0008,-4.2368,-4.4023,-4.5927,-4.7954,-4.9924,-5.076,-5.139,-5.2101,-5.3247,-5.405,0.0,0.0,0.0,0.0,0.0,0.0,0.0,0.0,0.0,0.0,0.0,0.0,0.0,0.0,0.0,0.0,0.0,0.0,0.0,0.0,0.0,-5.8274,-5.8274,-5.8274,-5.8274,-5.8274,-5.8812,-5.9949,-6.017,-6.0897,-6.2098,-6.2319,-6.2446,-6.2446,-6.2446,-6.2319,-6.2098,-6.2319,-6.2288,-6.2035,-6.1308,-6.0897,-6.0581,-5.9412,-5.9402,-6.0096,-6.1033,-6.1688,-6.2235,0.0,0.0,0.0,0.0,0.0,0.0,0.0,0.0,0.0,-3.3101,0.0,0.0,0.0,0.0,0.0,-3.5479,-3.4736,-3.3902,-3.3069,-3.3328,-3.3219,-3.2435,0.0,0.0,-3.3014,-3.2978,-3.2434,-3.1308,-3.2496,-3.2849,-3.2601,-3.5316,-3.6719,-3.6988,-3.7023,-3.8105,-3.9911,-3.9048,-3.8578,-3.8633,0.0,-4.2008,-4.2221,0.0,0.0,0.0,-4.8758,-4.8719,0.0,-4.7062,0.0,0.0,0.0,0.0,0.0,0.0,-3.9595,-4.194,0.0,0.0,0.0,-4.9457,-4.9548,-4.9827,-5.2793,-5.3146,-5.2827,0.0,0.0,0.0,0.0,0.0,0.0,0.0,0.0,0.0,0.0,0.0,0.0,0.0,0.0,0.0,0.0,0.0,0.0,0.0,0.0,-5.8274,-5.8274,-5.8274,-5.8274,-5.8274,-5.8274,-5.8622,-5.9317,-5.9981,-6.0676,-6.1435,-6.2098,-6.2446,-6.2446,-6.2446,-6.2035,-6.1435,-6.213,-6.2003,-6.1277,-6.0581,-5.9886,-5.9222,-5.8527,-5.8701,-5.9484,-6.0837,-6.136,-6.1459,0.0,0.0,0.0,0.0,0.0,-3.3918,-3.3101,-3.3658,-3.3918,0.0,0.0,0.0,0.0,0.0,0.0,-3.5553,-3.4987,-3.4367,-3.3486,-3.2799,-3.2373,-3.2401,-3.2004,-3.2117,-3.2895,-3.2406,-3.1986,-3.1636,-3.1463,-3.1323,-3.1255,-3.2546,-3.3803,-3.4975,-3.5491,-3.6023,-3.6536,-3.6107,-3.6788,-3.8367,-3.9585,-4.2214,0.0,0.0,0.0,0.0,0.0,-5.4012,-5.1802,0.0,-4.9077,-4.6056,0.0,0.0,0.0,0.0,-3.925,-4.0698,-4.2388,0.0,0.0,0.0,0.0,0.0,0.0,0.0,0.0,0.0,0.0,0.0,0.0,0.0,0.0,0.0,0.0,0.0,0.0,0.0,0.0,0.0,0.0,0.0,0.0,0.0,0.0,0.0,0.0,-5.8274,-5.8274,-5.8274,-5.8274,-5.8274,-5.8274,-5.8843,-6.0012,-6.0202,-6.0897,-6.2161,-6.2351,-6.2446,-6.2446,-6.2446,-6.2035,-6.1435,-6.213,-6.1466,-5.9918,-6.017,-5.9886,-5.9222,-5.8527,-5.9062,-6.0001,-5.9966,-6.0532,-6.136,0.0,0.0,-3.4179,-3.4179,-3.4476,-3.4327,-3.3175,-3.429,-3.481,0.0,0.0,0.0,0.0,0.0,0.0,-3.6306,-3.5413,-3.4389,-3.3202,-3.2199,-3.1501,-3.1183,-3.1393,-3.1812,-3.2421,-3.2662,-3.2421,-3.18,-3.1662,-3.1282,-3.0731,-3.211,-3.3041,-3.3628,-3.4387,-3.4904,-3.5152,-3.4356,-3.5247,0.0,-4.0822,0.0,0.0,-5.0546,-5.2775,0.0,0.0,0.0,-5.2953,-5.3925,-5.1205,0.0,0.0,0.0,0.0,0.0,-3.956,-4.1388,-4.2388,-4.3699,-4.501,-4.6113,0.0,0.0,-4.8293,-4.8383,0.0,0.0,0.0,0.0,0.0,0.0,0.0,0.0,0.0,0.0,0.0,0.0,0.0,0.0,0.0,0.0,0.0,0.0,0.0,0.0,-5.8274,-5.8274,-5.8274,-5.8274,-5.8274,-5.8274,-5.8274,-5.8906,-6.0297,-6.0297,-6.1024,-6.2446,-6.2446,-6.2446,-6.2414,-6.213,-6.1782,-6.1403,-6.1498,-6.0676,-5.9349,-5.9728,-5.9381,-5.8531,-5.834,-5.885,-5.9499,-5.9088,-5.9645,-6.0379,0.0,0.0,-3.4216,-3.4327,-3.507,-3.5144,-3.377,-3.5404,-3.6333,0.0,0.0,0.0,0.0,0.0,0.0,0.0,-3.5848,-3.4238,-3.2611,-3.1628,-3.0657,-2.9661,-3.0938,-3.18,-3.2041,-3.3386,-3.3421,-3.2041,-3.2524,-3.211,-3.0869,-3.2697,-3.3248,-3.2697,-3.3386,-3.4076,-3.4628,-3.349,-3.4289,-3.6827,-4.3047,-4.4813,0.0,0.0,-5.2543,0.0,-5.4134,-5.4091,-5.3281,-5.5591,-5.3051,0.0,0.0,0.0,0.0,0.0,-4.0562,-4.3172,-4.2437,-4.3733,-4.5665,-4.7113,-4.5906,0.0,-4.9947,-4.969,0.0,0.0,0.0,0.0,0.0,0.0,0.0,0.0,0.0,0.0,0.0,0.0,0.0,0.0,0.0,0.0,0.0,0.0,0.0,-5.8274,-5.8274,-5.8274,-5.8274,-5.8274,-5.8274,-5.8274,-5.8338,-5.897,-6.017,-6.0329,-6.1055,-6.2319,-6.2481,-6.2481,-6.2288,-6.1785,-6.1405,-6.1119,-6.0646,-5.9981,-5.9191,-5.9348,-5.8688,-5.759,-5.8089,-5.8395,-5.8483,-5.8391,-5.8818,-5.912,-3.4179,-3.4179,-3.4401,-3.5107,-3.5925,-3.6556,-3.6891,-3.7336,-3.7782,-3.8079,0.0,0.0,0.0,0.0,0.0,0.0,-3.6255,-3.4375,-3.3354,-3.115,-3.0041,-3.042,-3.0731,-3.1765,-3.3593,-3.3938,-3.3938,-3.3628,-3.2559,-3.1869,-3.1558,-3.0765,-3.0662,-3.1145,-3.1282,-3.142,-3.1662,-3.3214,-3.5648,-3.8652,-4.0695,0.0,-4.6977,-5.0525,-5.3254,-5.5249,-5.5753,-5.6348,-5.6758,0.0,-5.3366,-5.0163,0.0,0.0,0.0,-4.1901,-4.2612,-4.4201,-4.393,-4.4147,-4.4734,-4.563,-4.5527,0.0,-4.6392,-4.5282,-4.4948,0.0,0.0,0.0,0.0,0.0,0.0,0.0,0.0,0.0,0.0,0.0,0.0,0.0,0.0,0.0,0.0,0.0,-5.8274,-5.8274,-5.8274,-5.8274,-5.8274,-5.8274,-5.8274,-5.8274,-5.8812,-5.9222,-5.9507,-6.0613,-6.1308,-6.1593,-6.2715,-6.2683,-6.1593,-6.2077,-6.1312,-5.9728,-6.0799,-6.0163,-5.862,-5.9681,-5.9122,-5.759,-5.8089,-5.8395,-5.8391,-5.7902,-5.8395,-5.9209,-3.4179,-3.4179,-3.4587,-3.5887,-3.6742,-3.7559,-3.8377,-3.9194,-3.9751,-3.9751,0.0,0.0,0.0,0.0,0.0,0.0,0.0,0.0,-3.3905,-3.2189,-3.1214,-3.1248,-3.1972,-3.2904,-3.4076,-3.48,-3.5007,-3.4628,-3.3869,-3.3317,-3.2938,-3.2145,-3.2746,-3.4473,-3.2641,-3.306,-3.5104,-3.4372,-3.5731,-3.858,-4.2045,0.0,-4.9686,-5.2713,-5.4827,-5.6214,-5.6214,-5.6875,-5.7418,-5.5222,-5.3453,0.0,0.0,-4.8012,-4.6957,0.0,-4.4636,-4.5909,-4.464,-4.4561,-4.5044,-4.5837,-4.5423,0.0,0.0,0.0,-4.4801,0.0,0.0,0.0,0.0,0.0,0.0,0.0,0.0,0.0,0.0,0.0,0.0,0.0,0.0,0.0,0.0,0.0,-5.759,-5.7871,-5.7871,-5.7965,-5.8274,-5.8274,-5.8274,-5.8274,-5.8622,-5.9128,-5.9791,-6.0487,-6.1375,-6.246,-6.2811,-6.2618,-6.1918,-6.1559,-6.1046,-6.0355,-6.0004,-5.9653,-5.9302,-5.9302,-5.862,-5.759,-5.8089,-5.8026,-5.759,-5.7559,-5.784,-5.8303,-3.408,-3.4018,-3.455,-3.637,-3.7485,-3.8451,-3.9417,-4.0717,-4.1319,-4.0563,-3.9871,-3.9469,0.0,0.0,0.0,0.0,0.0,0.0,0.0,-3.2018,-3.1403,-3.0898,-3.279,-3.3624,-3.3158,-3.5091,-3.587,-3.5421,-3.5111,-3.4766,-3.4283,-3.3835,-3.4944,-3.7235,-3.4931,-3.5668,-3.8611,-3.626,0.0,-3.9762,0.0,-4.7732,-5.0237,-5.4164,-5.5552,-5.5505,-5.6185,-5.6989,-5.7338,-5.4932,0.0,-5.3381,-5.1433,-5.056,0.0,0.0,-4.6883,-4.8279,-4.5664,-4.5389,-4.5975,-4.6493,-4.5561,-4.4921,0.0,0.0,0.0,0.0,0.0,0.0,0.0,0.0,0.0,0.0,0.0,0.0,0.0,0.0,0.0,0.0,0.0,0.0,0.0,0.0,-5.6435,-5.7244,-5.6934,-5.7057,-5.7933,-5.8089,-5.8182,-5.8182,-5.8493,-5.9156,-6.0107,-6.0551,-6.1536,-6.3036,-6.2649,-6.2295,-6.2041,-6.0999,-6.0677,-6.0881,-5.9361,-5.917,-6.0013,-5.8924,-5.815,-5.7684,-5.8182,-5.7684,-5.6796,-5.7275,-5.7495,-5.737,-3.368,-3.3389,-3.3881,-3.6259,-3.7968,-3.9491,-4.1089,-4.146,-4.1415,-4.0822,-3.4695,-3.0739,-3.167,0.0,0.0,0.0,0.0,0.0,-2.7517,0.0,0.0,-2.7537,-3.1081,-3.1996,-2.9792,-3.3393,-3.5594,-3.618,-3.4869,-3.4525,-3.5007,-3.3007,-3.2562,-3.3647,-3.6181,-3.672,-3.5833,-3.8364,-4.2038,0.0,-4.6151,-4.543,0.0,-5.1111,-5.3059,-5.3046,-5.6077,-5.7749,-5.8199,0.0,-5.5527,-5.4898,0.0,-5.2373,-5.3721,-4.8806,-4.9686,-5.1522,-4.8207,-4.7389,-4.732,-4.6769,-4.5941,-4.5164,0.0,0.0,-4.3528,-4.3769,0.0,0.0,0.0,0.0,0.0,0.0,0.0,0.0,0.0,0.0,0.0,0.0,0.0,0.0,0.0,0.0,0.0,-5.6645,-5.492,-5.4687,-5.6738,-5.7275,-5.759,-5.759,-5.9182,-5.9841,-5.9412,-6.1246,-6.1981,-6.1692,-6.2235,-6.1756,-6.0583,-6.1012,-6.0662,-5.9556,-5.9892,-5.9859,-5.9427,-5.9274,-5.8792,-5.8182,-5.8274,-5.7684,-5.6796,-5.7275,-5.7495,-5.7401,-3.4481,-3.4562,-3.5219,-3.7671,-3.8637,-3.9677,-4.1349,-4.2105,-4.2466,-4.2294,-4.0225,-3.91,0.0,0.0,0.0,0.0,0.0,-2.8425,0.0,0.0,0.0,-3.3585,-3.4906,-3.4869,-3.3335,-3.4553,-3.5145,-3.5007,-3.3938,-3.3559,-3.3835,-3.2455,-3.3824,-3.7466,-3.7751,-3.9588,-4.2342,0.0,-4.2174,0.0,0.0,0.0,0.0,-5.1849,-5.4877,-5.5297,-5.7255,-5.851,-5.9011,0.0,-5.6492,0.0,0.0,0.0,0.0,-5.1102,-5.0652,-5.0125,-4.7713,-4.7603,-4.7911,-4.6874,0.0,0.0,-4.4733,0.0,-4.3093,0.0,0.0,0.0,0.0,0.0,0.0,0.0,0.0,0.0,0.0,0.0,0.0,0.0,0.0,0.0,0.0,0.0,0.0,0.0,0.0,-5.3771,-5.6546,-5.6892,-5.737,-5.8056,-5.8464,-5.9095,-6.0012,-6.0519,-6.1186,-6.2139,-6.1344,-6.0959,-6.0896,-6.0509,-6.0193,-5.9878,-5.9427,-5.9491,-5.9788,-5.8737,-5.8243,-5.8274,-5.8274,-5.7871,-5.718,-5.7778,-5.759,-5.7084,-3.5064,-3.5081,-3.5487,-3.7727,-3.8435,-3.9209,-4.0677,-4.1528,-4.2122,0.0,0.0,0.0,-4.3312,-3.9704,0.0,0.0,-2.8359,-2.7192,0.0,0.0,-3.0662,-3.3955,-3.6305,0.0,-3.3867,-3.494,-3.5249,-3.4697,-3.3904,-3.3731,-3.4145,-3.2972,-3.5044,-3.9799,-3.9338,-4.1869,-4.6255,0.0,-4.3918,-4.5076,-4.5363,-4.6078,-4.7607,-5.3035,-5.6207,-5.785,-5.8428,-5.9258,-5.9837,-5.8626,-5.7317,0.0,-5.6948,0.0,-5.2997,0.0,-5.2434,-5.1079,-4.8778,0.0,0.0,0.0,0.0,0.0,0.0,0.0,0.0,0.0,0.0,0.0,0.0,0.0,0.0,0.0,0.0,0.0,0.0,0.0,0.0,0.0,0.0,0.0,0.0,0.0,0.0,0.0,0.0,0.0,-5.6128,-5.6409,-5.6862,-5.7746,-5.7809,-5.8561,-6.0202,-5.9946,-6.0581,-6.2107,-6.0264,-5.9759,-6.0354,-5.9627,-5.9383,-5.9521,-5.8836,-5.9051,-5.9703,-5.8122,-5.7778,-5.8274,-5.8274,-5.8089,-5.7778,-5.8182,-5.759,-5.6796,-3.5026,-3.4087,-3.3517,-3.5199,-3.6746,-3.8077,-3.8977,-3.9085,0.0,0.0,0.0,0.0,0.0,0.0,0.0,0.0,0.0,-1.1365,-1.6315,0.0,-2.4801,0.0,-3.2231,-3.4405,0.0,-3.3276,-3.6249,-3.6215,-3.549,-3.587,-3.7284,-3.5042,-3.5324,-3.7759,-4.087,-4.2691,-4.3632,-4.6691,-4.9732,-5.2397,-5.0804,-5.2567,-5.5843,0.0,-5.5551,-5.9396,-5.9288,0.0,0.0,-5.8806,-5.816,0.0,0.0,0.0,0.0,0.0,0.0,0.0,0.0,0.0,0.0,-4.8592,0.0,0.0,0.0,0.0,-4.294,0.0,0.0,0.0,0.0,0.0,0.0,0.0,0.0,0.0,0.0,0.0,0.0,0.0,0.0,0.0,0.0,0.0,0.0,0.0,0.0,0.0,-5.498,-5.5651,-5.5918,-5.6017,-5.7769,-5.8936,-5.9621,-6.0234,-6.0581,-6.0652,-5.918,-5.8332,-5.7943,-5.8496,-5.8374,-5.7777,-5.8436,-5.8655,-5.8514,-5.7746,-5.7778,-5.8274,-5.8274,-5.8274,-5.8274,-5.8274,-5.759,-5.6796,-3.4333,-3.4506,-3.4796,-3.5998,-3.687,-3.7766,0.0,-4.0058,0.0,0.0,0.0,0.0,0.0,0.0,-2.1234,0.0,0.0,-1.6286,-1.8027,-2.3548,0.0,0.0,0.0,-3.8731,0.0,0.0,-3.6835,-3.6284,-3.5559,-3.5732,-3.6697,-3.5904,-3.6835,-3.9276,-4.1513,-4.3954,-4.6449,0.0,0.0,0.0,0.0,-5.3333,-5.6564,0.0,0.0,-5.9358,-5.9792,-6.0265,0.0,-5.9982,-5.8867,-5.778,-5.8125,-5.6908,-5.545,-5.5888,-5.5509,0.0,0.0,0.0,-5.3993,-5.0599,0.0,0.0,0.0,0.0,0.0,0.0,0.0,0.0,0.0,0.0,0.0,0.0,0.0,0.0,0.0,0.0,0.0,0.0,0.0,0.0,0.0,0.0,0.0,0.0,0.0,0.0,0.0,-5.5551,-5.5918,-5.7086,-5.7239,-5.7897,-5.8967,-5.8806,-5.8899,-5.9311,-5.7999,-5.7536,-5.7745,-5.7997,-5.7933,-5.7735,-5.7648,-5.7965,-5.8468,-5.7366,-5.7495,-5.8274,-5.8274,-5.8274,-5.8274,-5.8274,-5.759,-5.67,-3.4431,-3.4663,-3.5074,-3.5969,-3.6827,0.0,0.0,0.0,0.0,0.0,-3.3417,0.0,-2.6582,0.0,-2.2541,0.0,-1.7465,-1.6939,-1.9097,-2.3102,0.0,-3.0138,-3.6194,0.0,0.0,0.0,-3.7374,-3.727,-3.7259,-3.7566,-3.8299,-3.7479,-3.8119,-3.9945,-4.114,-4.3673,-4.7191,-4.8086,-4.9924,0.0,0.0,-5.5395,0.0,0.0,-5.8935,0.0,0.0,-6.0376,-6.0597,-6.0585,-5.9625,-5.8627,-5.9517,-5.8051,-5.6181,-5.7254,-5.6658,-5.5541,-5.5059,-5.5991,0.0,-5.3019,-5.2389,0.0,-4.7002,0.0,0.0,0.0,0.0,0.0,0.0,0.0,0.0,0.0,0.0,0.0,0.0,0.0,0.0,0.0,0.0,0.0,0.0,0.0,0.0,0.0,0.0,0.0,0.0,0.0,-5.575,-5.68,-5.6818,-5.7254,-5.8045,-5.7783,-5.7881,-5.8335,-5.734,-5.6874,-5.7086,-5.7335,-5.7228,-5.6915,-5.6905,-5.7325,-5.78,-5.727,-5.7401,-5.8058,-5.8274,-5.8182,-5.8089,-5.8274,-5.7871,-5.7337,-3.5249,-3.4697,0.0,0.0,-3.6533,0.0,0.0,0.0,-4.0214,0.0,-3.3125,-3.2685,-2.7413,-1.9861,-1.6623,-2.0263,-1.4253,0.0,-1.8768,-2.0999,0.0,0.0,-3.1144,-3.2555,-3.1368,0.0,0.0,0.0,-4.0311,-4.1237,-4.1849,-3.9698,-3.9016,-3.9691,-3.9926,-4.2108,-4.5828,-4.7931,-5.1777,-5.6539,-5.8128,-5.8565,-5.838,-5.8953,0.0,-5.7902,-5.9463,-6.0208,-6.0518,-6.0559,-6.0387,-6.0091,-5.9639,-5.9364,-5.9175,-5.8892,-5.9399,-5.961,-5.7455,-5.8361,-5.916,-5.581,0.0,0.0,0.0,0.0,-4.9988,0.0,0.0,0.0,0.0,0.0,0.0,0.0,0.0,0.0,0.0,0.0,0.0,0.0,0.0,0.0,0.0,0.0,0.0,0.0,0.0,0.0,0.0,0.0,0.0,-5.528,-5.6254,-5.6889,-5.702,-5.7389,-5.7685,-5.7715,-5.7008,-5.6439,-5.5979,-5.6586,-5.6254,-5.5269,-5.6416,-5.6793,-5.67,-5.7306,-5.7495,-5.759,-5.8089,-5.7996,-5.7621,-5.8121,-5.8338,-5.8308,-3.5904,-3.6353,-3.6663,0.0,-3.7032,-3.8104,0.0,0.0,0.0,0.0,-2.1126,-1.6487,-0.9798,-0.913,-0.9711,-1.1035,-1.1142,0.0,0.0,0.0,0.0,-2.3627,-3.1982,-3.5805,-3.3928,-3.7102,0.0,-4.1229,0.0,-4.1167,-4.1883,-4.0204,-3.9593,-3.9886,-3.9886,-4.2021,-4.5587,-4.7116,-5.1185,-5.6657,-5.7815,-5.7829,0.0,0.0,-5.9206,-5.8099,-5.9279,-6.003,-6.0464,-6.048,-6.0159,-5.9639,-5.9537,-6.004,-6.0603,-6.03,-6.1209,-6.2261,-6.1871,-6.1824,-6.1508,-5.975,-5.78,-5.5749,0.0,0.0,0.0,0.0,0.0,0.0,0.0,0.0,0.0,0.0,0.0,0.0,0.0,0.0,0.0,0.0,0.0,0.0,0.0,0.0,0.0,0.0,0.0,0.0,0.0,0.0,0.0,-5.625,-5.6169,-5.6389,-5.6782,-5.6879,-5.6977,-5.6977,-5.6792,-5.6654,-5.6647,-5.6313,-5.6073,-5.5999,-5.6143,-5.6366,-5.67,-5.7306,-5.7495,-5.759,-5.8089,-5.8311,-5.8275,-5.8371,-5.8466,-5.856,-3.6284,-3.7456,0.0,-3.8456,0.0,0.0,-3.7492,0.0,0.0,-2.4154,-2.1282,0.0,-1.0097,-0.8156,-0.7863,-0.9419,-1.0576,0.0,0.0,0.0,0.0,-2.5228,-3.0956,-3.3988,-3.3542,-3.7971,0.0,-4.2186,0.0,-4.2861,-4.2318,-4.0841,-3.9998,-3.9787,-3.985,-4.1526,-4.4662,-4.8322,-5.2098,-5.5739,-5.7558,0.0,0.0,-5.9773,-5.996,-5.9433,-6.0265,-6.0774,-6.1045,-6.0969,-6.0736,-6.0417,-6.0563,-6.106,-6.1513,-6.1397,-6.212,-6.2928,-6.2801,-6.3036,-6.3069,-6.2128,-6.0857,-5.9292,-5.7157,-5.6082,-5.5201,0.0,0.0,0.0,0.0,0.0,0.0,0.0,0.0,0.0,0.0,0.0,0.0,0.0,0.0,0.0,0.0,0.0,0.0,0.0,0.0,0.0,0.0,0.0,0.0,-5.7298,-5.5869,-5.5633,-5.67,-5.6115,-5.6269,-5.7131,-5.6854,-5.6745,-5.6889,-5.6525,-5.6134,-5.5849,-5.6404,-5.6684,-5.67,-5.7306,-5.7495,-5.7527,-5.7902,-5.846,-5.9037,-5.9332,-5.9055,-5.8681,-3.6559,-3.8353,0.0,0.0,0.0,0.0,0.0,-3.7239,0.0,-2.5379,0.0,-2.4151,-1.7746,-1.1782,-0.938,-1.2312,0.0,-1.468,-2.2267,-2.0476,-2.2175,-2.8771,-2.9146,-3.0402,-3.2966,-3.8589,0.0,0.0,0.0,-4.5029,-4.2982,-4.1434,-4.0289,-3.9524,-3.9658,-4.1277,-4.4271,-5.0423,-5.3727,0.0,-5.7592,-5.8868,-5.9366,-6.0187,-6.0755,-6.1198,-6.1807,-6.1956,-6.1883,-6.1656,-6.1537,-6.1562,-6.1871,-6.2086,-6.2254,-6.2397,-6.2798,-6.2996,-6.2312,-6.312,-6.4027,-6.3341,-6.3428,-6.2929,-6.0043,-5.8619,-5.7863,-5.7524,-5.4922,0.0,0.0,0.0,0.0,0.0,0.0,0.0,0.0,0.0,0.0,0.0,0.0,0.0,0.0,0.0,0.0,0.0,0.0,0.0,0.0,0.0,0.0,-5.7872,-5.5627,0.0,-5.6423,0.0,-5.5745,-5.7218,-5.6879,-5.68,-5.7041,-5.6849,-5.6375,-5.5651,-5.7014,-5.7254,-5.67,-5.7306,-5.7527,-5.7683,-5.7788,-5.8608,-5.9849,-6.0508,-5.9929,-5.9024,-3.718,-3.9595,-4.1388,0.0,0.0,-3.2343,-2.7624,-2.3466,-2.0628,-1.9881,-1.6022,0.0,-1.1806,-1.1232,-1.1777,-1.3946,-1.4687,0.0,0.0,0.0,0.0,-2.6613,-2.8448,-3.2165,-3.8102,-4.0453,-4.2871,0.0,0.0,-4.5029,-4.2982,-4.1434,-4.0289,-3.9524,-3.9524,-4.258,-4.7963,-5.1477,0.0,-5.7292,-5.8495,-5.8984,-5.9212,-6.0903,-6.1581,-6.1807,-6.2822,-6.262,-6.1845,-6.1616,-6.1251,-6.1056,-6.1781,-6.2585,-6.3361,-6.3747,-6.4679,-6.5346,-6.4337,-6.41,-6.3918,-6.318,-6.2329,-6.1963,-6.2599,-6.116,-6.0019,-6.1398,-5.9322,-5.6779,-5.5123,0.0,0.0,0.0,0.0,0.0,0.0,0.0,0.0,0.0,0.0,0.0,0.0,0.0,0.0,0.0,0.0,0.0,0.0,0.0,0.0,0.0,0.0,0.0,0.0,0.0,0.0,-5.4714,-5.6108,-5.7203,-5.7637,-5.6714,-5.6684,-5.7455,-5.7021,-5.6823,-5.67,-5.7306,-5.7807,-5.8304,-5.8468,-5.9371,-6.0578,-6.1208,-6.0927,-6.0465,-4.0767,-4.2181,-4.1936,-3.7963,0.0,0.0,0.0,-1.6569,0.0,-1.8877,-1.7325,-1.5934,-1.6064,-1.3416,-1.2601,-1.515,-1.5053,-1.6234,-1.9598,-2.1001,-2.3215,-2.6298,-2.9556,0.0,-4.0062,-4.3235,-4.5466,-4.6671,0.0,-4.5377,-4.2332,-4.1178,-4.0391,-4.0078,-4.1582,-4.4101,0.0,0.0,0.0,-5.6581,-5.8174,-5.9129,-5.9771,-6.1356,-6.2184,-6.2673,-6.3555,-6.3443,-6.2813,-6.2168,-6.2187,-6.2523,-6.3071,-6.3711,-6.4318,-6.4387,-6.4889,-6.5073,-6.3783,-6.3477,-6.3306,-6.2788,-6.224,-6.2038,-6.281,-6.1873,-6.1183,-6.2333,-6.0662,-5.8113,-5.5051,-5.1458,0.0,0.0,0.0,0.0,0.0,0.0,0.0,0.0,0.0,0.0,0.0,0.0,0.0,0.0,0.0,0.0,0.0,0.0,0.0,0.0,0.0,0.0,0.0,0.0,0.0,-5.6433,-5.7014,-5.7568,-5.7918,-5.7049,-5.6955,-5.7375,-5.7303,-5.7038,-5.673,-5.7679,-5.8142,-5.8331,-5.8978,-5.9787,-6.0772,-6.1082,-6.1193,-6.1277,-4.2243,-4.2548,-4.0687,0.0,-2.8142,0.0,0.0,-1.4059,-1.2571,-1.7928,-1.9318,-1.9872,-1.9838,-1.5479,-1.3536,-1.5998,-1.5419,-1.6833,-2.1274,-2.2009,-2.3867,-2.7485,-3.2051,-3.6911,-4.2358,-4.6777,-4.9015,0.0,0.0,0.0,-4.2664,-4.1396,-4.1044,0.0,0.0,0.0,0.0,0.0,-5.441,-5.6031,-5.8061,-5.9339,-6.0289,-6.1694,-6.2636,-6.3314,-6.3869,-6.3883,-6.358,-6.2851,-6.3158,-6.3816,-6.4323,-6.4495,-6.4527,-6.4519,-6.4322,-6.3882,-6.2763,-6.2486,-6.2551,-6.2455,-6.2322,-6.229,-6.2599,-6.209,-6.178,-6.2676,-6.1349,-5.8959,-5.5429,-5.2881,0.0,0.0,0.0,0.0,0.0,0.0,0.0,0.0,0.0,0.0,0.0,0.0,0.0,0.0,0.0,0.0,0.0,0.0,0.0,0.0,0.0,-5.623,-5.7682,0.0,-5.6621,0.0,-5.7894,-5.7973,-5.8294,-5.7498,-5.7209,-5.7334,-5.7426,-5.729,-5.6954,-5.77,-5.8016,-5.8013,-5.9267,-6.0147,-6.0659,-6.0794,-6.1113,-6.1596,0.0,0.0,0.0,0.0,0.0,0.0,0.0,-1.5897,-1.2785,-1.3898,-1.4719,-1.4961,-1.4498,-1.4959,-1.5698,-1.6844,-1.8015,-1.9639,-2.1502,-2.4514,-2.7611,-3.0727,-3.6311,-4.201,-4.7665,-5.122,-5.3544,0.0,0.0,0.0,0.0,-4.29,-4.2784,0.0,0.0,0.0,0.0,-5.3641,-5.5438,-5.812,-5.9239,-5.9775,-6.0115,-6.1894,-6.2735,-6.3081,-6.3413,-6.3363,-6.3194,-6.3408,-6.3366,-6.3326,-6.4266,-6.393,-6.3222,-6.3966,-6.3388,-6.2627,-6.2424,-6.2018,-6.1745,-6.2255,-6.195,-6.1953,-6.3166,-6.2474,-6.2057,-6.4042,-6.2664,-5.9684,-5.509,-5.617,-5.6059,0.0,0.0,0.0,0.0,0.0,0.0,0.0,0.0,0.0,0.0,0.0,0.0,0.0,-4.859,0.0,0.0,0.0,0.0,-5.7626,0.0,-5.7361,-5.5876,-5.6842,0.0,-5.6118,-5.7312,-5.8255,-5.8819,-5.7603,-5.7583,-5.8508,-5.7346,-5.705,-5.7432,-5.6854,-5.7021,-5.7613,-5.9134,-5.9911,-6.0328,-6.0659,-6.1006,-6.14,0.0,0.0,0.0,0.0,0.0,0.0,0.0,-1.2824,-1.1848,-1.2857,-1.3269,-1.3555,-1.3665,-1.3784,-1.4609,-1.6245,-1.7301,-1.8894,-2.1191,-2.4468,-2.6116,-2.5506,-3.5527,-4.187,-4.3547,-5.0601,-5.4802,0.0,0.0,0.0,0.0,0.0,0.0,0.0,0.0,-5.1325,-5.3806,-5.5607,-5.7288,-5.8915,-5.9529,-6.0358,-6.1226,-6.2048,-6.2737,-6.3301,-6.3251,-6.3178,-6.3136,-6.3272,-6.2924,-6.27,-6.3825,-6.3476,-6.2722,-6.3235,-6.2899,-6.2389,-6.2389,-6.195,-6.1536,-6.1813,-6.2023,-6.2404,-6.2927,-6.2496,-6.2261,-6.347,-6.2174,-6.0222,-5.8264,-5.7248,-5.653,0.0,0.0,0.0,0.0,0.0,0.0,0.0,0.0,0.0,0.0,0.0,0.0,0.0,0.0,0.0,0.0,0.0,0.0,-5.2667,0.0,-5.6503,-5.384,-5.6311,-5.7766,-5.8018,-5.8662,-5.8863,-5.8727,-5.7992,-5.7395,-5.7007,-5.6457,-5.6311,-5.6567,-5.6504,-5.6482,-5.6521,-5.7743,-5.8817,-5.9728,-5.9864,-6.0608,-6.134,-2.6548,0.0,-2.3514,0.0,-1.6755,-1.5243,-1.1366,-1.1148,-1.1631,-1.2363,-1.2234,-1.2595,-1.3545,-1.3426,-1.4123,-1.6127,-1.7256,-1.9245,-2.2452,-2.5957,-2.7752,-2.7466,-3.8308,0.0,-4.5075,-5.2692,-5.6942,-5.7526,-5.3344,0.0,0.0,0.0,0.0,0.0,-5.2697,-5.3901,-5.4768,-5.6806,-5.8154,-5.9018,-5.9448,-6.0646,-6.2144,-6.2483,-6.3215,-6.3965,-6.3516,-6.326,-6.3085,-6.3184,-6.2695,-6.2149,-6.3249,-6.3066,-6.2455,-6.2717,-6.2587,-6.2424,-6.2468,-6.2162,-6.1944,-6.2186,-6.2841,-6.3501,-6.3647,-6.3213,-6.2775,-6.2582,-6.18,-6.1094,-6.0533,-5.8659,-5.7493,0.0,0.0,0.0,0.0,0.0,0.0,0.0,-5.5304,-5.4615,-5.4722,0.0,0.0,0.0,0.0,0.0,0.0,0.0,0.0,0.0,0.0,0.0,0.0,0.0,-5.8251,-5.9228,-5.9408,-5.924,-5.871,-5.8049,-5.7031,-5.5792,-5.5792,-5.5983,-5.6355,-5.6436,-5.627,-5.6063,-5.7335,-5.8297,-5.9027,-5.9516,-6.0299,-6.0961,-2.1344,-1.9984,-1.8087,-1.1966,-1.1471,-1.184,-1.1752,-1.2234,-1.2475,-1.1881,-1.1269,-1.1511,-1.3545,-1.4262,-1.5213,-1.6844,-1.8736,-2.1641,-2.5834,-2.9707,-3.4671,0.0,0.0,-5.2308,-5.6244,-5.9482,-6.1139,-6.113,0.0,0.0,-5.4629,-5.1099,-5.1081,-5.4038,-5.3778,-5.5108,-5.7498,-5.7065,-5.7521,-5.8456,-5.9075,-6.0537,-6.247,-6.3272,-6.4234,-6.5081,-6.4273,-6.358,-6.3147,-6.3456,-6.2753,-6.1848,-6.2663,-6.2652,-6.2389,-6.2389,-6.2389,-6.2431,-6.2648,-6.2763,-6.2958,-6.3742,-6.4571,-6.5309,-6.5925,-6.5162,-6.3718,-6.1574,-6.1905,-6.2267,-6.0907,-6.1043,-5.9957,-5.5744,0.0,0.0,0.0,0.0,0.0,-5.389,-4.7316,-4.5842,-5.3891,0.0,0.0,0.0,0.0,0.0,0.0,0.0,0.0,-5.738,-5.7544,0.0,-5.6783,-5.7402,-5.8054,-5.8731,-5.8826,-5.8954,-5.8923,-5.7557,-5.6383,-5.5634,-5.5605,-5.6273,-5.7213,-5.6623,-5.6229,-5.6369,-5.8494,-5.8811,-5.8258,-5.9963,-6.0442,-6.0202,-1.2999,-1.284,-1.2767,-1.1638,-1.1639,-1.2001,-1.2363,-1.3075,-1.3195,-1.1993,-1.2234,-1.3232,-1.5403,-1.4211,-1.4779,0.0,-1.9443,-1.9694,0.0,-2.3092,-2.6226,-2.7957,-3.8347,-4.5705,-4.9144,-5.6855,-6.0773,-6.0652,0.0,0.0,0.0,-5.376,-5.4561,-5.7155,-5.6969,-5.7105,-5.7656,-5.8601,-5.9648,-6.0688,-6.1782,-6.2761,-6.357,-6.3948,-6.4148,-6.4108,-6.4221,-6.4165,-6.3997,-6.4109,-6.3733,-6.3238,-6.3489,-6.2746,-6.1987,-6.2921,-6.3275,-6.3483,-6.4031,-6.4346,-6.4346,-6.422,-6.4699,-6.5107,-6.4869,-6.3952,-6.2727,-6.0927,-6.0833,-6.1142,-6.1407,-6.1556,-6.1345,-6.0294,0.0,0.0,0.0,0.0,-5.6336,-5.59,-5.4277,-5.4264,0.0,0.0,0.0,0.0,0.0,0.0,0.0,0.0,0.0,0.0,-5.5296,0.0,-5.3622,-5.6039,-5.8024,-5.9408,-5.9466,-5.9379,-5.8954,-5.7451,-5.6474,-5.5819,-5.6317,-5.612,-5.5358,-5.5584,-5.5281,-5.4884,-5.6363,-5.7353,-5.8149,-5.9253,-5.9955,-6.0202,-1.0266,-1.0378,-1.0966,-1.2699,-1.269,-1.2786,-1.4029,-1.3965,-1.3508,-1.282,-1.335,-1.4407,-1.6,-1.5397,0.0,-2.0488,-2.1109,0.0,-1.8472,-2.1964,-2.5541,-2.8805,-3.65,-4.4103,-5.1393,0.0,0.0,-6.047,-5.8356,-5.7314,-5.7314,-5.6967,-5.7486,-5.871,-5.8545,-5.8378,-5.813,-5.9292,-6.0559,-6.1945,-6.2839,-6.3857,-6.4762,-6.4819,-6.4835,-6.4766,-6.4815,-6.483,-6.4794,-6.4504,-6.4405,-6.4399,-6.4506,-6.3705,-6.2818,-6.3898,-6.4287,-6.4387,-6.4869,-6.5094,-6.5067,-6.4405,-6.5189,-6.5846,-6.4992,-6.4195,-6.3015,-6.144,-6.1087,-6.1281,-6.2059,-6.2178,-6.2204,-6.2183,0.0,-6.0961,-5.9412,0.0,0.0,0.0,0.0,0.0,0.0,-5.4845,0.0,0.0,0.0,0.0,0.0,0.0,0.0,-5.188,-5.5037,0.0,-5.3653,-5.6196,-5.8008,-5.9131,-5.9138,-5.8821,-5.8112,-5.7309,-5.6456,-5.5736,-5.6924,-5.6397,-5.4658,-5.5509,-5.5452,-5.5021,-5.6108,-5.7353,-5.8584,-5.9359,-5.9933,-6.017,-1.2202,-1.1956,0.0,0.0,-1.4066,0.0,-1.6574,-1.5022,-1.3724,-1.4363,-1.4735,-1.5112,-1.5649,-1.7234,-1.9325,-2.2064,0.0,0.0,0.0,-2.4796,-3.0712,-3.9974,-4.0476,0.0,-6.0779,-6.021,-6.0035,-6.0556,-6.0488,-6.0482,-6.0482,-6.0265,-5.9739,-5.891,-5.8947,-5.8937,-5.8859,-5.9361,-6.0735,-6.2542,-6.2738,-6.4043,-6.6007,-6.5742,-6.6098,-6.6641,-6.5917,-6.5663,-6.5555,-6.483,-6.491,-6.5309,-6.5653,-6.5302,-6.4789,-6.516,-6.5186,-6.5141,-6.5176,-6.5271,-6.5261,-6.4607,-6.585,-6.7044,-6.61,-6.5315,-6.4387,-6.2776,-6.2446,-6.2519,-6.2834,-6.289,-6.2696,-6.2048,-6.2403,-6.2158,-6.0551,0.0,0.0,0.0,0.0,0.0,0.0,-5.5237,-5.5815,0.0,0.0,0.0,0.0,0.0,-5.1989,-5.5736,-5.6555,-5.6647,-5.6226,-5.7378,-5.8035,-5.7958,-5.8065,-5.7635,-5.6874,-5.709,-5.6584,-5.5593,-5.739,-5.6945,-5.497,-5.5933,-5.6394,-5.6394,-5.7605,-5.8565,-5.941,-6.0058,-6.0265,-6.0044,0.0,0.0,-1.4286,-1.5297,-1.513,-1.5509,-1.7349,-1.6241,-1.5027,-1.4824,-1.5246,-1.5711,-1.5993,-1.6893,-1.7554,-1.7759,-1.7847,-1.7021,-1.509,-1.9949,-2.6007,-3.2905,-4.0435,-4.9586,-6.0546,-6.0421,-6.0252,-6.0303,-6.0283,-6.0265,-6.0265,-6.0068,-5.9575,-5.891,-5.9582,-5.9579,-5.9249,-6.1594,-6.2996,-6.3753,-6.5198,-6.5887,-6.608,-6.6395,-6.6243,-6.5953,-6.6351,-6.6533,-6.6496,-6.6315,-6.6512,-6.6854,-6.6971,-6.6982,-6.6756,-6.606,-6.5568,-6.5275,-6.5226,-6.5682,-6.5966,-6.5337,-6.5559,-6.5801,-6.5734,-6.4934,-6.3894,-6.3164,-6.271,-6.2646,-6.3479,-6.3635,-6.3696,-6.4028,-6.3629,-6.2769,-6.1084,-6.0757,0.0,0.0,-5.7941,-5.7909,-5.766,-5.754,-5.6883,0.0,0.0,0.0,0.0,-5.3808,-5.4298,-5.5827,-5.6555,-5.6858,-5.6885,-5.7054,-5.7049,-5.6846,-5.7517,-5.7739,-5.7517,-5.8248,-5.7702,-5.628,-5.8099,-5.7017,-5.4047,-5.5701,-5.5933,-5.5556,-5.7241,-5.8267,-5.8775,-5.9902,-5.9981,-5.9412,-1.4426,-1.5007,-1.5439,-1.6494,-1.6615,-1.6881,-1.7908,-1.7003,-1.5939,-1.5428,-1.6024,-1.6139,-1.5228,-1.6084,-1.6329,-1.5248,-1.6801,-1.5574,-1.0104,-1.8413,-2.5518,-3.0124,-3.9911,-4.9984,-5.9976,-6.0147,-6.0212,-6.0507,-6.047,-6.043,-6.0321,-6.0129,-6.0093,-6.0263,-6.0711,-6.1119,-6.152,-6.3533,-6.4579,-6.5055,-6.6271,-6.6671,-6.6534,-6.6722,-6.6533,-6.6207,-6.6641,-6.6825,-6.6993,-6.727,-6.7472,-6.7647,-6.8106,-6.7973,-6.7601,-6.726,-6.6565,-6.58,-6.5834,-6.5847,-6.5888,-6.5922,-6.5658,-6.5481,-6.568,-6.4786,-6.38,-6.326,-6.2808,-6.271,-6.3705,-6.3894,-6.3984,-6.4152,-6.4552,-6.4042,-6.2003,-6.2136,0.0,-6.0202,-5.9691,-5.9324,-5.9004,-5.8518,-5.7783,-5.6485,0.0,0.0,-5.5354,-5.5621,-5.5871,-5.6043,-5.6636,-5.7196,-5.7543,-5.734,-5.6955,-5.6394,-5.7274,-5.7499,-5.7191,-5.8525,-5.8305,-5.7078,-5.8525,-5.7499,-5.4998,-5.6366,-5.6649,-5.622,-5.7605,-5.8535,-5.896,-5.9305,-5.9412,-5.9222,-1.6436,-1.6426,-1.6447,-1.7888,-1.8243,-1.8524,-1.8542,-1.7385,-1.6529,-1.6053,-1.6583,-1.6452,-1.4651,-1.5316,-1.5109,-1.3328,-1.7358,-1.6678,-0.9026,-1.972,-2.8041,-3.1685,-4.1594,-5.0959,-5.9409,-5.976,-6.0158,-6.0783,-6.0817,-6.0781,-6.07,-6.0571,-6.1055,-6.2032,-6.2217,-6.2954,-6.4053,-6.5007,-6.5603,-6.6024,-6.6634,-6.6961,-6.7097,-6.6961,-6.6845,-6.6822,-6.6931,-6.7004,-6.7231,-6.7945,-6.8048,-6.8072,-6.9019,-6.8717,-6.8025,-6.8343,-6.7569,-6.666,-6.6457,-6.5888,-6.557,-6.6062,-6.5834,-6.5392,-6.5625,-6.4786,-6.3894,-6.3357,-6.2971,-6.2841,-6.3576,-6.3732,-6.3719,-6.3495,-6.4741,-6.4918,-6.269,0.0,-6.3463,-6.1962,-6.0736,-5.9826,-5.9702,-5.8855,-5.8369,-5.8559,-5.7903,0.0,0.0,-5.7273,-5.6828,-5.6466,-5.6974,-5.7467,-5.8047,-5.768,-5.7191,-5.6394,-5.7162,-5.7162,-5.6509,-5.8305,-5.8525,-5.7499,-5.8525,-5.7974,-5.6394,-5.7075,-5.7445,-5.7595,-5.8008,-5.8624,-5.9207,-5.8615,-5.8654,-5.8877,-1.6907,-1.7984,-1.8661,-1.8661,-1.9662,-2.0011,-1.8687,-1.7866,-1.7087,-1.655,-1.5804,-1.5694,-1.684,-1.5197,-1.3189,-1.0816,-1.5565,-1.8642,-1.8395,-2.5263,-3.3067,-4.1489,-5.1971,-5.8273,-5.9654,-6.0119,-6.0365,-6.0321,-6.0657,-6.1089,-6.1582,-6.1911,-6.2425,-6.3086,-6.4128,-6.4336,-6.409,-6.5595,-6.6007,-6.5778,-6.6713,-6.7019,-6.6903,-6.704,-6.7019,-6.6895,-6.7583,-6.7472,-6.7338,-6.8559,-6.8708,-6.8399,-6.9062,-6.9212,-6.9052,-6.8517,-6.8241,-6.7811,-6.6745,-6.5888,-6.5425,-6.5481,-6.5514,-6.5425,-6.5392,-6.4943,-6.4393,-6.3894,-6.3705,-6.3512,-6.3117,-6.302,-6.2974,-6.2876,-6.3033,-6.278,-6.1883,0.0,-6.1929,-6.0261,-5.9934,-5.9685,-5.9376,-5.8715,-5.8748,-5.9886,-5.8553,-5.7937,-5.8516,-5.7668,-5.7318,-5.7812,-5.7932,-5.794,-5.7798,-5.702,-5.6509,-5.6394,-5.6509,-5.6509,-5.6509,-5.8305,-5.8195,-5.6623,-5.7499,-5.7303,-5.6366,-5.5908,-5.6485,-5.7428,-5.7001,-5.7311,-5.7968,-5.7906,-5.7862,-5.7715,-1.8346,-1.9208,-1.9434,-1.9292,-2.0734,-2.0877,-1.8016,-1.8279,-1.796,-1.5629,-1.5092,-1.4631,-1.3692,-1.1672,-0.9592,-0.7635,-1.1912,-1.7799,-2.5185,-3.2411,-3.8588,-4.3513,-5.4065,-5.9905,-6.0026,-6.0704,-6.1119,-6.131,-6.2329,-6.2983,-6.3334,-6.3886,-6.4622,-6.5533,-6.583,-6.6135,-6.6421,-6.7082,-6.7063,-6.6719,-6.7195,-6.7341,-6.7266,-6.7341,-6.7634,-6.7996,-6.8131,-6.8208,-6.8356,-6.9462,-6.9297,-6.867,-6.9669,-6.9708,-6.9376,-6.9043,-6.8128,-6.7243,-6.6576,-6.5888,-6.5425,-6.5425,-6.5425,-6.5425,-6.5425,-6.5066,-6.461,-6.4393,-6.4081,-6.3891,-6.3844,-6.3812,-6.3776,-6.3618,-6.4169,0.0,0.0,-6.306,-6.2866,-6.1349,-6.0728,-6.0436,-6.0293,-5.9758,-5.9633,-6.0234,-5.9502,-5.914,-5.9224,-5.8746,-5.8563,-5.862,-5.865,-5.8584,-5.8415,-5.7499,-5.7049,-5.7049,-5.7049,-5.7049,-5.7191,-5.8525,-5.8664,-5.7863,-5.8305,-5.7989,-5.7335,-5.7013,-5.6995,-5.7152,-5.6852,-5.695,-5.7161,-5.6899,-5.7074,-5.7495,-1.9708,-2.0105,-1.9898,-1.977,-2.1483,-2.163,-1.7564,-1.8772,-1.8795,-1.4995,-1.5233,-1.459,-1.1329,-0.9406,-0.7788,-0.608,-1.1684,-1.9489,-2.9301,-3.9447,-4.5544,-4.669,-5.4977,-5.9802,-6.0341,-6.1153,-6.1862,-6.2403,-6.3946,-6.4794,-6.4987,-6.5728,-6.6674,-6.7756,-6.7344,-6.7659,-6.8394,-6.8222,-6.7915,-6.7614,-6.7667,-6.7777,-6.7907,-6.7961,-6.8475,-6.9192,-6.9003,-6.8992,-6.9225,-7.0265,-6.9771,-6.8932,-7.0132,-6.9991,-6.9376,-6.9227,-6.789,-6.6406,-6.6406,-6.5888,-6.5425,-6.5425,-6.5425,-6.5425,-6.5425,-6.5156,-6.4885,-6.4943,-6.4577,-6.4328,-6.4622,-6.4531,-6.4351,-6.4048,0.0,0.0,0.0,-6.3567,-6.3568,-6.2474,-6.1639,-6.1087,-6.1152,-6.0614,-6.0423,-6.0771,-6.0548,-6.025,-5.9932,-5.986,-5.9588,-5.9099,-5.9099,-5.9099,-5.9099,-5.8195,-5.7833,-5.8055,-5.7833,-5.7722,-5.7722,-5.8634,-5.8901,-5.8535,-5.8535,-5.8286,-5.7872,-5.7511,-5.7139,-5.6889,-5.6637,-5.6473,-5.6409,-5.5918,-5.6311,-5.7084,-2.0228,-2.0704,-2.0737,-2.046,-2.2318,-2.2449,-1.7803,-1.9276,-1.9447,-1.5652,-1.6542,-1.654,-1.3769,-1.216,-1.0362,-0.7912,-1.9354,-2.7557,-2.9683,-4.53,-5.5147,-5.6551,-5.831,-5.9627,-6.0491,-6.1332,-6.2157,-6.295,-6.4315,-6.5353,-6.6088,-6.7093,-6.8018,-6.8869,-6.8734,-6.8567,-6.8394,-6.8222,-6.7915,-6.7667,-6.7967,-6.8357,-6.8843,-6.9073,-6.9536,-7.0073,-7.05,-6.9994,-6.9363,-7.0879,-7.0198,-6.8932,-7.0132,-6.9991,-6.9302,-6.8663,-6.7488,-6.6406,-6.6406,-6.5888,-6.5425,-6.5425,-6.5425,-6.5425,-6.5425,-6.5425,-6.5392,-6.5592,-6.5448,-6.5194,-6.464,-6.4101,-6.3462,-6.2955,0.0,0.0,-6.2751,-6.2632,-6.2474,-6.188,-6.1363,-6.1184,-6.1342,-6.0708,-6.0834,-6.2161,-6.1195,-6.0633,-6.0671,-6.015,-5.9652,-5.9099,-5.9099,-5.9099,-5.9099,-5.8195,-5.8195,-5.8991,-5.8085,-5.7722,-5.7722,-5.8634,-5.8337,-5.7013,-5.7013,-5.7065,-5.7019,-5.566,-5.5783,-5.6758,-5.5782,-5.5611,-5.5918,-5.5481,-5.5551,-5.6115,-2.1136,-2.1121,-2.1066,-2.1317,-2.1301,-2.06,-1.8744,-1.8709,-1.815,-1.5913,-1.7235,-1.6221,-1.0645,-1.0582,-1.0992,-1.1118,-2.0515,-2.9574,-3.6846,-4.8498,-5.6397,-5.9297,-5.9775,-6.0529,-6.1649,-6.2642,-6.336,-6.3806,-6.601,-6.7271,-6.7595,-6.8915,-6.9604,-6.9713,-6.9272,-6.899,-6.89,-6.8517,-6.8272,-6.8208,-6.8827,-6.9235,-6.9466,-7.005,-7.0754,-7.1426,-7.1361,-7.1216,-7.1039,-7.1598,-7.0842,-6.9671,-7.0579,-7.0132,-6.9302,-6.8551,-6.8049,-6.7569,-6.7161,-6.6235,-6.5425,-6.5425,-6.5425,-6.5425,-6.5425,-6.5425,-6.557,-6.6062,-6.6062,-6.5995,-6.578,-6.5541,-6.51,-6.4488,0.0,-6.4365,-6.4337,-6.4079,-6.3669,-6.321,-6.2649,-6.2301,-6.2003,-6.1782,-6.1845,-6.2383,-6.1665,-6.113,-6.0794,-5.9925,-5.9315,-5.9099,-5.9099,-5.9099,-5.9099,-5.8773,-5.8773,-5.9099,-5.8773,-5.8525,-5.8525,-5.8465,-5.8137,-5.7547,-5.7131,-5.6809,-5.6496,-5.5946,-5.5692,-5.5812,-5.537,-5.528,-5.5451,-5.528,-5.5451,-5.6017,-2.1819,-2.1671,-2.1456,-2.2125,-2.0896,-1.9644,-1.9278,-1.8422,-1.7317,-1.6025,-1.6776,-1.49,-0.846,-0.8964,-1.057,-1.2889,-2.1808,-3.1607,-4.1682,-5.1193,-5.7615,-6.0185,-6.0867,-6.1647,-6.2656,-6.3588,-6.4461,-6.5179,-6.7422,-6.8627,-6.8847,-7.0057,-7.047,-7.0175,-6.9544,-6.9294,-6.9251,-6.88,-6.8714,-6.9011,-6.9509,-7.0029,-7.0549,-7.1106,-7.1849,-7.2555,-7.2203,-7.2078,-7.208,-7.2011,-7.1103,-7.0095,-7.0647,-6.9885,-6.8628,-6.8241,-6.789,-6.7569,-6.6912,-6.6182,-6.5658,-6.5658,-6.557,-6.5425,-6.5425,-6.5425,-6.5658,-6.6576,-6.6576,-6.6372,-6.6457,-6.6457,-6.6148,-6.5303,-6.5336,-6.5425,-6.5425,-6.4852,-6.43,-6.3894,-6.3357,-6.2808,-6.2446,-6.2446,-6.2315,-6.2116,-6.1815,-6.1277,-6.0555,-5.9636,-5.9099,-5.9099,-5.9099,-5.9099,-5.9099,-5.9099,-5.9099,-5.9099,-5.9099,-5.9009,-5.877,-5.8321,-5.7902,-5.7483,-5.7004,-5.6436,-5.5867,-5.5867,-5.5598,-5.5179,-5.5179,-5.5179,-5.5179,-5.5179,-5.5551,-5.628,-2.2149,-2.2115,-2.2035,-2.2722,-2.1296,-1.99,-1.9529,-1.853,-1.7317,-1.6025,-1.5081,-1.2681,-0.8329,-0.7882,-0.9334,-1.286,-2.4081,-3.4559,-4.294,-5.3827,-5.9905,-5.9812,-6.1678,-6.2915,-6.3341,-6.397,-6.5282,-6.7191,-6.8265,-6.9115,-6.9733,-7.0326,-7.047,-7.0175,-6.9701,-6.9501,-6.946,-6.9034,-6.9295,-7.0079,-6.983,-7.0735,-7.2184,-7.2184,-7.2704,-7.3372,-7.3017,-7.2556,-7.208,-7.2011,-7.1002,-6.9885,-7.0341,-6.9048,-6.7407,-6.7407,-6.6745,-6.6009,-6.5481,-6.5746,-6.6182,-6.632,-6.5888,-6.5425,-6.5425,-6.5425,-6.5746,-6.7078,-6.6912,-6.6457,-6.6559,-6.6508,-6.6062,-6.4852,-6.5156,-6.5425,-6.5425,-6.4577,-6.3894,-6.3894,-6.2971,-6.2414,-6.2446,-6.2446,-6.2216,-6.1582,-6.1582,-6.1072,-6.0,-5.9392,-5.9099,-5.9099,-5.9099,-5.9099,-5.9099,-5.9099,-5.9099,-5.9099,-5.9099,-5.877,-5.8112,-5.8112,-5.7393,-5.6166,-5.6166,-5.5777,-5.5179,-5.5179,-5.5179,-5.5179,-5.5179,-5.5179,-5.5179,-5.5179,-5.5819,-5.6638,-2.1731,-2.1846,-2.1897,-2.2035,-1.9924,-1.825,-1.867,-1.7127,-1.5707,-1.537,-1.4991,-1.3029,-0.8547,-0.7516,-1.0905,-2.0358,-2.6486,-3.694,-5.3641,-5.9284,-6.1953,-6.2031,-6.2296,-6.3232,-6.4879,-6.5229,-6.6024,-6.7191,-6.8313,-6.9164,-6.9733,-7.0568,-7.07,-7.0175,-6.9927,-6.9662,-6.9498,-6.9671,-6.9855,-7.0191,-7.1095,-7.1738,-7.2258,-7.2815,-7.3187,-7.3372,-7.3268,-7.3124,-7.2871,-7.1998,-7.1286,-7.057,-6.9742,-6.9157,-6.8593,-6.8083,-6.7684,-6.736,-6.6779,-6.6406,-6.6235,-6.5834,-6.557,-6.5425,-6.5425,-6.5746,-6.632,-6.7243,-6.765,-6.7811,-6.7856,-6.7488,-6.6829,-6.6062,-6.5658,-6.5425,-6.5425,-6.4852,-6.43,-6.3894,-6.3357,-6.2808,-6.2446,-6.2446,-6.2216,-6.1582,-6.0866,-6.0106,-5.9392,-5.9207,-5.9099,-5.9099,-5.9099,-5.8773,-5.8085,-5.8773,-5.9099,-5.9099,-5.9099,-5.877,-5.8112,-5.7633,-5.6944,-5.6137,-5.5688,-5.5359,-5.5179,-5.5179,-5.5179,-5.5179,-5.5179,-5.5381,-5.575,-5.575,-5.6311,-5.7307,-2.2009,-2.2035,-2.1622,-2.1195,-1.896,-1.7419,-1.7689,-1.615,-1.531,-1.6423,-1.4073,-1.1423,-0.9462,-0.9203,-1.379,-2.4738,-3.5262,-4.6833,-5.9883,-6.2251,-6.3238,-6.3501,-6.3389,-6.4051,-6.5678,-6.5832,-6.6545,-6.785,-6.8529,-6.934,-7.0234,-7.0845,-7.0837,-7.0342,-7.0141,-7.0117,-7.027,-7.0223,-7.0592,-7.1266,-7.1926,-7.2369,-7.2704,-7.3187,-7.3372,-7.3372,-7.3372,-7.3372,-7.3268,-7.227,-7.1386,-7.0539,-6.9525,-6.8932,-6.8628,-6.8083,-6.8083,-6.797,-6.6912,-6.6829,-6.6593,-6.5658,-6.5425,-6.5425,-6.5425,-6.5922,-6.6576,-6.7243,-6.789,-6.8319,-6.8093,-6.7731,-6.7161,-6.6287,-6.5746,-6.5425,-6.5425,-6.4761,-6.43,-6.3894,-6.326,-6.271,-6.2414,-6.2446,-6.2116,-6.1308,-6.0241,-5.9392,-5.9099,-5.8773,-5.8773,-5.9099,-5.8415,-5.7974,-5.7722,-5.7974,-5.8195,-5.8525,-5.8525,-5.8267,-5.7693,-5.7274,-5.6615,-5.5777,-5.5359,-5.5179,-5.5179,-5.5179,-5.5179,-5.5179,-5.5381,-5.5651,-5.5918,-5.6378,-5.7117,-5.8148,-2.2448,-2.231,-2.1471,-2.0201,-1.867,-1.7419,-1.6705,-1.6009,-1.6282,-1.8508,-1.2641,-0.9029,-1.0689,-1.2345,-1.7243,-2.6742,-4.7204,-6.0394,-6.2303,-6.3224,-6.3859,-6.4327,-6.4575,-6.507,-6.5881,-6.5982,-6.6962,-6.8837,-6.8936,-6.9709,-7.1056,-7.1101,-7.094,-7.0593,-7.0342,-7.0705,-7.1436,-7.0743,-7.1456,-7.2921,-7.251,-7.2792,-7.3424,-7.3372,-7.3372,-7.3372,-7.3372,-7.3372,-7.3268,-7.261,-7.1295,-6.992,-6.9452,-6.8628,-6.7799,-6.7879,-6.797,-6.7856,-6.6491,-6.6761,-6.7059,-6.5713,-6.5425,-6.5425,-6.5425,-6.6009,-6.666,-6.7243,-6.797,-6.8284,-6.7787,-6.7501,-6.6962,-6.5942,-6.5537,-6.5336,-6.5425,-6.4545,-6.3894,-6.3894,-6.2971,-6.2446,-6.2446,-6.2315,-6.1815,-6.0794,-5.9743,-5.9099,-5.9099,-5.8305,-5.8195,-5.8991,-5.7416,-5.6851,-5.7499,-5.6737,-5.6737,-5.7722,-5.7664,-5.7429,-5.7094,-5.7034,-5.6346,-5.5179,-5.5179,-5.5179,-5.5179,-5.528,-5.528,-5.528,-5.5819,-5.6017,-5.6213,-5.7149,-5.8056,-5.9056,-2.1897,-2.231,-2.1885,-1.9507,-1.9796,-1.9379,-1.6282,-1.7819,-1.9066,-1.8229,-1.3459,-1.0297,-1.0818,-1.3468,-1.8949,-2.7975,-4.8005,-6.088,-6.2696,-6.3431,-6.4063,-6.4681,-6.5235,-6.568,-6.6058,-6.6758,-6.7694,-6.8878,-6.9627,-7.0464,-7.1415,-7.1474,-7.1153,-7.0593,-7.0532,-7.0735,-7.1181,-7.1299,-7.2071,-7.322,-7.3156,-7.3378,-7.3715,-7.3476,-7.3372,-7.3372,-7.3372,-7.3215,-7.2853,-7.183,-7.0507,-6.9196,-6.9305,-6.8705,-6.8118,-6.8241,-6.7765,-6.7029,-6.6728,-6.6268,-6.5801,-6.5481,-6.5425,-6.5425,-6.5425,-6.632,-6.7243,-6.7325,-6.8319,-6.8967,-6.8362,-6.742,-6.6677,-6.6287,-6.5448,-6.4976,-6.5336,-6.4545,-6.3894,-6.3894,-6.2971,-6.2446,-6.2446,-6.1613,-6.0866,-6.0136,-5.9499,-5.9099,-5.9099,-5.8882,-5.8525,-5.8085,-5.7611,-5.6822,-5.5556,-5.544,-5.6136,-5.7722,-5.7254,-5.7016,-5.7064,-5.6585,-5.5957,-5.5179,-5.5179,-5.5179,-5.5179,-5.5651,-5.575,-5.5819,-5.6311,-5.6796,-5.718,-5.784,-5.8637,-5.9652,-2.1634,-2.1609,-2.1183,-1.9785,-1.8949,-1.783,-1.5867,-1.7669,-1.8487,-1.6196,-1.2871,-1.029,-0.9007,-1.7161,-2.8861,-4.4084,-5.5695,-6.272,-6.4026,-6.3995,-6.4256,-6.5054,-6.5548,-6.5881,-6.6102,-6.7465,-6.8392,-6.8897,-6.9849,-7.0743,-7.1494,-7.1564,-7.1299,-7.0805,-7.0652,-7.103,-7.1712,-7.1803,-7.2536,-7.3695,-7.3628,-7.3665,-7.3765,-7.3476,-7.3372,-7.3372,-7.3215,-7.2853,-7.2365,-7.1769,-7.0575,-6.949,-6.9849,-6.8877,-6.7713,-6.8447,-6.7886,-6.6895,-6.6437,-6.639,-6.6186,-6.5171,-6.5337,-6.5746,-6.5746,-6.6491,-6.736,-6.7684,-6.8319,-6.874,-6.8474,-6.7373,-6.6508,-6.6372,-6.5625,-6.5156,-6.5336,-6.4545,-6.3894,-6.3894,-6.2971,-6.2315,-6.2016,-6.1308,-6.0586,-5.9895,-5.9392,-5.9099,-5.9099,-5.8634,-5.8195,-5.7722,-5.7274,-5.6594,-5.5701,-5.5701,-5.6223,-5.7283,-5.652,-5.6435,-5.7064,-5.6466,-5.5807,-5.5179,-5.5179,-5.5179,-5.5179,-5.575,-5.5918,-5.6017,-5.6796,-5.737,-5.7933,-5.8669,-5.9564,-6.0496,-2.176,-2.1183,-2.0479,-2.0201,-1.7959,-1.6282,-1.6141,-1.7529,-1.7477,-1.4595,-1.2448,-1.0874,-0.9795,-2.41,-4.1824,-6.204,-6.431,-6.4865,-6.5451,-6.4778,-6.4705,-6.5446,-6.5705,-6.5982,-6.6295,-6.8041,-6.894,-6.8912,-7.0066,-7.0922,-7.1568,-7.1564,-7.1455,-7.1249,-7.1025,-7.158,-7.2699,-7.2429,-7.3048,-7.4214,-7.3923,-7.3815,-7.3826,-7.3527,-7.3372,-7.3372,-7.3017,-7.2516,-7.1988,-7.1927,-7.1038,-7.0025,-7.0407,-6.9034,-6.7315,-6.8322,-6.7787,-6.6661,-6.582,-6.6378,-6.6753,-6.5106,-6.5421,-6.6182,-6.6268,-6.6694,-6.7277,-6.7845,-6.8004,-6.8083,-6.8049,-6.7044,-6.632,-6.6235,-6.5746,-6.5336,-6.5425,-6.4545,-6.3894,-6.3894,-6.2971,-6.2016,-6.1481,-6.1,-6.0346,-5.9819,-5.9392,-5.9099,-5.9099,-5.8195,-5.7611,-5.7499,-5.6737,-5.6279,-5.6164,-5.6279,-5.6534,-5.6815,-5.5897,-5.6042,-5.6915,-5.6286,-5.5718,-5.5179,-5.528,-5.528,-5.5381,-5.5918,-5.6213,-5.6409,-5.737,-5.8026,-5.8578,-5.9476,-6.0378,-6.1119,-2.2448,-2.2585,-2.2022,-2.034,-1.9773,-1.9217,-1.81,-2.0016,-2.0371,-1.6678,-1.4497,-1.5327,-2.1028,-3.7109,-5.2425,-6.4659,-6.6105,-6.6244,-6.5954,-6.6121,-6.6093,-6.5846,-6.5919,-6.6367,-6.723,-6.8368,-6.8987,-6.9059,-7.0654,-7.155,-7.1782,-7.1581,-7.1765,-7.2302,-7.2206,-7.2811,-7.3925,-7.368,-7.403,-7.4729,-7.4066,-7.3923,-7.4029,-7.3578,-7.3372,-7.3372,-7.3017,-7.2516,-7.1927,-7.1682,-7.1139,-7.0475,-7.0025,-6.8962,-6.7666,-6.7392,-6.6445,-6.5436,-6.5278,-6.5338,-6.5379,-6.548,-6.5816,-6.6354,-6.7146,-6.7229,-6.7112,-6.7195,-6.7684,-6.7845,-6.6829,-6.6201,-6.5767,-6.557,-6.5123,-6.4976,-6.5336,-6.4545,-6.3894,-6.3894,-6.2548,-6.1512,-6.1,-6.0346,-5.9819,-5.9207,-5.9099,-5.9099,-5.9099,-5.8195,-5.7387,-5.6623,-5.6509,-5.6049,-5.5205,-5.6049,-5.6534,-5.6815,-5.6121,-5.5937,-5.6286,-5.5628,-5.5269,-5.5179,-5.5651,-5.5819,-5.5918,-5.6892,-5.7559,-5.7933,-5.8518,-5.9062,-5.9564,-6.012,-6.0666,-6.1119,-2.2035,-2.1747,-2.1032,-2.0201,-1.9217,-1.8379,-1.7819,-1.7669,-1.6394,-1.258,-1.4958,-1.7849,-1.9854,-3.8514,-5.5508,-6.7085,-6.746,-6.7225,-6.7711,-6.7212,-6.682,-6.6615,-6.6699,-6.6968,-6.7445,-6.8513,-6.9344,-6.9874,-7.112,-7.1989,-7.2479,-7.239,-7.2655,-7.3196,-7.3192,-7.3549,-7.4204,-7.4165,-7.4364,-7.4657,-7.4319,-7.4085,-7.3875,-7.3527,-7.3372,-7.332,-7.289,-7.2028,-7.1137,-7.1412,-7.0368,-6.9023,-6.9554,-6.8011,-6.6225,-6.6716,-6.5807,-6.4606,-6.4606,-6.5107,-6.5643,-6.5189,-6.5967,-6.698,-6.7394,-6.7229,-6.7063,-6.736,-6.7195,-6.6829,-6.6491,-6.5888,-6.5481,-6.5392,-6.5246,-6.5066,-6.5066,-6.4393,-6.3611,-6.2744,-6.1985,-6.1277,-6.0346,-6.0031,-5.9713,-5.9099,-5.9099,-5.9099,-5.9099,-5.8743,-5.8085,-5.7162,-5.764,-5.7499,-5.648,-5.7387,-5.7584,-5.7013,-5.6716,-5.6452,-5.6137,-5.5478,-5.5381,-5.5551,-5.5551,-5.5849,-5.6409,-5.718,-5.7715,-5.8303,-5.9062,-5.9684,-6.012,-6.0666,-6.0919,-6.1119]},{"header":{"parameterUnit":"m.s-1","parameterCategory":1,"la1":30.6,"la2":28.766,"lo1":-90.7593,"lo2":-88.6598,"dx":0.0162,"dy":0.0183,"nx":116,"ny":114,"refTime":"2022-11-23T18:00:00:Z","depth":0,"parameterNumber":3,"parameterNumberName":"V-component_of_WINDS"},"data":[0.0,0.0,0.0,0.0,0.0,0.0,0.0,0.0,0.0,0.0,0.0,0.0,0.0,0.0,0.0,0.0,0.0,0.0,0.0,0.0,0.0,0.0,0.0,0.0,0.0,0.0,0.0,0.0,0.0,0.0,0.0,0.0,0.0,0.0,0.0,0.0,0.0,0.0,0.0,0.0,0.0,0.0,0.0,0.0,0.0,0.0,0.0,0.0,0.0,0.0,0.0,0.0,0.0,0.0,0.0,0.0,0.0,0.0,0.0,0.0,0.0,0.0,0.0,0.0,0.0,0.0,0.0,0.0,0.0,0.0,0.0,0.0,0.0,0.0,0.0,0.0,0.0,0.0,0.0,0.0,0.0,0.0,0.0,0.0,0.0,0.0,0.0,0.0,0.0,0.0,0.0,0.0,0.0,0.0,0.0,0.0,0.0,0.0,0.0,0.0,0.0,0.0,0.0,0.0,0.0,0.0,0.0,0.0,0.0,0.0,0.0,0.0,0.0,0.0,0.0,0.0,0.0,0.0,0.0,0.0,0.0,0.0,0.0,0.0,0.0,0.0,0.0,0.0,0.0,0.0,0.0,0.0,0.0,0.0,0.0,0.0,0.0,0.0,0.0,0.0,0.0,0.0,0.0,0.0,0.0,0.0,0.0,0.0,0.0,0.0,0.0,0.0,0.0,0.0,0.0,0.0,0.0,0.0,0.0,0.0,0.0,0.0,0.0,0.0,0.0,0.0,0.0,0.0,0.0,0.0,0.0,0.0,0.0,0.0,0.0,0.0,0.0,0.0,0.0,0.0,0.0,0.0,0.0,0.0,0.0,0.0,0.0,0.0,0.0,0.0,0.0,0.0,0.0,0.0,0.0,0.0,0.0,0.0,0.0,0.0,0.0,0.0,0.0,0.0,0.0,0.0,0.0,0.0,0.0,0.0,0.0,0.0,0.0,0.0,0.0,0.0,0.0,0.0,0.0,0.0,0.0,0.0,0.0,0.0,0.0,0.0,0.0,0.0,0.0,0.0,0.0,0.0,0.0,0.0,0.0,0.0,0.0,0.0,0.0,0.0,0.0,0.0,0.0,0.0,0.0,0.0,0.0,0.0,0.0,0.0,0.0,0.0,0.0,0.0,0.0,0.0,0.0,0.0,0.0,0.0,0.0,0.0,0.0,0.0,0.0,0.0,0.0,0.0,0.0,0.0,0.0,0.0,0.0,0.0,0.0,0.0,0.0,0.0,0.0,0.0,0.0,0.0,0.0,0.0,0.0,0.0,0.0,0.0,0.0,0.0,0.0,0.0,0.0,0.0,0.0,0.0,0.0,0.0,0.0,0.0,0.0,0.0,0.0,0.0,0.0,0.0,0.0,0.0,0.0,0.0,0.0,0.0,0.0,0.0,0.0,0.0,0.0,0.0,0.0,0.0,0.0,0.0,0.0,0.0,0.0,0.0,0.0,0.0,0.0,0.0,0.0,0.0,0.0,0.0,0.0,0.0,0.0,0.0,0.0,0.0,0.0,0.0,0.0,0.0,0.0,0.0,0.0,0.0,0.0,0.0,0.0,0.0,0.0,0.0,0.0,0.0,0.0,0.0,0.0,0.0,0.0,0.0,0.0,0.0,0.0,0.0,0.0,0.0,0.0,0.0,0.0,0.0,0.0,0.0,0.0,0.0,0.0,0.0,0.0,0.0,0.0,0.0,0.0,0.0,0.0,0.0,0.0,0.0,0.0,0.0,0.0,0.0,0.0,0.0,0.0,0.0,0.0,0.0,0.0,0.0,0.0,0.0,0.0,0.0,0.0,0.0,0.0,0.0,0.0,0.0,0.0,0.0,0.0,0.0,0.0,0.0,0.0,0.0,0.0,0.0,0.0,0.0,0.0,0.0,0.0,0.0,0.0,0.0,0.0,0.0,0.0,0.0,0.0,0.0,0.0,0.0,0.0,0.0,0.0,0.0,0.0,0.0,0.0,0.0,0.0,0.0,0.0,0.0,0.0,0.0,0.0,0.0,0.0,0.0,0.0,0.0,0.0,0.0,0.0,0.0,0.0,0.0,0.0,0.0,0.0,0.0,0.0,0.0,0.0,0.0,0.0,0.0,0.0,0.0,0.0,0.0,0.0,0.0,0.0,0.0,0.0,0.0,0.0,0.0,0.0,0.0,0.0,0.0,0.0,0.0,0.0,0.0,0.0,0.0,0.0,0.0,0.0,0.0,0.0,0.0,0.0,0.0,0.0,0.0,0.0,0.0,0.0,0.0,0.0,0.0,0.0,0.0,0.0,0.0,0.0,0.0,0.0,0.0,0.0,0.0,0.0,0.0,0.0,0.0,0.0,0.0,0.0,0.0,0.0,0.0,0.0,0.0,0.0,0.0,0.0,0.0,0.0,0.0,0.0,0.0,0.0,0.0,0.0,0.0,0.0,0.0,0.0,0.0,0.0,0.0,0.0,0.0,0.0,0.0,0.0,0.0,0.0,0.0,0.0,0.0,0.0,0.0,0.0,0.0,0.0,0.0,0.0,0.0,0.0,0.0,0.0,0.0,0.0,0.0,0.0,0.0,0.0,0.0,0.0,0.0,0.0,0.0,0.0,0.0,0.0,0.0,0.0,0.0,0.0,0.0,0.0,0.0,0.0,0.0,0.0,0.0,0.0,0.0,0.0,0.0,0.0,0.0,0.0,0.0,0.0,0.0,0.0,0.0,0.0,0.0,0.0,0.0,0.0,0.0,0.0,0.0,0.0,0.0,0.0,0.0,0.0,0.0,0.0,0.0,0.0,0.0,0.0,0.0,0.0,0.0,0.0,0.0,0.0,0.0,0.0,0.0,0.0,0.0,0.0,0.0,0.0,0.0,0.0,0.0,0.0,0.0,0.0,0.0,0.0,0.0,0.0,0.0,0.0,0.0,0.0,0.0,0.0,0.0,0.0,0.0,0.0,0.0,0.0,0.0,0.0,0.0,0.0,0.0,0.0,0.0,0.0,0.0,0.0,0.0,0.0,0.0,0.0,0.0,0.0,0.0,0.0,0.0,0.0,0.0,0.0,0.0,0.0,0.0,0.0,0.0,0.0,0.0,0.0,0.0,0.0,0.0,0.0,0.0,0.0,0.0,0.0,0.0,0.0,0.0,0.0,0.0,0.0,0.0,0.0,0.0,0.0,0.0,0.0,0.0,0.0,0.0,0.0,0.0,0.0,0.0,0.0,0.0,0.0,0.0,0.0,0.0,0.0,0.0,0.0,0.0,0.0,0.0,0.0,0.0,0.0,0.0,0.0,0.0,0.0,0.0,0.0,0.0,0.0,0.0,0.0,0.0,0.0,0.0,0.0,0.0,0.0,0.0,0.0,0.0,0.0,0.0,0.0,0.0,0.0,0.0,0.0,0.0,0.0,0.0,0.0,0.0,0.0,0.0,0.0,0.0,0.0,0.0,0.0,0.0,0.0,0.0,0.0,0.0,0.0,0.0,0.0,0.0,0.0,0.0,0.0,0.0,0.0,0.0,0.0,0.0,0.0,0.0,0.0,0.0,0.0,0.0,0.0,0.0,0.0,0.0,0.0,0.0,0.0,0.0,0.0,0.0,0.0,0.0,0.0,0.0,0.0,0.0,0.0,0.0,0.0,0.0,0.0,0.0,0.0,0.0,0.0,0.0,0.0,0.0,0.0,0.0,0.0,0.0,0.0,0.0,0.0,0.0,0.0,0.0,0.0,0.0,0.0,0.0,0.0,0.0,0.0,0.0,0.0,0.0,0.0,0.0,0.0,0.0,0.0,0.0,0.0,0.0,0.0,0.0,0.0,0.0,0.0,0.0,0.0,0.0,0.0,0.0,0.0,0.0,0.0,0.0,0.0,0.0,0.0,0.0,0.0,0.0,0.0,0.0,0.0,0.0,0.0,0.0,0.0,0.0,0.0,0.0,0.0,0.0,0.0,0.0,0.0,0.0,0.0,0.0,0.0,0.0,0.0,0.0,0.0,0.0,0.0,0.0,0.0,0.0,0.0,0.0,0.0,0.0,0.0,0.0,0.0,0.0,0.0,0.0,0.0,0.0,0.0,0.0,0.0,0.0,0.0,0.0,0.0,0.0,0.0,0.0,0.0,0.0,0.0,0.0,0.0,0.0,0.0,0.0,0.0,0.0,0.0,0.0,0.0,0.0,0.0,0.0,0.0,0.0,0.0,0.0,0.0,0.0,0.0,0.0,0.0,0.0,0.0,0.0,0.0,0.0,0.0,0.0,0.0,0.0,0.0,0.0,0.0,0.0,0.0,0.0,0.0,0.0,0.0,0.0,0.0,0.0,0.0,0.0,0.0,0.0,0.0,0.0,0.0,0.0,0.0,0.0,0.0,0.0,0.0,0.0,0.0,0.0,0.0,0.0,0.0,0.0,0.0,0.0,0.0,0.0,0.0,0.0,0.0,0.0,0.0,0.0,0.0,0.0,0.0,0.0,0.0,0.0,0.0,0.0,0.0,0.0,0.0,0.0,0.0,0.0,0.0,0.0,0.0,0.0,0.0,0.0,0.0,0.0,0.0,0.0,0.0,0.0,0.0,0.0,0.0,0.0,0.0,0.0,0.0,0.0,0.0,0.0,0.0,0.0,0.0,0.0,0.0,0.0,0.0,0.0,0.0,0.0,0.0,0.0,0.0,0.0,0.0,0.0,0.0,0.0,0.0,0.0,0.0,0.0,0.0,0.0,0.0,0.0,0.0,0.0,0.0,0.0,0.0,0.0,0.0,0.0,0.0,0.0,0.0,0.0,0.0,0.0,0.0,0.0,0.0,0.0,0.0,0.0,0.0,0.0,0.0,0.0,0.0,0.0,0.0,0.0,0.0,0.0,0.0,0.0,0.0,0.0,0.0,0.0,0.0,0.0,0.0,0.0,0.0,0.0,0.0,0.0,0.0,0.0,0.0,0.0,0.0,0.0,0.0,0.0,0.0,0.0,0.0,0.0,0.0,0.0,0.0,0.0,0.0,0.0,0.0,0.0,0.0,0.0,0.0,0.0,0.0,0.0,0.0,0.0,0.0,0.0,0.0,0.0,0.0,0.0,0.0,0.0,0.0,0.0,0.0,0.0,0.0,0.0,0.0,0.0,0.0,0.0,0.0,0.0,0.0,0.0,0.0,0.0,0.0,0.0,0.0,0.0,0.0,0.0,0.0,0.0,0.0,0.0,0.0,0.0,0.0,0.0,0.0,0.0,0.0,0.0,0.0,0.0,0.0,0.0,0.0,0.0,0.0,0.0,0.0,0.0,0.0,0.0,0.0,0.0,0.0,0.0,0.0,0.0,0.0,0.0,0.0,0.0,0.0,0.0,0.0,0.0,0.0,0.0,0.0,0.0,0.0,0.0,0.0,0.0,0.0,0.0,0.0,0.0,0.0,0.0,0.0,0.0,0.0,0.0,0.0,0.0,0.0,0.0,0.0,0.0,0.0,0.0,0.0,0.0,0.0,0.0,0.0,0.0,0.0,0.0,0.0,0.0,0.0,0.0,0.0,0.0,0.0,0.0,0.0,0.0,0.0,0.0,0.0,0.0,0.0,0.0,0.0,0.0,0.0,0.0,0.0,0.0,0.0,0.0,0.0,0.0,0.0,0.0,0.0,0.0,0.0,0.0,0.0,0.0,0.0,0.0,0.0,0.0,0.0,0.0,0.0,0.0,0.0,0.0,0.0,0.0,0.0,0.0,0.0,0.0,0.0,0.0,0.0,0.0,0.0,0.0,0.0,0.0,0.0,0.0,0.0,0.0,0.0,0.0,0.0,0.0,0.0,0.0,0.0,0.0,0.0,0.0,0.0,0.0,0.0,0.0,0.0,0.0,0.0,0.0,0.0,0.0,0.0,0.0,0.0,0.0,0.0,0.0,0.0,0.0,0.0,0.0,0.0,0.0,0.0,0.0,0.0,0.0,0.0,0.0,0.0,0.0,0.0,0.0,0.0,0.0,0.0,0.0,0.0,0.0,0.0,0.0,0.0,0.0,0.0,0.0,0.0,0.0,0.0,0.0,0.0,0.0,0.0,0.0,0.0,0.0,0.0,0.0,0.0,0.0,0.0,0.0,0.0,0.0,0.0,0.0,0.0,0.0,0.0,0.0,0.0,0.0,0.0,0.0,0.0,0.0,-2.4356,0.0,0.0,0.0,0.0,0.0,0.0,0.0,0.0,0.0,0.0,0.0,0.0,0.0,0.0,0.0,0.0,0.0,0.0,0.0,0.0,0.0,0.0,0.0,0.0,1.429,1.3816,1.3633,1.3178,0.0,0.0,0.0,0.0,0.0,0.0,0.0,1.2002,1.2755,1.3607,1.4427,1.4638,1.5657,1.7402,1.5353,1.4063,1.3564,0.0,0.0,0.0,0.0,0.0,0.0,0.0,0.0,0.0,0.0,0.0,0.0,0.0,0.0,0.0,0.0,0.0,0.0,0.0,0.0,0.0,0.0,0.0,0.0,0.0,0.0,0.0,0.0,0.0,0.0,0.0,0.0,0.0,0.0,0.0,0.0,0.0,0.0,0.0,0.0,0.0,0.0,0.0,0.0,0.0,0.0,0.0,0.0,0.0,0.0,0.0,0.0,0.0,0.0,0.0,0.0,0.0,0.0,0.0,0.0,0.0,0.0,0.0,0.0,0.0,0.0,0.0,0.0,0.0,0.0,0.0,-2.6635,0.0,0.0,0.0,0.0,0.0,0.0,0.0,0.0,0.0,0.0,0.0,0.0,0.0,0.0,0.0,0.0,0.0,0.0,0.0,0.0,0.0,1.4919,1.577,1.4927,1.4424,1.4796,1.4592,1.4191,1.3728,1.3386,0.0,0.0,0.0,0.0,1.258,1.4094,1.544,1.6597,1.7502,1.8491,1.962,2.0161,1.9891,1.8941,1.622,0.0,0.0,0.0,0.0,0.0,0.0,0.0,0.0,0.0,0.0,0.0,0.0,0.0,0.0,0.0,0.0,0.0,0.0,0.0,0.0,0.0,0.0,0.0,0.0,0.0,0.0,0.0,0.0,0.0,0.0,0.0,0.0,0.0,0.0,0.0,0.0,0.0,0.0,0.0,0.0,0.0,0.0,0.0,0.0,0.0,0.0,0.0,0.0,0.0,0.0,0.0,0.0,0.0,0.0,0.0,0.0,0.0,0.0,0.0,0.0,0.0,0.0,0.0,0.0,-3.3836,-3.4093,-3.4781,-3.9326,-4.6323,-3.9625,-3.9805,-4.3819,0.0,0.0,0.0,0.0,0.0,0.0,0.0,0.0,0.0,0.0,0.0,0.0,0.0,0.0,0.0,0.0,0.0,0.0,0.0,0.0,1.5319,1.5385,1.538,1.5275,1.5081,1.4681,1.43,1.4044,1.3483,0.0,0.0,0.0,1.3248,1.3098,1.4245,1.5396,1.6597,2.1069,2.3792,2.4822,2.5047,2.511,2.474,2.0458,1.7706,1.6252,0.0,0.0,0.0,0.0,0.0,0.0,0.0,0.0,0.0,0.0,0.0,0.0,0.0,0.0,0.0,0.0,0.0,0.0,0.0,0.0,0.0,0.0,0.0,0.0,0.0,0.0,0.0,0.0,0.0,0.0,0.0,0.0,0.0,0.0,0.0,0.0,0.0,0.0,0.0,0.0,0.0,1.0299,0.9626,0.0,0.0,0.0,0.0,0.0,0.0,0.0,0.0,0.0,0.0,0.0,0.0,0.0,0.0,-2.8118,-3.7086,-4.1776,-4.2227,-5.0793,-5.4917,-5.4923,-5.4914,-5.5529,-5.648,-5.5817,0.0,-4.5353,-4.2997,0.0,0.0,0.0,0.0,0.0,0.0,0.0,0.0,0.0,0.0,0.0,0.0,0.0,0.0,0.0,0.0,0.0,0.0,0.0,0.0,0.0,1.7605,1.8198,1.9648,1.9587,1.8894,1.7504,1.7167,0.0,0.0,1.4588,1.4789,1.4161,1.6505,1.9108,2.1963,2.5192,2.699,2.744,2.7495,2.7559,2.7418,2.5056,2.2352,1.942,1.7823,0.0,0.0,0.0,0.0,0.0,0.0,0.0,0.0,0.0,0.0,0.0,0.0,0.0,0.0,0.0,0.0,0.0,0.0,0.0,0.0,0.0,0.0,0.0,0.0,0.0,0.0,0.0,0.0,0.0,0.0,0.0,0.0,0.0,0.0,0.0,0.0,0.0,0.0,0.0,1.0294,0.9967,1.0588,0.9192,0.8192,0.0,0.0,0.0,0.0,0.0,0.0,0.0,0.0,0.0,-3.3308,-3.5608,-3.9324,-4.4879,-4.9496,-5.2021,-5.2499,-5.7268,-5.9573,-5.9634,-5.9938,-5.9916,-5.9627,-5.9367,-5.6955,-5.2782,-4.7729,-4.1209,-3.391,0.0,0.0,0.0,0.0,0.0,-2.4562,0.0,0.0,0.0,0.0,0.0,0.0,0.0,0.0,0.0,0.0,0.0,0.0,1.9526,2.0214,2.1394,2.3583,2.3743,2.2891,2.1009,2.0329,1.8645,1.5518,1.6103,1.6355,1.5962,1.9656,2.3208,2.6486,2.8155,2.8876,2.8681,2.8855,2.8826,2.8652,2.8361,2.6129,2.2591,2.091,1.8607,1.594,0.0,0.0,0.0,0.0,0.0,0.0,0.0,0.0,0.0,0.0,0.0,0.0,0.0,0.0,0.0,0.0,0.0,0.0,0.0,0.0,0.0,0.0,0.0,0.0,0.0,0.0,0.0,0.0,0.0,0.0,0.0,0.0,0.0,0.0,0.0,0.0,0.0,0.9437,0.9078,1.1171,0.7838,0.5651,0.0,0.0,0.0,0.0,0.0,0.0,-2.8584,-3.0462,-3.552,-4.4793,-4.6782,-5.1131,-5.8296,-5.8649,-5.8987,-5.9356,-6.0197,-6.0624,-6.0669,-6.1292,-6.1326,-6.0867,-6.0165,-5.9591,-5.8614,-5.1734,-4.7466,-4.4589,-3.7482,-3.3129,-3.1168,-3.24,-3.234,-3.2476,0.0,0.0,0.0,0.0,0.0,0.0,0.0,0.0,0.0,0.0,0.0,1.9624,2.0778,2.2716,2.4208,2.4875,2.4537,2.4029,2.3281,2.1207,1.9663,1.8869,1.7332,1.7237,1.8824,2.3474,2.6461,2.761,2.9068,2.9426,2.8681,2.929,2.9261,2.871,2.9261,2.8052,2.5534,2.3229,2.1014,1.8794,1.5264,0.0,0.0,0.0,0.0,0.0,0.0,0.0,0.0,0.0,0.0,0.0,0.0,0.0,0.0,0.0,0.0,0.0,0.0,0.0,0.0,0.0,0.0,0.0,0.0,0.0,0.0,0.0,0.0,0.0,0.0,0.0,0.0,0.0,0.0,0.0,0.0,0.0,0.0,1.0013,0.2587,0.0,0.0,0.0,0.0,-1.6286,-1.7003,-2.3108,-3.6779,-3.9412,-4.4509,-5.3192,-5.6702,-5.8877,-5.9869,-6.0644,-6.1065,-6.1071,-6.1907,-6.2147,-6.1914,-6.2297,-6.2216,-6.1788,-6.1237,-6.0515,-5.9516,-5.7946,-5.2318,-4.4637,-4.3976,-3.8421,-3.1608,-3.9013,-4.0622,-4.0281,0.0,0.0,0.0,1.7212,1.5761,1.4735,1.5059,1.4671,1.4946,1.6599,1.8371,2.05,2.3274,2.5285,2.6851,2.787,2.7834,2.6824,2.464,2.2649,2.1129,2.0188,1.9191,2.0644,2.4862,2.7419,2.9207,3.0264,3.0754,3.0648,2.99,3.0132,3.0103,2.99,2.9697,2.8618,2.6952,2.5337,2.3165,2.0632,1.824,1.5233,0.0,0.0,0.0,0.0,0.0,0.0,0.0,0.0,0.0,0.0,0.0,0.0,0.0,0.0,0.0,0.0,0.0,0.0,0.0,0.0,0.0,0.0,0.0,0.0,0.0,0.0,0.0,0.0,0.0,0.0,0.0,0.0,0.0,0.0,0.0,0.0,0.0,0.1459,-0.2602,0.0,-0.5511,-1.0277,-1.7217,-2.6556,-3.0749,-3.797,-4.9657,-5.1934,-5.4318,-5.761,-6.0134,-6.1489,-6.1627,-6.2421,-6.2769,-6.2702,-6.2891,-6.2644,-6.2091,-6.2097,-6.1732,-6.1076,-6.0184,-5.9619,-5.922,-5.7917,-5.5669,-5.2985,-5.2504,-5.0131,-4.7212,-4.8357,-4.8393,-4.7962,0.0,0.0,0.0,1.7386,1.6198,1.5214,1.5219,1.5038,1.5723,1.7879,1.9848,2.2279,2.5536,2.735,2.8761,2.983,2.9713,2.8545,2.6061,2.4269,2.2679,2.13,2.1319,2.3419,2.7764,2.9425,3.0613,3.1364,3.1564,3.1306,3.0568,3.0568,3.0568,3.0539,3.0132,2.9185,2.7903,2.6924,2.4925,2.2337,2.0547,1.7843,1.4593,0.0,0.0,0.0,0.0,0.0,0.0,0.0,0.0,0.0,0.0,0.0,0.0,0.0,0.0,0.0,0.0,0.0,0.0,0.0,0.0,0.0,0.0,0.0,0.0,0.0,0.0,0.0,0.0,0.0,0.0,0.0,0.0,0.0,0.0,0.0,-0.4846,-0.5437,-0.9254,-1.2097,-1.2686,-1.8619,-2.6453,-3.6118,-4.1896,-4.8714,-5.7339,-5.9434,-6.044,-6.0642,-6.2189,-6.2968,-6.2822,-6.3292,-6.3332,-6.2982,-6.3165,-6.2762,-6.1969,-6.2098,-6.1731,-6.0908,-6.0015,-5.9424,-5.8958,-5.798,-5.7322,-5.6883,-5.6405,-5.5753,-5.4955,-5.2925,-5.1853,-5.1097,0.0,0.0,1.7612,1.6605,1.6387,1.6037,1.507,1.5793,1.7222,1.9293,2.216,2.4942,2.7462,2.8838,2.9907,3.0477,2.9973,2.9022,2.7574,2.5912,2.4194,2.24,2.3744,2.5383,2.7228,2.9589,3.0765,3.0686,3.1424,3.1366,3.0626,3.0626,3.0626,3.0597,3.0597,2.9808,2.8465,2.7958,2.6294,2.3891,2.2176,2.0736,1.9262,0.0,0.0,0.0,0.0,0.0,0.0,0.0,0.0,0.0,0.0,0.0,0.0,0.0,0.0,0.0,0.0,0.0,0.0,0.0,0.0,0.0,0.0,0.0,0.0,0.0,0.0,0.0,0.0,0.0,0.0,0.0,0.0,0.0,-0.3419,-0.8106,-1.1229,-1.0203,-1.7446,-2.223,-2.1651,-2.9165,-3.7156,-4.4446,-4.9124,-5.3863,-5.9121,-6.1324,-6.2446,-6.2538,-6.3316,-6.3652,-6.3534,-6.3347,-6.2797,-6.1959,-6.2749,-6.2632,-6.1734,-6.2341,-6.2214,-6.1384,-6.0843,-5.9931,-5.8978,-5.8526,-5.7264,-5.5488,-5.5222,-5.4415,-5.3172,-5.2044,-5.0727,-4.9317,1.9637,1.8201,1.6937,1.7024,1.6086,1.535,1.5486,1.5751,1.7175,2.0351,2.2672,2.4942,2.7436,2.9303,3.0037,2.9304,2.9459,2.8806,2.6975,2.5678,2.4955,2.4887,2.7428,2.9551,3.1041,3.2287,3.2863,3.2765,3.3006,3.2705,3.199,3.199,3.1729,3.1264,3.1264,3.0205,2.8492,2.8329,2.705,2.5059,2.3766,2.2007,1.993,0.0,0.0,0.0,0.0,0.0,0.0,0.0,0.0,0.0,0.0,0.0,0.0,0.0,0.0,0.0,0.0,0.0,0.0,0.0,0.0,0.0,0.0,0.0,0.0,0.0,0.0,0.0,0.0,0.0,0.0,0.0,0.0,-1.1902,-0.9888,-1.4834,-1.9252,-2.0699,-2.4909,-2.8757,-3.166,-3.5686,-4.1259,-4.8941,-5.2183,-5.6055,-6.1209,-6.2123,-6.2733,-6.3349,-6.4109,-6.4307,-6.3844,-6.4281,-6.4133,-6.3327,-6.3443,-6.2798,-6.1551,-6.1425,-6.089,-5.9995,-5.9279,-5.9151,-5.9242,-5.8068,-5.6882,-5.5683,-5.5516,-5.4259,-5.2554,-5.1334,-4.9668,-4.7773,1.9376,1.8096,1.697,1.7049,1.6283,1.5683,1.5719,1.6365,1.8088,2.1642,2.3334,2.5408,2.8558,2.947,2.972,2.9478,2.9215,2.834,2.6651,2.5734,2.5821,2.7283,2.9454,3.1209,3.2553,3.2946,3.3216,3.3146,3.3146,3.2926,3.2513,3.2513,3.2089,3.1397,3.1397,3.0434,2.8759,2.8519,2.7628,2.6214,2.5109,2.3578,2.1677,1.9336,1.7222,1.5087,1.2143,1.0797,1.0161,0.8853,0.0,0.0,0.0,0.0,0.0,0.0,0.0,0.0,0.0,0.0,0.0,0.0,0.0,0.0,0.0,0.0,0.0,0.0,0.0,0.0,0.0,0.0,0.0,0.0,-1.3052,-1.9561,-2.0535,-2.4771,-2.8768,-3.1659,-3.3813,-3.6325,-3.9869,-4.3012,-4.7111,-5.2615,-5.5838,-5.8943,-6.216,-6.3115,-6.3717,-6.4077,-6.46,-6.4652,-6.4139,-6.4358,-6.4174,-6.3464,-6.3394,-6.2692,-6.16,-6.1344,-6.0744,0.0,-5.8987,-5.8815,-5.8916,-5.738,-5.6061,0.0,0.0,0.0,0.0,0.0,-4.7965,-4.6769,1.8826,1.8171,1.7353,1.6795,1.6625,1.6436,1.5965,1.7219,1.9428,2.2834,2.4124,2.6199,3.0069,2.9558,2.9365,3.0428,2.9256,2.7941,2.6666,2.6179,2.7006,2.9289,3.0334,3.1361,3.26,3.2629,3.2687,3.2832,3.2774,3.2774,3.2832,3.2774,3.227,3.1433,3.1433,3.0569,2.9099,2.8578,2.7996,2.7193,2.6264,2.5159,2.3803,2.1174,1.9246,1.758,1.396,1.193,1.0863,0.9764,0.0,0.0,0.0,0.0,0.0,0.0,0.0,0.0,0.0,0.0,0.0,0.0,0.0,0.0,0.0,0.0,0.0,0.0,0.0,0.0,0.0,0.0,0.0,0.0,-1.8975,-2.7522,-3.3395,-3.6634,-3.9324,-4.1713,-4.2682,-4.4192,-4.671,-5.0168,-5.334,-5.5858,-5.9513,-6.1905,-6.2617,0.0,0.0,0.0,0.0,-6.4765,-6.4444,-6.4,-6.3479,-6.2924,-6.2867,-6.2399,-6.1537,-6.1571,-6.1043,-6.0238,-5.9254,-5.8606,-5.8133,-5.6479,-5.5039,-5.3789,-5.3092,-5.1578,-4.9473,-4.7005,-4.6274,0.0,1.8422,1.7921,1.7353,1.6795,1.6306,1.6058,1.6402,1.746,1.9581,2.336,2.4783,2.6538,2.9477,3.0081,3.0082,2.9812,2.978,2.9114,2.7653,2.8266,2.8816,2.9282,3.1105,3.25,3.3267,3.3296,3.379,3.4806,3.4312,3.4312,3.4806,3.4283,3.3331,3.2117,3.2117,3.1021,2.9099,2.8995,2.8286,2.7293,2.7519,2.644,2.4414,2.2062,2.0643,1.9598,1.5982,1.4465,1.3995,1.1967,1.1051,1.0803,1.0582,1.0089,0.0,0.0,0.0,0.0,0.0,0.0,0.0,0.0,0.0,0.0,0.0,0.0,0.0,0.0,0.0,0.0,0.0,0.0,0.0,-1.7308,-2.6949,-3.5875,-4.2967,-4.7941,-4.9345,-4.5342,-4.6683,-4.8971,-5.1806,-5.3596,-5.6134,-5.9816,-6.1415,-6.2824,-6.4167,-6.4582,0.0,-6.5008,-6.4707,-6.4556,-6.4637,-6.3922,-6.3384,-6.3071,0.0,0.0,-6.0789,-6.0461,-5.9785,-5.8847,-5.8281,-5.7741,-5.7179,-5.5814,-5.3773,-5.1442,-5.0738,-5.0039,-4.9119,-4.8082,-4.7323,-4.6637,1.8312,1.7623,1.6896,1.6349,1.5996,1.5939,1.6501,1.7713,1.9626,2.256,2.3794,2.5355,2.7724,2.7755,2.757,2.7591,2.7332,2.7232,2.7193,2.8502,2.9683,3.0647,3.2462,3.3761,3.4467,3.4496,3.4893,3.5822,3.5503,3.5532,3.5822,3.5503,3.4326,3.2478,3.2648,3.1361,2.9249,2.9043,2.8298,2.7311,2.7335,2.6142,2.4261,2.305,2.1774,2.0164,1.6902,1.57,1.538,1.3223,1.2374,1.2286,1.2215,1.175,1.0993,0.0,0.0,0.0,0.0,0.0,0.0,0.0,0.0,0.0,0.0,0.0,0.0,0.0,0.0,0.3397,-0.0871,0.0,-1.4869,-2.2265,-3.3431,-4.2899,-4.7643,-5.32,-5.5535,-5.2258,-5.2925,-5.4471,-5.6478,-5.749,-5.9011,-6.1531,-6.2524,-6.3455,-6.4438,-6.4641,-6.4666,-6.4592,-6.4171,-6.3938,-6.3883,-6.3329,-6.301,-6.2842,-6.2334,-6.1731,-6.112,-6.0695,-6.0137,-5.9348,-5.8084,-5.7263,-5.6591,-5.466,-5.2683,-5.0791,-5.005,-4.9036,-4.7864,-4.7092,-4.6507,-4.5943,1.8338,1.7446,1.6691,1.6182,1.587,1.5911,1.6646,1.7746,1.9357,2.1587,2.2644,2.3897,2.5883,2.5133,2.4708,2.5181,2.4936,2.5231,2.6414,2.8219,2.9902,3.1404,3.318,3.4358,3.4877,3.5114,3.5503,3.6141,3.5996,3.5925,3.5899,3.5683,3.445,3.2305,3.2482,3.1415,2.9394,2.8946,2.8215,2.7275,2.6682,2.5401,2.3821,2.3514,2.2167,2.0062,1.7296,1.6125,1.565,1.3957,1.3387,1.344,1.3788,1.3322,1.2506,1.1169,1.2041,0.0,0.0,0.0,0.0,0.0,0.0,0.0,0.0,0.8032,0.7007,0.5038,0.3934,0.1427,-0.4766,-1.2787,-2.0796,-2.7984,-3.9398,-4.8389,-5.0935,-5.5838,-5.907,-5.8646,-5.8656,-5.9062,-6.0065,-6.0689,-6.1447,-6.246,-6.3382,-6.4015,-6.4398,-6.4537,-6.4383,-6.3995,-6.3591,-6.3384,-6.3269,-6.2844,-6.2608,-6.2565,-6.209,-6.1748,-6.1465,-6.102,-6.0515,-5.9739,-5.759,-5.6189,-5.5439,-5.3145,-5.1621,-5.0432,-4.9729,-4.8346,-4.6734,-4.6051,-4.5706,-4.5244,1.8338,1.7723,1.7291,1.7243,1.6407,1.6044,1.7088,1.7297,1.8446,2.1401,2.2311,2.327,2.4822,2.442,2.3979,2.3721,2.5248,2.6181,2.6189,2.8331,2.9566,2.9494,3.182,3.3101,3.3185,3.4077,3.4835,3.5473,3.4893,3.4548,3.4425,3.362,3.2382,3.0849,3.0849,3.0292,2.9341,2.8536,2.783,2.7269,2.6714,2.526,2.328,2.2674,2.1292,1.9428,1.7544,1.5966,1.4736,1.4214,1.3988,1.4082,1.4643,1.479,1.4255,1.2212,1.1615,1.0614,0.6355,0.6557,0.8684,1.1844,1.1787,1.1331,0.0,1.0148,0.6913,0.4842,0.233,-0.2543,-1.2319,-1.8986,-2.6802,-3.8062,-4.548,-5.1338,-5.5698,-5.7985,-5.9598,-6.0725,-6.072,-6.0798,-6.1011,-6.1795,-6.2687,-6.3656,-6.4188,-6.4564,-6.4749,-6.4404,-6.4027,-6.3576,-6.3308,-6.3315,-6.3712,-6.296,-6.2565,-6.2464,-6.2021,-6.1283,-6.0548,-6.0463,-5.9443,-5.759,-5.5029,-5.3308,-5.2187,-5.1402,-5.0432,-4.9301,-4.9186,-4.8158,-4.6764,-4.6882,-4.6527,-4.5714,1.8707,1.8212,1.7864,1.7791,1.6831,1.6394,1.7162,1.7181,1.7715,1.9338,2.0053,2.0629,2.1247,2.0871,2.0662,2.0913,2.2496,2.3966,2.5129,2.7511,2.9001,2.9198,3.107,3.2282,3.2636,3.3028,3.355,3.4233,3.3983,3.379,3.3711,3.339,3.2315,3.0778,3.1035,3.0136,2.8291,2.8187,2.7221,2.582,2.5626,2.4198,2.2093,2.1832,2.0264,1.8012,1.6889,1.5532,0.0,1.4345,1.3874,1.3408,1.4599,1.4501,1.3525,1.1258,1.1383,1.2049,1.1336,1.0313,1.0182,1.3007,1.2789,1.1752,1.1218,0.8404,0.5123,0.2713,-0.0893,-0.6189,-1.4608,-2.3199,-3.2098,0.0,-4.951,-5.5462,-5.813,-5.9529,-6.0434,-6.0732,-6.081,-6.0945,-6.1245,-6.181,-6.2502,-6.3138,-6.3476,-6.3778,-6.4029,-6.3721,-6.3305,-6.2799,-6.2816,-6.2802,-6.2718,-6.2295,-6.2053,-6.2043,-6.1268,-6.0515,-5.9707,-5.9596,-5.824,-5.5925,-5.3669,-5.1892,-5.0712,-5.0096,-4.9301,-4.8521,-4.7912,-4.7298,-4.6704,-4.673,-4.601,-4.5184,1.9004,1.8686,1.8386,1.8155,1.7288,1.6742,1.7011,1.6828,1.6888,1.7658,1.8013,1.8115,1.7969,1.7678,1.7793,1.8486,2.0135,2.202,2.4113,2.6498,2.7999,2.855,3.0051,3.104,3.1536,3.192,3.239,3.2894,3.2894,3.2768,3.2537,3.2537,3.1682,3.036,3.0438,2.9346,2.7464,2.7279,2.6273,2.4787,2.4467,2.3134,2.1284,2.0926,1.9093,1.6565,1.6023,1.4937,1.3749,1.3515,1.2857,1.2237,1.3485,1.3123,1.1887,1.0003,1.01,1.1165,1.2722,1.1964,1.114,1.3095,1.2915,1.169,0.986,0.6877,0.3714,0.0958,-0.3221,-0.904,-1.7482,-2.6657,-3.5887,-4.4864,-5.2661,-5.813,-5.9396,-6.0255,-6.0672,-6.0387,-6.0453,-6.0666,-6.1042,-6.1811,-6.2474,-6.2937,-6.3175,-6.3308,-6.3482,-6.3085,-6.2673,-6.2293,-6.2404,-6.2208,-6.1893,-6.1614,-6.1465,-6.1301,-6.0345,-5.9619,-5.9145,-5.8272,-5.6577,-5.4083,-5.2465,-5.1044,-4.9885,-4.9471,-4.8995,-4.8288,-4.7394,-4.6958,-4.6692,-4.6326,-4.5428,-4.4446,1.9036,1.8975,1.8792,1.8201,1.7578,1.6946,1.6404,1.5796,1.586,1.6992,1.6796,1.6411,1.5916,1.591,1.6208,1.7092,1.9258,2.1429,2.3398,2.523,2.6431,2.6935,2.845,2.9274,2.9274,3.0755,3.1563,3.1589,3.1589,3.1145,3.0368,3.019,2.9651,2.8816,2.7995,2.7568,2.7383,2.563,2.4872,2.4702,2.3627,2.2403,2.1194,2.0025,1.7838,1.5348,1.5231,1.4097,1.2445,1.121,1.0789,1.0669,1.0995,1.0582,0.9723,0.8895,0.7044,0.5523,0.6872,0.8034,0.9297,1.1116,1.1361,1.0949,0.9977,0.679,0.3301,0.0556,-0.3769,-1.0737,-2.2667,-2.9795,-3.7781,-4.9783,-5.5172,-5.8241,-5.9589,-5.9869,-5.993,-5.9938,-6.0031,-6.0229,0.0,-6.1965,-6.3156,-6.3647,-6.3833,-6.3808,-6.3553,-6.2691,-6.2364,-6.2577,-6.2144,-6.1851,-6.1756,-6.1235,-6.0853,-6.0378,-5.9145,-5.8728,-5.8882,-5.6317,-5.4083,-5.2108,-5.1206,-5.0478,-4.9834,-4.985,-4.9482,-4.882,-4.8282,-4.7714,-4.7029,-4.6138,-4.4939,-4.395,1.9004,1.8999,1.8655,1.7545,1.7213,1.6708,1.57,1.5468,1.5409,1.5558,1.5235,0.0,0.0,0.0,0.0,0.0,1.832,2.0035,2.1665,2.372,2.5128,2.5569,2.7276,2.8218,2.8218,2.9043,2.9549,2.9549,2.9549,2.9081,2.8211,2.8187,2.7706,2.6812,2.6625,2.6213,2.5484,2.4957,2.4217,2.3208,2.2073,2.0835,1.9507,1.7597,1.5609,1.3674,0.0,1.071,0.9867,1.0363,0.9898,0.928,0.9999,0.941,0.8124,0.642,0.6245,0.6846,0.8076,1.0051,1.1987,1.2742,1.1711,1.0554,1.0814,0.5992,-0.0333,-0.6347,-0.744,-0.9519,-1.7157,-2.5987,-3.4813,-4.2917,-5.1792,-5.8222,-5.9777,-5.949,-5.8913,-5.8409,-5.8688,0.0,0.0,0.0,0.0,-6.1959,-6.2261,-6.2328,-6.1843,-6.1735,-6.1675,-6.1742,-6.1791,-6.1642,-6.1495,-6.1324,-6.0772,-5.9762,-5.7115,-5.603,-5.6219,-5.3896,-5.2622,-5.1933,-5.1177,-5.0181,-4.9248,-4.9212,-4.88,-4.828,-4.8078,-4.7879,-4.7631,-4.7307,-4.5963,-4.4347,1.8814,1.883,1.8368,1.7077,1.6791,0.0,0.0,0.0,0.0,0.0,0.0,0.0,0.0,0.0,0.0,0.0,0.0,1.7905,1.9246,2.1446,2.2938,2.3438,2.4958,2.5896,2.606,2.6132,2.629,2.6575,2.6577,2.6436,2.6184,2.6573,2.6423,2.5735,2.5167,2.4682,2.4155,2.3156,2.2217,2.1112,1.9903,1.8392,1.6801,1.5201,1.3294,0.0,0.9658,0.838,0.7609,0.8493,0.806,0.7211,0.782,0.708,0.5874,0.5218,0.6059,0.7533,0.9528,1.151,1.2912,1.2715,1.1529,1.0343,1.0162,0.5558,-0.0777,-0.8244,-0.788,-0.8267,-1.481,-2.4751,-3.2711,-3.5049,-4.517,-5.308,-5.3983,-5.3448,-5.4107,-5.7279,-5.8006,-5.8697,0.0,0.0,0.0,-6.1332,-6.1262,-6.1163,-6.1142,-6.084,-6.087,-6.1155,-6.1084,-6.0915,-6.0805,-6.0332,-5.9278,-5.7757,-5.5913,-5.4731,-5.4081,-5.277,-5.2066,-5.1838,-5.0857,-5.0089,-4.9477,-4.9311,-4.8888,-4.8485,-4.8284,-4.7958,-4.7656,-4.7482,-4.6245,-4.4713,1.8442,1.8452,1.8049,0.0,0.0,0.0,0.0,0.0,0.0,0.0,0.0,0.0,0.0,0.0,0.0,0.0,0.0,0.0,1.6342,1.8409,1.9906,2.0626,2.1718,2.2506,2.287,2.2179,2.2175,2.3041,2.302,2.3392,2.4122,2.5062,2.5416,2.5333,2.3302,2.2742,2.3183,2.0165,1.8807,1.862,1.7087,1.5241,1.3385,1.2856,1.095,0.8547,0.8365,0.7179,0.5728,0.5804,0.5441,0.4994,0.5243,0.447,0.3835,0.5692,0.6574,0.7687,1.0965,1.2182,1.2206,1.1033,1.0546,0.9896,0.8048,0.5119,0.0991,-0.5186,-0.5557,-0.7218,-1.5281,-2.5615,-3.1574,-2.7428,-3.6858,-4.462,-4.4217,-4.3716,-4.6943,-5.6542,-5.7961,-5.8461,-5.9203,-5.9601,0.0,-6.1697,0.0,-6.0493,-6.1223,-6.0062,-5.981,-6.0837,-5.9968,-5.9508,-5.9572,-5.8274,-5.6647,-5.4778,-5.5456,-5.4691,-5.2641,-5.2761,-5.2443,-5.1674,-5.0305,-5.0043,-5.0591,-4.9875,-4.959,-4.954,-4.9012,-4.8149,-4.7151,-4.6536,-4.5572,-4.483,0.0,0.0,0.0,0.0,0.0,0.0,0.0,0.0,0.0,0.0,0.0,0.0,0.0,0.0,0.0,0.0,0.0,0.0,1.388,1.5497,1.6686,1.7171,1.919,2.036,2.0461,2.0651,2.0894,2.1076,2.1133,2.0859,2.0504,2.0732,2.0453,1.9743,1.8442,1.7962,1.8042,1.6437,1.5516,1.505,1.3926,1.301,1.2159,1.0514,0.8963,0.7558,0.7215,0.5775,0.4141,0.4876,0.6091,0.7959,1.1219,1.0897,0.951,1.0466,1.1373,1.2193,1.2665,1.3051,1.2986,1.1407,0.8646,0.6333,0.6362,-0.1183,-0.7738,-0.6682,-0.798,-0.874,-0.6881,-1.9155,-2.9373,-2.8786,-4.3284,-5.4762,-5.5066,-5.424,-5.4535,-5.6901,-5.7409,-5.7731,-5.8363,-5.8427,0.0,0.0,-5.9042,-5.9147,-5.9487,-5.8587,-5.8423,-5.917,-5.7929,-5.7306,-5.751,-5.6299,-5.5848,-5.623,-5.4341,-5.2992,-5.1918,-5.1998,-5.1349,-5.0182,-5.0378,-5.013,-4.9901,-4.9668,-4.959,-4.9436,-4.8639,-4.8044,-4.7627,-4.6693,-4.5716,-4.473,0.0,0.0,0.0,0.0,0.0,0.0,0.0,0.0,0.0,0.0,0.0,0.0,0.0,0.0,0.0,0.0,0.0,0.0,0.0,1.219,1.3208,1.374,1.534,1.6285,1.6439,1.6133,1.6163,1.6641,1.6556,1.6448,1.6458,1.6855,1.6723,1.6142,1.4998,1.475,1.4997,1.3413,1.2498,0.0,0.0,1.0157,0.9523,0.7788,0.6805,0.6172,0.5587,0.5335,0.5584,0.8239,0.9828,1.0993,1.2509,1.2166,1.1379,1.2422,1.2958,1.332,1.3815,1.4309,1.3609,0.9145,0.6069,0.415,0.3713,-0.1511,-0.6122,-0.5715,-0.5377,-0.4692,-0.3177,-1.7148,-2.7429,-2.2969,-3.9097,-5.1919,-5.1192,-5.0676,-5.1899,-5.5963,-5.6781,-5.7291,-5.7947,-5.7325,-5.6987,0.0,-5.785,-5.816,-5.7936,-5.7506,-5.7217,-5.7246,-5.6546,-5.607,-5.5854,-5.5167,-5.4959,-5.5281,-5.3486,-5.2552,-5.2469,-5.1583,-5.1126,-5.0877,0.0,-5.0104,-4.9976,-4.9719,-4.9332,-4.8787,-4.824,-4.7449,-4.6516,-4.5978,-4.5051,-4.409,0.0,0.0,0.0,0.0,0.0,0.0,0.0,0.0,0.0,1.177,1.0353,0.928,0.0,0.0,0.0,0.0,0.0,0.0,0.0,0.0,0.9926,1.0583,1.1196,1.1695,1.2005,1.0759,1.0551,1.1432,1.1204,1.1612,1.2523,1.326,1.3535,1.3535,1.2261,1.2133,1.2607,1.0515,0.9554,0.9409,0.8086,0.7092,0.6273,0.0,0.4809,0.4589,0.3775,0.523,0.8286,1.2748,1.4198,1.3939,1.2799,1.2218,1.2199,1.3476,1.3214,1.2839,1.4529,1.4645,1.2536,0.5271,0.2288,0.0988,0.0315,-0.0853,-0.2261,-0.3948,-0.1719,-0.0123,-0.2555,-1.6652,-2.5219,-1.6794,-3.1601,-4.3878,-4.3029,-4.3248,-4.6528,-5.472,-5.6288,-5.692,-5.7594,-5.6204,-5.5588,-5.6219,-5.6955,-5.7149,-5.6646,-5.6333,-5.5899,-5.52,-5.525,-5.5159,-5.4496,-5.45,-5.4092,-5.3634,-5.2924,-5.2836,-5.3105,-5.1346,-5.122,-5.2094,0.0,0.0,-5.0461,-4.9719,-4.8787,-4.7977,-4.7714,-4.6382,-4.48,-4.4663,-4.3997,-4.3184,0.0,0.0,0.0,0.0,0.0,0.0,0.0,0.0,0.0,0.0,1.04,0.935,0.0,0.0,0.0,0.0,0.0,0.0,0.0,0.0,0.0,0.7932,0.9001,0.9612,0.9717,0.9303,0.9179,0.9339,0.9253,0.9367,0.9529,0.9719,0.9745,0.9674,0.8682,0.8231,0.8327,0.7058,0.6505,0.6294,0.5651,0.5195,0.4865,0.4245,0.3626,0.0,0.2112,0.4546,0.8595,1.1485,1.3995,1.6576,2.0269,1.9911,1.8049,1.7849,1.5738,1.3646,1.4467,1.0296,0.4856,0.1544,-0.5131,-0.9281,-0.3366,-1.0248,-1.491,-0.4371,-0.556,-0.7302,-0.3477,-1.1485,-2.0623,-2.6797,-3.6137,-4.5295,-5.2966,-5.3866,-5.4253,-5.5551,-5.6224,-5.6558,-5.6303,-5.5198,0.0,0.0,0.0,0.0,-5.5064,-5.4352,-5.351,-5.2515,-5.2489,-5.2939,-5.3832,-5.3275,-5.3162,-5.3468,-5.2917,-5.2112,-5.1094,-5.0715,-5.0461,-5.0104,0.0,0.0,-4.9719,-4.8657,-4.8109,-4.7846,-4.6001,-4.5187,-4.4663,-4.3858,-4.3302,-4.3228,0.0,0.0,0.0,0.0,0.0,0.0,0.0,1.1819,1.1322,1.1677,1.0393,0.9486,0.9298,0.7812,0.6846,0.0,0.0,0.0,0.0,0.0,0.0,0.6638,0.7138,0.7347,0.7347,0.7138,0.7044,0.7146,0.0,0.7044,0.7138,0.7044,0.6848,0.6431,0.596,0.5761,0.5693,0.4798,0.4631,0.4888,0.4318,0.4114,0.3958,0.3395,0.2682,0.0,0.1519,0.3963,0.7509,0.8973,1.2087,1.6059,2.0103,2.0128,1.838,1.633,1.4051,1.1873,0.9697,0.5836,0.0877,-0.5054,-1.2646,-1.6603,-0.8664,-1.2931,-1.5231,-0.3448,-0.3886,-0.5649,-0.3226,-1.0726,-1.8862,-2.3477,-3.5018,-4.4999,-4.9483,-5.3482,-5.5822,-5.5369,-5.5951,-5.61,-5.5345,-5.3913,-5.3183,-5.3714,0.0,0.0,-5.409,-5.3424,-5.293,-5.2714,-5.2476,-5.2685,-5.3613,-5.2995,-5.281,-5.3052,-5.2068,-5.1346,-5.1094,-5.0334,-5.0078,-5.0104,0.0,0.0,-4.8787,-4.824,-4.7316,-4.6248,-4.5187,-4.4388,-4.388,-4.3727,-4.3534,-4.3599,0.0,0.0,0.0,0.0,0.0,0.0,0.0,1.2123,1.1415,1.184,1.0512,0.9428,0.9076,0.7186,0.5922,0.0,0.0,0.0,0.0,0.0,0.0,0.0,0.0,0.0,0.5253,0.0,0.0,0.5098,0.5018,0.0,0.0,0.0,0.0,0.0,0.4084,0.4084,0.4018,0.3418,0.3565,0.0,0.0,0.3286,0.3179,0.0,0.0,0.0,0.0,0.3057,0.55,0.6578,0.9375,1.2965,1.6243,1.709,1.6383,1.3541,1.1077,0.8034,0.222,-0.054,-0.4283,-1.4495,-2.145,-2.3375,-1.414,-1.4902,-1.4513,-0.3595,-0.2217,-0.3193,-0.3583,-1.0161,-1.613,-1.814,-2.9738,-3.9742,-4.3296,-4.9178,-5.3541,-5.4763,-5.539,-5.5491,-5.4549,-5.2815,0.0,0.0,0.0,0.0,0.0,-5.2855,-5.2812,-5.341,-5.2951,-5.3016,-5.3598,-5.2985,-5.2465,-5.2342,-5.122,-5.0842,-5.1094,-5.0104,-4.9847,-5.0334,0.0,0.0,0.0,-4.7449,-4.6248,-4.48,-4.4526,-4.4041,-4.3359,-4.3731,-4.3927,-4.408,0.0,0.0,0.0,0.0,0.0,0.0,0.0,1.1846,1.1535,1.2882,1.0731,0.9108,0.8974,0.7394,0.6302,0.0,0.0,0.0,0.0,0.0,0.0,0.0,0.0,0.0,0.0,0.0,0.0,0.3491,0.3497,0.0,0.0,0.0,0.0,0.0,0.0,0.3284,0.3284,0.3218,0.0,0.0,0.0,0.0,0.0,0.0,0.0,0.0,0.0,0.1583,0.2361,0.5445,0.6215,0.6524,0.9815,1.2132,1.3458,1.2671,0.8327,0.1768,-0.7778,-1.0955,-1.4731,-2.8186,-3.2928,-3.1083,-1.8769,-2.0362,-2.0637,-0.7256,-0.4623,-0.5158,-0.6611,-0.6454,-0.918,-1.8337,-1.9552,-2.4979,-4.1216,-4.3979,-4.6815,-5.3584,-5.4663,-5.4581,-5.364,-5.2581,-5.1846,0.0,0.0,0.0,0.0,-5.2212,-5.219,-5.2734,-5.2696,-5.2968,-5.3631,-5.2956,-5.2342,-5.1721,-5.0968,-5.0334,-4.9719,-4.9719,-4.959,-4.959,0.0,0.0,0.0,-4.5866,-4.4937,-4.4663,-4.3719,-4.3565,-4.3796,-4.384,-4.4146,-4.4582,0.0,0.0,0.0,0.0,0.0,0.0,1.2151,1.1492,1.0991,1.1323,1.0201,0.9083,0.8296,0.7021,0.619,0.615,0.0,0.0,0.0,0.0,0.0,0.0,0.0,0.0,0.0,0.0,0.3291,0.3291,0.3327,0.0,0.0,0.0,0.0,0.0,0.0,0.2588,0.2485,0.2117,0.0,0.0,0.0,0.0,0.0,0.0,0.0,0.0,0.0,0.0,0.1698,0.2978,0.4171,0.5069,0.4974,0.6535,0.8176,0.7058,0.2503,-0.3886,-1.1674,-1.7056,-2.2744,-3.1863,-3.3011,-2.9771,-2.1782,-2.0258,-1.7514,-0.6975,-0.5486,-0.6216,-0.699,-0.6614,-0.7668,-1.1842,-1.5487,-2.0513,-2.8263,-3.5949,-4.2377,-4.7051,-5.0303,-5.2449,-5.3431,0.0,0.0,0.0,0.0,0.0,0.0,-5.3006,-5.2995,-5.3239,-5.2877,-5.2742,-5.2983,-5.197,-5.122,-5.0968,-5.0334,-4.9847,-4.959,-4.959,-4.9202,-4.8657,0.0,0.0,0.0,-4.5187,-4.4388,-4.388,-4.3609,-4.3709,-4.3927,-4.4517,-4.4866,-4.5085,0.0,0.0,0.0,0.0,0.0,1.1404,1.1802,1.1181,1.0522,1.0218,0.9509,0.8668,0.7904,0.6614,0.5885,0.6022,0.4904,0.0,0.0,0.0,0.0,0.0,0.0,0.0,0.0,0.0,0.2648,0.2648,0.2669,0.2669,0.0,0.0,0.2394,0.1911,0.0,0.0,0.0,0.0,0.0,0.0,0.0,0.0,0.0,0.0,0.0,0.0,0.0,0.0,0.0,0.0,0.0,0.3773,0.2049,0.2748,0.3923,0.2999,-0.2062,-0.9056,-1.6949,-2.3457,-2.9681,-3.6562,-3.4836,-3.0121,-2.5224,-2.0682,-1.5188,-0.7148,-0.6202,-0.6931,-0.7018,-0.71,-0.7236,-0.7481,-1.1915,-1.6735,-2.0366,-2.8565,-3.5843,-4.014,-4.3488,-4.6649,-4.9647,-5.0109,0.0,0.0,0.0,0.0,0.0,-5.347,-5.3349,-5.3349,-5.2861,-5.2465,-5.2342,-5.122,-5.0588,-5.0588,-4.9976,-4.959,-4.959,-4.9332,-4.8657,0.0,0.0,0.0,0.0,-4.4388,-4.3925,-4.3403,-4.3731,-4.4036,-4.4386,-4.5063,-4.5412,-4.5565,0.0,0.0,0.0,0.0,0.0,0.0,1.1702,1.0826,1.013,1.0009,0.8764,0.7814,0.7814,0.637,0.5368,0.5443,0.3984,0.0,0.0,0.0,0.0,0.0,0.0,0.0,0.0,0.0,0.1211,0.1211,0.132,0.1318,0.1211,0.1211,0.1196,0.1237,0.0,0.0,0.0,0.0,0.0,0.0,0.0,0.0,0.0,0.0,0.0,0.0,0.0,0.0,0.0,0.0,0.0,0.0,0.0,0.1565,0.1715,0.1917,-0.425,-1.3673,-2.5219,-3.0932,-3.5733,-4.4457,-4.1208,-3.453,-2.9502,-2.291,-1.5841,-0.8608,-0.7149,-0.7149,-0.7154,-0.7154,-0.7236,-0.7481,-0.7829,-1.1543,-2.1412,-2.2859,-2.5744,-3.3763,-3.4392,-3.5995,-4.0721,0.0,0.0,0.0,0.0,0.0,0.0,0.0,-5.2588,-5.2588,-5.2588,-5.2218,-5.1596,-5.0968,-5.0588,-5.0588,-4.9976,-4.959,-4.959,-4.8502,0.0,0.0,0.0,0.0,0.0,-4.358,-4.3447,-4.3862,-4.3862,-4.4451,-4.5303,-4.5303,-4.5609,-4.6002,0.0,0.0,0.0,0.0,0.0,0.0,0.0,0.924,0.8452,0.808,0.7534,0.7326,0.7631,0.5684,0.4321,0.4321,0.293,0.0,0.0,0.0,0.0,0.0,0.0,0.0,0.0,0.0,0.0543,0.1243,-0.0156,-0.0546,0.0155,0.0155,-0.0229,-0.0894,0.0518,0.0725,0.0,0.0,0.0,0.0,0.0,0.0,0.0,0.0,0.0,0.0,0.0,0.0,0.0,0.0,0.0,0.0,0.0,0.0,0.0,0.0568,-0.4123,-1.0378,-1.6935,-2.2421,-2.7146,-3.0689,-2.7607,-2.3289,-2.1502,-1.5602,-0.9933,-0.7399,-0.6915,-0.6915,-0.6915,-0.7907,-0.8785,-0.9191,-1.0222,-1.1894,-1.4314,-2.1466,-2.775,-3.1177,-4.0418,-4.6727,0.0,0.0,0.0,0.0,0.0,0.0,0.0,0.0,-5.2588,-5.2588,-5.1721,-5.1094,-5.0968,-5.0206,-4.9976,-4.9976,-4.9719,-4.959,-4.959,-4.8526,0.0,0.0,0.0,0.0,0.0,-4.3302,-4.3447,-4.3883,-4.4233,-4.4757,-4.5369,-4.5675,-4.5871,-4.6002,0.0,0.0,0.0,0.0,0.0,0.0,0.0,0.8526,0.7493,0.6414,0.6557,0.6583,0.627,0.4615,0.3451,0.3194,0.1875,0.0,0.0,0.0,0.0,0.0,0.0,0.0,0.0,-0.0157,-0.0236,0.0,-0.1348,-0.1664,-0.0952,-0.0952,-0.1331,-0.1834,-0.053,-0.0149,0.0,0.0,0.0,0.0,0.0,0.0,-0.1073,0.0,0.0,0.0,0.0,0.0,0.0,0.0,0.0,0.0,0.0,0.0,0.0,0.0,-0.3436,-0.6992,-1.2914,-1.92,-2.4381,-2.5727,-2.197,-1.8009,-1.7894,-1.2257,-0.7035,-0.6839,-0.6801,-0.6907,-0.7422,-0.8448,-0.9559,-1.0385,-1.1544,-1.3057,-1.4953,-2.1685,-2.7585,-3.0529,-4.0692,0.0,0.0,0.0,0.0,0.0,0.0,0.0,0.0,0.0,-5.1721,-5.1445,-5.0842,-5.0461,-5.0232,-4.9847,-4.959,-4.959,-4.959,-4.9332,-4.8918,0.0,0.0,0.0,0.0,0.0,0.0,-4.3359,-4.3709,-4.4189,-4.467,-4.515,-4.5609,-4.5893,-4.6002,-4.6002,0.0,0.0,0.0,0.0,0.0,0.0,0.0,0.8458,0.7153,0.5245,0.5811,0.5788,0.4222,0.3456,0.273,0.2226,0.0,0.0,0.0,0.0,0.0,0.0,0.0,0.0,0.0,-0.0783,-0.1187,-0.2102,-0.2265,-0.2268,-0.2187,-0.2187,-0.2162,-0.2113,-0.1986,-0.1382,0.0,0.0,0.0,0.0,-0.0964,-0.1231,0.0,0.0,0.0,0.0,0.0,0.0,0.0,0.0,0.0,0.0,0.0,0.0,0.0,0.0,0.0,0.0,0.0,-1.936,-2.4864,-2.6504,-2.1933,-1.7106,-1.7296,-1.1924,0.0,-0.6817,-0.6895,-0.7317,-0.8591,-0.9239,-0.9931,-1.1337,-1.2114,-1.4813,-2.1393,-2.3685,-2.661,-3.1667,-3.7057,0.0,0.0,0.0,0.0,0.0,0.0,0.0,0.0,0.0,0.0,-4.9515,-5.0181,-5.0206,-4.959,-4.959,-4.959,-4.959,-4.9461,-4.8918,-4.7977,0.0,0.0,0.0,0.0,0.0,0.0,-4.3643,-4.4124,-4.4626,-4.5085,-4.5565,-4.6002,-4.6002,-4.6002,-4.6002,0.0,0.0,0.0,0.0,0.0,0.0,0.0,0.0,0.0,0.0,0.5436,0.4993,0.4593,0.3011,0.1893,0.0,0.0,0.0,0.0,0.0,0.0,0.0,0.0,0.0,0.0,-0.2423,-0.2507,-0.1972,-0.3611,-0.4048,-0.3238,-0.3238,-0.3634,-0.4334,-0.2663,-0.1826,0.0,0.0,0.0,0.0,-0.1777,-0.2401,0.0,0.0,0.0,0.0,-0.2232,-0.1341,0.0,0.0,0.0,0.0,0.0,0.0,0.0,0.0,-0.3891,-0.4658,-0.7733,0.0,-0.9683,-1.0216,-0.9903,-0.9556,0.0,-0.8073,-0.6812,-0.6687,-0.748,-0.8508,-0.9384,-1.1095,-1.2754,-1.4035,-1.5167,-1.7432,-2.1862,-2.9808,-3.5596,-3.65,-4.189,-4.382,0.0,0.0,0.0,0.0,0.0,0.0,0.0,0.0,0.0,-4.8763,-4.9436,-4.9719,-4.959,-4.959,-4.959,-4.959,-4.8787,-4.824,-4.7977,0.0,0.0,0.0,0.0,0.0,-4.3184,-4.3294,-4.384,-4.4604,-4.4713,-4.526,-4.6002,-4.6002,-4.6002,-4.6002,0.0,0.0,0.0,0.0,0.0,0.0,0.0,0.0,0.0,0.0,0.0,0.4142,0.2735,0.1957,0.0,0.0,0.0,0.0,0.0,0.0,0.0,0.0,0.0,0.0,0.0,0.0,-0.3534,-0.3414,-0.4588,-0.4971,-0.4444,-0.4394,-0.4617,-0.5106,-0.3392,-0.303,0.0,0.0,0.0,-0.3749,-0.3184,0.0,0.0,0.0,0.0,0.0,-0.2502,-0.1341,0.0,0.0362,0.0545,0.0273,0.0,0.0,0.0,0.0,-0.4626,-0.5379,-0.6195,-0.6118,-0.5731,-0.5841,-0.6473,-0.697,-0.6899,-0.7276,-0.7533,-0.7459,-0.8542,-0.975,-1.095,-1.3519,-1.5517,-1.5532,-1.9458,-2.3764,-2.7199,-3.2791,-3.7392,-3.9584,-4.2826,0.0,0.0,0.0,0.0,0.0,0.0,0.0,0.0,0.0,0.0,0.0,-4.8787,-4.9332,-4.959,-4.9047,-4.9047,-4.959,-4.7977,-4.7316,-4.716,0.0,0.0,0.0,0.0,0.0,-4.3184,-4.3403,-4.3796,-4.4277,-4.4495,-4.5041,-4.5696,-4.5696,-4.5828,-4.6002,0.0,0.0,0.0,0.0,0.0,0.0,0.0,0.0,0.0,0.0,0.0,0.0,0.0,0.0,0.0,0.0,0.0,0.0,0.0,0.0,0.0,0.0,0.0,0.0,0.0,0.0,-0.4353,-0.5186,-0.5224,-0.5306,-0.542,-0.5317,-0.5252,-0.5219,-0.4351,-0.448,0.0,0.0,0.0,-0.5636,-0.4651,0.0,0.0,0.0,0.0,0.0,0.0,0.0,0.0,-0.0639,-0.0735,-0.0918,-0.2202,0.0,0.0,0.0,0.0,0.0,-0.623,-0.7188,-0.7932,-0.7264,-0.6986,-0.7034,-0.7226,-0.7788,-0.8414,-0.8704,-0.9805,-1.1392,-1.3423,-1.6061,-1.7738,-1.7124,-2.4057,-3.0578,-3.3755,-3.5346,-3.7309,-4.0647,-4.1821,0.0,0.0,0.0,0.0,0.0,0.0,0.0,0.0,0.0,0.0,0.0,-4.8133,-4.8868,-4.9464,-4.8477,-4.8526,-4.9332,-4.7088,-4.6019,-4.609,-4.496,0.0,0.0,0.0,0.0,-4.3206,-4.3599,-4.3796,-4.3905,-4.432,-4.4779,-4.5216,-4.5216,-4.5456,-4.5784,0.0,0.0,0.0,0.0,0.0,0.0,0.0,0.0,0.0,0.0,0.0,0.0,0.0,0.0,0.0,0.0,0.0,0.0,0.0,0.0,0.0,0.0,0.0,0.0,0.0,0.0,0.0,0.0,-0.5393,-0.5556,-0.5676,-0.5659,-0.554,-0.5349,-0.5399,-0.5441,-0.5443,-0.521,-0.5359,-0.5641,-0.5536,0.0,0.0,0.0,0.0,0.0,0.0,0.0,0.0,-0.1525,-0.1884,-0.2063,-0.323,0.0,0.0,0.0,0.0,0.0,-0.6344,-0.9345,-1.1456,-0.7477,-0.6611,-0.6958,-0.7951,-0.8272,-0.8704,-0.9878,-1.1293,-1.3679,-1.7989,-1.7635,-1.7825,-2.169,-2.7459,-3.2653,-3.6374,-4.1649,-4.3394,-3.8409,0.0,0.0,0.0,0.0,0.0,0.0,0.0,0.0,0.0,0.0,0.0,0.0,0.0,-4.8695,-4.8912,-4.8281,-4.8109,-4.824,-4.5646,-4.4617,-4.5051,-4.3392,-4.2908,0.0,0.0,-4.3184,-4.3184,-4.325,-4.3512,-4.3862,-4.3949,-4.4277,-4.4713,-4.4713,-4.4735,-4.4656,0.0,0.0,0.0,0.0,0.0,0.0,0.0,0.0,0.0,0.0,0.0,0.0,0.0,0.0,0.0,0.0,0.0,0.0,0.0,0.0,0.0,0.0,0.0,0.0,0.0,0.0,0.0,0.0,0.0,-0.5969,-0.6018,-0.5822,-0.5676,-0.5567,-0.5616,-0.5518,-0.5475,-0.5681,-0.5735,-0.5735,0.0,0.0,0.0,0.0,0.0,0.0,0.0,0.0,0.0,0.0,-0.3179,-0.3361,-0.4632,0.0,0.0,0.0,0.0,0.0,-0.6279,-0.7905,-0.9514,-0.9384,-1.1817,-1.4356,-1.47,-1.5663,-1.61,-1.4891,-1.5783,-1.7544,-2.0195,-2.1293,-2.4124,-3.1325,-3.1248,-3.19,-3.66,-3.7824,-3.8108,0.0,0.0,0.0,0.0,0.0,0.0,0.0,0.0,0.0,0.0,0.0,0.0,0.0,0.0,0.0,-4.8252,-4.7151,-4.6713,-4.7102,-4.4112,-4.3332,-4.4369,-4.3056,-4.2704,-4.3163,0.0,-4.2922,-4.3163,-4.2879,-4.3053,-4.349,-4.349,-4.3774,-4.4233,-4.4495,-4.4582,-4.4582,0.0,0.0,0.0,0.0,0.0,0.0,0.0,0.0,0.0,0.0,0.0,0.0,0.0,0.0,0.0,0.0,0.0,0.0,0.0,0.0,0.0,0.0,0.0,0.0,0.0,0.0,-0.5779,-0.6072,-0.629,-0.6377,-0.6344,-0.61,-0.5909,-0.5768,-0.5676,-0.5616,-0.5513,-0.5692,-0.5735,-0.5735,0.0,0.0,0.0,0.0,0.0,0.0,0.0,0.0,0.0,0.0,0.0,0.0,0.0,0.0,0.0,-0.5904,-0.5942,-0.6134,-0.6675,-0.7668,-0.9084,-1.1933,-1.5041,-1.7867,-1.9721,-2.0695,-2.0861,-1.9554,-2.0339,-2.1545,-2.227,-2.4718,-2.9172,-3.6582,-3.351,-3.2051,-3.734,-3.5418,0.0,0.0,0.0,0.0,0.0,0.0,0.0,0.0,0.0,0.0,0.0,0.0,0.0,0.0,0.0,0.0,-4.681,-4.5348,-4.4948,-4.5734,-4.3012,-4.237,-4.3602,-4.2698,-4.2529,-4.2988,-4.2595,-4.2573,-4.2813,-4.2529,-4.2638,-4.301,-4.3141,-4.3381,-4.3752,-4.4124,-4.4255,-4.4255,0.0,0.0,0.0,0.0,0.0,0.0,0.0,0.0,0.0,0.0,0.0,0.0,0.0,0.0,0.0,0.0,0.0,0.0,0.0,0.0,0.0,0.0,0.0,0.0,0.0,-0.5986,-0.6105,-0.6567,-0.6698,-0.6703,-0.6594,-0.6681,-0.6426,-0.5888,-0.5882,-0.5817,-0.5719,-0.573,-0.5735,-0.5735,-0.5735,0.0,0.0,0.0,0.0,0.0,0.0,0.0,0.0,0.0,0.0,0.0,0.0,0.0,-0.5904,-0.5904,-0.6067,-0.6583,-0.8032,-1.1392,-1.4472,-1.4635,-1.1151,-0.9832,-1.8094,-1.7499,-1.6484,-2.1301,-2.3631,-2.4986,-2.5272,-2.6363,-2.8033,-3.0062,-3.2428,-3.5659,-4.0121,0.0,0.0,0.0,0.0,0.0,0.0,0.0,0.0,0.0,0.0,0.0,0.0,0.0,0.0,0.0,0.0,0.0,-4.3869,-4.2814,-4.2935,-4.394,-4.2301,-4.1926,-4.2535,-4.1939,-4.2005,-4.2464,-4.2442,-4.218,-4.183,-4.2245,-4.2442,-4.2529,-4.2988,-4.3206,-4.3228,-4.3272,-4.3272,-4.3272,0.0,0.0,0.0,0.0,0.0,0.0,0.0,0.0,0.0,0.0,0.0,0.0,0.0,0.0,0.0,0.0,0.0,0.0,0.0,0.0,0.0,0.0,0.0,-0.5665,-0.6143,-0.6431,-0.6774,-0.7176,-0.7225,-0.7149,-0.6942,-0.6622,-0.6306,-0.6007,-0.586,-0.5773,-0.5735,-0.5735,-0.5735,-0.5735,-0.5735,-0.528,0.0,0.0,0.0,0.0,0.0,0.0,0.0,0.0,-0.5681,-0.5632,-0.5708,-0.5812,-0.6098,-0.6999,-0.7354,-0.7647,-0.8251,-1.1914,-1.5457,-1.4734,-1.3613,-1.4619,-2.2097,-2.3178,-2.3026,-2.4189,-2.5967,-2.6995,-2.601,-2.9508,-3.2609,-3.2334,-3.4693,-3.7418,0.0,0.0,0.0,0.0,0.0,0.0,0.0,0.0,0.0,0.0,0.0,0.0,0.0,0.0,0.0,0.0,0.0,0.0,0.0,-4.1239,-4.0825,-4.065,-4.0475,-4.1155,-4.2637,-4.246,-4.2637,-4.3103,-4.2793,-4.2569,-4.2386,-4.2298,-4.2469,-4.29,-4.3097,-4.3184,-4.3184,-4.3184,-4.3184,-4.3184,0.0,0.0,0.0,0.0,0.0,0.0,0.0,0.0,0.0,0.0,0.0,0.0,0.0,0.0,0.0,0.0,0.0,0.0,0.0,0.0,0.0,0.0,0.0,-0.5768,-0.642,-0.725,-0.7558,-0.7404,-0.7519,-0.7372,-0.6975,-0.6535,-0.6241,-0.6078,-0.5839,-0.5752,-0.5784,0.0,0.0,-0.5735,-0.5735,-0.5191,0.0,0.0,0.0,0.0,0.0,0.0,0.0,0.0,-0.5824,-0.6091,-0.6352,-0.6769,-0.7257,-0.7909,-0.9084,-1.0227,-1.0636,-1.3325,-1.6188,-1.6562,-1.6548,-1.8058,-2.4226,-2.567,-2.5863,-2.7,-2.7669,-2.786,-2.7607,-3.1015,-3.3755,-3.3656,-3.5969,0.0,0.0,0.0,0.0,0.0,0.0,0.0,0.0,0.0,0.0,0.0,0.0,0.0,0.0,0.0,0.0,0.0,0.0,0.0,0.0,-3.9537,-3.9146,-3.8925,-3.9469,-4.0626,-4.2371,-4.2661,-4.2973,-4.3287,-4.2929,-4.275,-4.2615,-4.2303,-4.2562,-4.3184,-4.3184,-4.3184,-4.3184,-4.3184,-4.3184,-4.3184,0.0,0.0,0.0,0.0,0.0,0.0,0.0,0.0,0.0,0.0,0.0,0.0,0.0,0.0,0.0,0.0,0.0,0.0,0.0,-0.5018,0.0,0.0,0.0,-0.6115,-0.7291,-0.8549,-0.854,-0.7265,-0.7524,-0.7328,-0.6611,-0.6502,-0.6317,-0.6072,-0.5839,-0.5795,-0.5893,0.0,0.0,-0.5735,-0.5735,-0.5735,-0.5819,0.0,0.0,0.0,0.0,0.0,0.0,0.0,-0.643,-0.739,-0.7796,-0.8826,-0.9604,-0.8497,-1.1038,-1.4536,-1.5455,-1.6038,-1.7296,-2.105,-1.9357,-1.8222,-2.355,-2.2831,-2.2847,-2.9564,-2.8741,-2.7785,-3.0604,-3.0382,-3.0382,-3.2747,0.0,0.0,0.0,0.0,0.0,0.0,0.0,0.0,0.0,0.0,0.0,0.0,0.0,0.0,0.0,0.0,0.0,0.0,0.0,0.0,0.0,-3.7575,-3.8109,-3.9188,-3.9656,-4.0394,-4.1272,-4.2371,-4.2794,-4.2794,-4.2794,-4.2503,-4.21,-4.2193,-4.2562,-4.3184,-4.3184,-4.3184,-4.3184,-4.3184,-4.3184,-4.3184,0.0,0.0,0.0,0.0,0.0,0.0,0.0,0.0,0.0,0.0,0.0,0.0,0.0,0.0,0.0,0.0,0.0,0.0,-0.5018,-0.5018,-0.5323,-0.6009,0.0,0.0,0.0,0.0,-0.9485,-1.0062,-1.0448,-0.9567,-0.7543,-0.7504,-0.6899,-0.5839,-0.585,0.0,0.0,0.0,0.0,-0.573,-0.6612,-0.6966,-0.6959,0.0,0.0,0.0,0.0,0.0,0.0,0.0,0.0,0.0,-0.879,-0.944,-1.0162,-1.0584,-1.1874,-1.3149,-1.308,-1.7414,-2.1274,-1.8401,-2.1186,-2.4735,-2.5023,-2.3796,-2.4072,-2.8838,-2.8873,-2.8277,-2.8919,-3.118,-3.2914,0.0,0.0,0.0,0.0,0.0,0.0,0.0,0.0,0.0,0.0,0.0,0.0,0.0,0.0,0.0,0.0,0.0,0.0,0.0,0.0,0.0,0.0,0.0,-3.9073,-3.9678,-4.0604,-4.1728,-4.3015,-4.3799,-4.4115,-4.4115,-4.4115,-4.3891,-4.3376,-4.3351,-4.3316,-4.358,-4.358,-4.358,-4.358,-4.3858,-4.3997,-4.3858,0.0,0.0,0.0,0.0,0.0,0.0,0.0,0.0,0.0,0.0,-0.2838,-0.363,0.0,0.0,0.0,0.0,0.0,0.0,-0.555,-0.5628,-0.6086,-0.708,-0.7321,-0.8053,-0.9461,-1.0159,-1.0817,-1.1539,-1.0749,-0.9338,-0.7152,-0.7209,-0.6732,-0.5877,-0.5947,-0.6213,0.0,0.0,0.0,-0.7136,-0.7989,-0.8239,-0.8281,0.0,0.0,0.0,0.0,0.0,0.0,0.0,0.0,0.0,-1.0181,-1.0788,-1.1786,-1.3205,-1.3935,-1.4789,-1.7241,-2.0431,-2.3053,-2.2667,-2.5034,-2.7377,-2.6938,-2.6423,-2.6742,-2.9619,-2.9799,-2.9601,-2.9962,-3.2191,0.0,0.0,0.0,0.0,0.0,0.0,0.0,0.0,0.0,0.0,0.0,0.0,0.0,0.0,0.0,0.0,0.0,0.0,0.0,0.0,0.0,0.0,0.0,0.0,0.0,-4.0536,-4.1595,-4.2882,-4.413,-4.4451,-4.4612,-4.4612,-4.4612,-4.4321,-4.3962,-4.4049,-4.4112,-4.3997,-4.3997,-4.3997,-4.3997,-4.4273,-4.4273,-4.4273,0.0,0.0,0.0,0.0,0.0,0.0,0.0,0.0,0.0,-0.2386,-0.3201,-0.3778,0.0,0.0,0.0,-0.5168,-0.5246,-0.5705,-0.6619,-0.6619,-0.7157,-0.8152,-0.8572,-0.9702,-1.1706,-1.2242,-1.2267,-1.1689,-0.9589,-0.778,-0.6253,-0.6485,-0.6543,-0.6444,-0.6455,-0.7001,0.0,0.0,0.0,-0.9026,-0.9473,-0.9438,-0.9314,-1.104,0.0,0.0,0.0,0.0,0.0,0.0,0.0,0.0,-1.1962,-1.2689,-1.386,-1.5629,-1.643,-1.8076,-2.4386,-2.3878,-2.3304,-3.0348,-2.9579,-2.734,-2.9049,-2.9676,-3.0192,-3.1091,-3.1191,-3.1367,-3.2519,-3.3296,0.0,0.0,0.0,0.0,0.0,0.0,0.0,0.0,0.0,0.0,0.0,0.0,0.0,0.0,0.0,0.0,0.0,0.0,0.0,0.0,0.0,0.0,0.0,0.0,0.0,0.0,-4.275,-4.3647,-4.4681,-4.4681,-4.4681,-4.4681,-4.4681,-4.4546,-4.4165,-4.4619,-4.4663,-4.4411,-4.4411,-4.4411,-4.4411,-4.4411,-4.4411,-4.4411,0.0,0.0,0.0,0.0,0.0,0.0,0.0,0.0,-0.3078,-0.3323,-0.3998,-0.4525,-0.4753,-0.5622,0.0,-0.6163,-0.6934,-0.7548,-0.777,-0.777,-0.8228,-0.9216,-1.0297,-1.1353,-1.2416,-1.2404,-1.1997,-1.1194,-1.1452,-1.0557,-0.8488,-0.9722,-0.9802,-0.8861,-0.8991,-0.8984,0.0,0.0,-0.8177,-0.7718,-0.9639,-0.98,-0.8998,-1.0369,-1.1359,0.0,0.0,0.0,0.0,0.0,0.0,0.0,-1.3121,-1.3469,-1.3938,-1.4272,-1.5763,-1.775,-1.9783,-2.2895,-2.5933,-2.7604,-2.8462,-2.8941,-2.9615,-3.0111,-3.0382,-2.9928,-3.0994,-3.1973,-3.2246,0.0,0.0,0.0,0.0,0.0,0.0,0.0,0.0,0.0,0.0,0.0,0.0,0.0,0.0,0.0,0.0,0.0,0.0,0.0,0.0,0.0,0.0,0.0,-4.0495,-4.1763,-4.2736,0.0,-4.4024,-4.4526,-4.5186,-4.5186,-4.5186,-4.5186,-4.5186,-4.5186,-4.5073,-4.4892,-4.48,-4.4663,-4.4663,-4.4663,-4.4663,-4.5074,-4.521,-4.4937,0.0,0.0,0.0,0.0,0.0,0.0,0.0,0.0,-0.3946,-0.4128,-0.4916,-0.5544,-0.5681,-0.6626,0.0,0.0,-0.777,-0.8313,-0.8761,-0.8836,-0.9392,-1.0628,-1.1558,-1.2288,-1.2699,-1.2047,-1.1387,-1.0794,-1.1258,-1.0681,-0.9218,-1.0055,-1.0148,-0.9516,-0.9522,-0.9678,-1.0,-0.98,-0.9696,-0.9704,-1.1209,-1.125,-1.0554,-1.1475,-1.2174,-1.2637,-1.2152,0.0,0.0,0.0,0.0,0.0,0.0,0.0,-1.397,-1.5457,-1.5503,-1.6112,-2.1107,-2.3064,-2.4466,-2.7724,-2.916,-3.002,-3.0509,-3.0447,-3.0306,-3.043,-3.1459,-3.248,0.0,0.0,0.0,0.0,0.0,0.0,0.0,0.0,0.0,0.0,0.0,0.0,0.0,0.0,0.0,0.0,0.0,0.0,0.0,0.0,0.0,0.0,0.0,0.0,-4.155,-4.2563,-4.3326,-4.3808,-4.4359,-4.4864,-4.537,-4.537,-4.537,-4.537,-4.537,-4.537,-4.5347,-4.521,-4.5074,-4.5074,-4.5074,-4.5074,-4.5074,-4.5347,-4.5074,-4.4366,0.0,0.0,0.0,0.0,0.0,0.0,0.0,0.0,0.0,-0.4965,-0.5788,-0.6514,-0.6758,-0.7693,-0.8371,0.0,0.0,0.0,-0.9766,-0.9841,-1.0573,-1.1882,-1.2409,-1.2662,-1.2699,-1.1701,-1.1133,-1.0813,-1.0621,-1.0243,-0.977,-0.9897,-1.0009,-1.0046,-0.9839,-1.024,-1.108,-1.0995,-1.1277,-1.1876,-1.2577,-1.2409,-1.1981,-1.2637,-1.2795,-1.2674,-1.2952,-1.3387,-1.3833,-1.3833,0.0,0.0,0.0,0.0,-1.4463,-1.6865,-1.5758,-1.5421,-2.317,-2.3553,-2.3176,-2.9016,-3.0626,-3.0859,-3.1092,-3.0742,-3.0581,-3.1207,-3.2027,0.0,0.0,0.0,0.0,0.0,0.0,0.0,0.0,0.0,0.0,0.0,0.0,0.0,0.0,0.0,0.0,0.0,0.0,0.0,0.0,0.0,0.0,0.0,0.0,-4.1421,-4.2339,-4.2913,-4.3418,-4.3808,-4.4428,-4.4956,-4.537,-4.537,-4.537,-4.537,-4.537,-4.537,-4.537,-4.537,-4.537,-4.537,-4.537,-4.537,-4.537,-4.537,-4.4663,-4.3653,0.0,0.0,0.0,0.0,0.0,0.0,0.0,0.0,0.0,0.0,-0.6293,-0.6813,-0.7753,-0.8761,-0.9295,-0.9102,-1.0085,-1.0638,-1.0562,0.0,0.0,-1.224,-1.2324,-1.2469,-1.2699,-1.2314,-1.1981,-1.1721,-1.1697,-1.1746,-1.1862,-1.2116,-1.236,-1.2568,-1.2337,-1.2178,-1.2088,-1.1638,-1.0942,-1.02,-1.1315,-1.1055,-1.03,-1.156,-1.2204,-1.2397,-1.2662,-1.3109,-1.3568,-1.3568,-1.4216,0.0,0.0,0.0,-1.5994,-1.5693,-1.7512,-1.9665,-1.9651,-2.3267,-2.7698,-3.0142,-3.1421,-3.1787,-3.0743,-3.1426,-3.1995,0.0,0.0,0.0,0.0,0.0,0.0,0.0,0.0,0.0,0.0,0.0,0.0,0.0,0.0,0.0,0.0,0.0,0.0,0.0,0.0,0.0,0.0,0.0,-4.1806,-4.1035,-4.1678,0.0,-4.2339,-4.3257,-4.3739,-4.3808,-4.4796,-4.5301,-4.537,-4.537,-4.537,-4.537,-4.537,-4.537,-4.537,-4.537,-4.537,-4.537,-4.537,-4.537,-4.537,-4.537,-4.4663,-4.3653,0.0,0.0,0.0,0.0,0.0,0.0,0.0,0.0,0.0,0.0,0.0,-0.8355,-0.8903,-0.982,-1.033,-1.0081,-1.0525,-1.084,-1.0731,-1.1371,-1.1854,-1.2083,-1.2373,-1.2518,-1.2481,-1.2228,-1.1962,-1.1709,-1.1552,-1.1986,-1.3052,-1.2692,-1.2626,-1.2868,-1.2457,-1.2204,-1.2059,-1.1528,-1.0983,-1.0591,-1.1059,-0.9388,-0.6827,-1.0162,-1.045,-0.9292,-1.1438,-1.3451,-1.5021,-1.4418,-1.4612,-1.5253,-1.5777,0.0,0.0,0.0,-1.7356,-1.8986,-2.0342,-2.4274,-2.8126,-2.9287,-3.0119,-3.049,-3.002,-3.1072,-3.1997,-3.1111,0.0,0.0,0.0,0.0,0.0,0.0,0.0,0.0,0.0,0.0,0.0,0.0,0.0,0.0,0.0,0.0,0.0,0.0,0.0,0.0,0.0,-4.257,-4.2443,-4.1678,-4.2084,0.0,-4.2339,-4.3051,-4.3693,-4.4267,-4.5002,-4.537,-4.537,-4.537,-4.537,-4.537,-4.537,-4.537,-4.537,-4.537,-4.537,-4.5324,-4.5048,-4.4933,-4.4933,-4.4233,-4.3255,-4.231,0.0,0.0,0.0,0.0,0.0,0.0,0.0,0.0,0.0,0.0,0.0,-0.9669,-0.997,0.0,0.0,0.0,-1.0779,-1.0888,-1.1178,-1.1597,-1.1897,-1.2134,-1.2346,-1.2385,-1.2119,-1.1926,-1.1763,-1.1802,-1.1362,-1.2018,-1.3598,-1.277,-1.2759,-1.3311,-1.26,-1.2192,-1.2083,-1.1479,-1.1262,-1.1147,-0.9732,-0.7423,-0.5157,-0.7588,-0.7522,-0.6587,0.0,-1.3024,-1.5002,-1.5077,-1.5518,-1.6068,-1.6584,-1.6469,0.0,0.0,0.0,-1.8177,-2.1923,-2.482,-2.7118,-2.8038,-2.8954,-2.9536,-2.9512,-3.0975,-3.2177,0.0,0.0,0.0,0.0,0.0,0.0,0.0,0.0,0.0,0.0,0.0,0.0,0.0,0.0,0.0,0.0,0.0,0.0,0.0,0.0,0.0,-4.2593,-4.2822,-4.2822,-4.2339,-4.2339,-4.2339,-4.2339,-4.2959,-4.3716,-4.4612,-4.5117,-4.537,-4.537,-4.537,-4.537,-4.537,-4.537,-4.537,-4.5347,-4.5232,-4.5163,-4.5117,-4.4612,-4.4405,-4.4272,-4.3308,-4.2239,-4.1198,0.0,0.0,0.0,0.0,0.0,0.0,0.0,0.0,0.0,0.0,0.0,-0.997,-1.0881,-1.1031,-1.1009,-1.0743,-1.0948,-1.1452,-1.2471,-1.1904,-1.1927,-1.2912,-1.228,0.0,-1.1576,-1.1552,-1.1866,-1.2526,-1.1828,-1.2242,-1.375,-1.3058,-1.3559,-1.5212,-1.3699,-1.2916,-1.2614,-1.1842,-1.1648,-1.1352,-0.6013,-0.5398,-0.7274,-0.3191,-0.3119,0.0,0.0,-1.087,-1.1468,-1.4825,-1.6937,-1.8113,-1.7727,-1.8516,-1.9424,0.0,0.0,0.0,-2.309,-2.4346,-2.5129,-2.7173,-2.8784,-2.9757,-2.9906,-3.1584,-3.3035,0.0,0.0,0.0,0.0,0.0,0.0,0.0,0.0,0.0,0.0,0.0,0.0,0.0,0.0,0.0,0.0,0.0,0.0,0.0,0.0,0.0,-4.32,-4.2696,-4.2339,-4.2339,-4.2339,-4.2339,-4.2339,-4.328,-4.4061,-4.4612,-4.5117,-4.537,-4.537,-4.537,-4.537,-4.537,-4.537,-4.537,-4.5324,-4.4841,-4.4635,-4.4589,-4.4061,-4.3854,-4.3768,-4.3174,-4.2239,-4.1476,0.0,0.0,0.0,0.0,0.0,0.0,0.0,0.0,0.0,0.0,0.0,0.0,0.0,-1.1105,-1.1009,-1.0743,-1.0803,0.0,0.0,-1.1426,-1.1991,-1.2974,-1.2935,-1.3026,-1.3327,-1.3388,-1.3383,-1.3506,-1.3257,-1.4021,-1.5685,-1.5101,-1.5668,-1.7126,-1.4921,-1.4304,-1.4809,-1.3263,-1.2645,-1.2337,-0.7445,-0.4387,-0.2956,-0.5313,0.0,0.0,0.0,-1.1586,-1.296,0.0,0.0,0.0,0.0,0.0,-1.8963,-1.9543,-2.0254,-2.1299,-2.3359,-2.432,-2.495,-2.6059,-2.7359,-2.8557,-2.8917,-3.1309,-3.3414,0.0,0.0,0.0,0.0,0.0,0.0,0.0,0.0,0.0,0.0,0.0,0.0,0.0,0.0,0.0,0.0,0.0,0.0,0.0,0.0,0.0,-4.2696,-4.2466,-4.2339,-4.2339,-4.2339,-4.2637,-4.328,-4.3625,-4.4245,-4.5094,-4.5278,-4.537,-4.537,-4.537,-4.537,-4.537,-4.537,-4.537,-4.5324,-4.4819,-4.4612,-4.452,-4.3671,-4.2935,-4.2279,-4.1238,-4.0843,-4.0869,0.0,0.0,0.0,0.0,0.0,0.0,0.0,0.0,0.0,0.0,0.0,0.0,0.0,0.0,-1.1178,-1.1009,-1.09,-1.113,-1.1768,-1.1851,-1.2434,-1.377,-1.3672,-1.3823,-1.4273,-1.4258,-1.4252,-1.4269,-1.4022,-1.4678,-1.6137,-1.5873,-1.6519,-1.7945,-1.62,-1.5816,-1.64,-1.4977,-1.4123,-1.3081,-0.7424,-0.4485,-0.3687,-0.5461,0.0,0.0,0.0,0.0,0.0,0.0,0.0,0.0,0.0,0.0,0.0,-1.9996,-2.1273,-2.2409,-2.3039,-2.4035,-2.4963,-2.5575,-2.6424,-2.7325,-2.888,-3.1053,-3.3284,0.0,0.0,0.0,0.0,0.0,0.0,0.0,0.0,0.0,0.0,0.0,0.0,0.0,0.0,0.0,0.0,0.0,0.0,0.0,0.0,0.0,-4.2339,-4.2339,-4.2339,-4.2339,-4.2339,-4.2729,-4.3556,-4.3716,-4.4245,-4.5117,-4.5278,-4.537,-4.537,-4.537,-4.5278,-4.5117,-4.5278,-4.5255,-4.5071,-4.4543,-4.4245,-4.4015,-4.3165,-4.2176,-4.111,-4.0206,-4.0061,-4.0223,0.0,0.0,0.0,0.0,0.0,0.0,0.0,0.0,0.0,-1.0755,0.0,0.0,0.0,0.0,0.0,-1.1528,-1.1286,-1.1922,-1.3867,-1.3128,-1.3506,-1.5384,0.0,0.0,-1.4099,-1.4083,-1.4356,-1.4933,-1.4214,-1.4283,-1.5029,-1.5173,-1.6061,-1.7543,-1.756,-1.7365,-1.7044,-1.6877,-1.5881,-1.3776,0.0,-0.5624,-1.0039,0.0,0.0,0.0,-1.1593,-1.1921,0.0,-1.1625,0.0,0.0,0.0,0.0,0.0,0.0,-2.1053,-2.23,0.0,0.0,0.0,-2.5883,-2.5793,-2.6354,-2.9565,-3.0839,-3.2214,0.0,0.0,0.0,0.0,0.0,0.0,0.0,0.0,0.0,0.0,0.0,0.0,0.0,0.0,0.0,0.0,0.0,0.0,0.0,0.0,-4.2339,-4.2339,-4.2339,-4.2339,-4.2339,-4.2339,-4.2591,-4.3096,-4.3579,-4.4084,-4.4635,-4.5117,-4.537,-4.537,-4.537,-4.5071,-4.4635,-4.514,-4.5048,-4.452,-4.4015,-4.351,-4.3028,-4.2522,-4.1678,-4.0691,-4.0077,-3.9848,-3.9912,0.0,0.0,0.0,0.0,0.0,-1.1021,-1.0755,-1.0936,-1.1021,0.0,0.0,0.0,0.0,0.0,0.0,-1.1552,-1.2133,-1.2593,-1.2938,-1.3085,-1.3909,-1.5455,-1.4924,-1.5233,-1.649,-1.6245,-1.621,-1.6381,-1.5859,-1.5703,-1.5925,-1.6315,-1.6946,-1.7917,-1.8279,-1.8355,-1.8117,-1.7029,-1.6862,-1.6385,-0.698,-0.5558,0.0,0.0,0.0,0.0,0.0,-1.0377,-1.2796,0.0,-1.4073,-2.1111,0.0,0.0,0.0,0.0,-2.0869,-2.164,-2.2538,0.0,0.0,0.0,0.0,0.0,0.0,0.0,0.0,0.0,0.0,0.0,0.0,0.0,0.0,0.0,0.0,0.0,0.0,0.0,0.0,0.0,0.0,0.0,0.0,0.0,0.0,0.0,0.0,-4.2339,-4.2339,-4.2339,-4.2339,-4.2339,-4.2339,-4.2752,-4.3602,-4.3739,-4.4245,-4.5163,-4.5301,-4.537,-4.537,-4.537,-4.5071,-4.4635,-4.514,-4.4658,-4.3533,-4.3716,-4.351,-4.3028,-4.2522,-4.1164,-3.9713,-4.0258,-4.0255,-3.9848,0.0,0.0,-1.1105,-1.1105,-1.1202,-1.1154,-1.0779,-1.1141,-1.131,0.0,0.0,0.0,0.0,0.0,0.0,-1.2501,-1.2802,-1.3201,-1.3753,-1.3917,-1.4522,-1.5547,-1.5652,-1.6209,-1.7238,-1.7367,-1.7238,-1.6908,-1.6835,-1.6633,-1.634,-1.7073,-1.7568,-1.788,-1.8284,-1.8559,-1.8592,-1.7411,-1.7286,0.0,-0.9331,0.0,0.0,-0.5982,-0.4965,0.0,0.0,0.0,-1.0894,-0.698,-1.1939,0.0,0.0,0.0,0.0,0.0,-2.1034,-2.2006,-2.2538,-2.3235,-2.3932,-2.4519,0.0,0.0,-2.8305,-2.9071,0.0,0.0,0.0,0.0,0.0,0.0,0.0,0.0,0.0,0.0,0.0,0.0,0.0,0.0,0.0,0.0,0.0,0.0,0.0,0.0,-4.2339,-4.2339,-4.2339,-4.2339,-4.2339,-4.2339,-4.2339,-4.2798,-4.3808,-4.3808,-4.4336,-4.537,-4.537,-4.537,-4.5347,-4.514,-4.4887,-4.4612,-4.4681,-4.4084,-4.3119,-4.3395,-4.3341,-4.3113,-4.2581,-4.1399,-4.0322,-4.0991,-4.0802,-4.0344,0.0,0.0,-1.1117,-1.1154,-1.1395,-1.1419,-1.0972,-1.1504,-1.1805,0.0,0.0,0.0,0.0,0.0,0.0,0.0,-1.3761,-1.4007,-1.5468,-1.5171,-1.5201,-1.5771,-1.645,-1.6908,-1.7037,-1.7752,-1.777,-1.7037,-1.7293,-1.7073,-1.6413,-1.7385,-1.7678,-1.7385,-1.7752,-1.8119,-1.8412,-1.7807,-1.7283,-1.6397,-1.2141,-1.1903,0.0,0.0,-0.9738,0.0,-1.0155,-0.9052,-0.8439,-0.6211,-0.864,0.0,0.0,0.0,0.0,0.0,-2.1228,-2.2474,-2.2446,-2.3253,-2.428,-2.5051,-2.4409,0.0,-2.9421,-3.0005,0.0,0.0,0.0,0.0,0.0,0.0,0.0,0.0,0.0,0.0,0.0,0.0,0.0,0.0,0.0,0.0,0.0,0.0,0.0,-4.2339,-4.2339,-4.2339,-4.2339,-4.2339,-4.2339,-4.2339,-4.2385,-4.2844,-4.3716,-4.3831,-4.4359,-4.5278,-4.5187,-4.5187,-4.5255,-4.4684,-4.4409,-4.4405,-4.386,-4.3379,-4.3005,-4.2921,-4.3032,-4.32,-4.2593,-4.2038,-4.1715,-4.1843,-4.1377,-4.1013,-1.1105,-1.1105,-1.1178,-1.1407,-1.1673,-1.1878,-1.1986,-1.2131,-1.2276,-1.2373,0.0,0.0,0.0,0.0,0.0,0.0,-1.5953,-1.5847,-1.5998,-1.5701,-1.5722,-1.6175,-1.634,-1.689,-1.7862,-1.8045,-1.8045,-1.788,-1.7312,-1.6945,-1.678,-1.6358,-1.6303,-1.656,-1.6633,-1.6707,-1.6835,-1.766,-1.6813,-1.474,-1.3913,0.0,-1.3028,-0.9478,-0.784,-0.7396,-0.6846,-0.9051,-1.2713,0.0,-1.3306,-1.1236,0.0,0.0,0.0,-2.0663,-2.0898,-2.0377,-2.2625,-2.3474,-2.3785,-2.4262,-2.4207,0.0,-2.532,-2.5229,-2.582,0.0,0.0,0.0,0.0,0.0,0.0,0.0,0.0,0.0,0.0,0.0,0.0,0.0,0.0,0.0,0.0,0.0,-4.2339,-4.2339,-4.2339,-4.2339,-4.2339,-4.2339,-4.2339,-4.2339,-4.2729,-4.3028,-4.3234,-4.4038,-4.4543,-4.475,-4.4323,-4.43,-4.475,-4.3669,-4.3331,-4.3395,-4.277,-4.2519,-4.2395,-4.1983,-4.2366,-4.32,-4.2593,-4.2038,-4.1843,-4.265,-4.2038,-4.0884,-1.1105,-1.1105,-1.1238,-1.1661,-1.1938,-1.2204,-1.2469,-1.2735,-1.2916,-1.2916,0.0,0.0,0.0,0.0,0.0,0.0,0.0,0.0,-1.709,-1.6756,-1.6597,-1.6615,-1.7,-1.7495,-1.8119,-1.8504,-1.8614,-1.8412,-1.8009,-1.7715,-1.7513,-1.7092,-1.6956,-1.7,-1.6902,-1.7027,-1.7311,-1.7893,-1.7718,-1.6875,-1.4068,0.0,-1.0675,-0.776,-0.6368,-0.5908,-0.5908,-0.7614,-0.9995,-1.111,-1.2095,0.0,0.0,-1.6298,-1.8497,0.0,-2.0459,-2.068,-2.2868,-2.3694,-2.395,-2.4372,-2.4152,0.0,0.0,0.0,-2.5996,0.0,0.0,0.0,0.0,0.0,0.0,0.0,0.0,0.0,0.0,0.0,0.0,0.0,0.0,0.0,0.0,0.0,-4.32,-4.2822,-4.2822,-4.2696,-4.2339,-4.2339,-4.2339,-4.2339,-4.2591,-4.2959,-4.3441,-4.3946,-4.4184,-4.4142,-4.3573,-4.344,-4.3759,-4.2705,-4.2349,-4.2655,-4.2407,-4.2159,-4.1911,-4.1911,-4.2395,-4.32,-4.2593,-4.2546,-4.3004,-4.3177,-4.2799,-4.2166,-1.1403,-1.1218,-1.1226,-1.1817,-1.218,-1.2493,-1.2807,-1.323,-1.3525,-1.3572,-1.3051,-1.2255,0.0,0.0,0.0,0.0,0.0,0.0,0.0,-1.4423,-1.3982,-1.3676,-1.6438,-1.704,-1.4937,-1.7687,-1.9072,-1.8834,-1.8669,-1.8485,-1.8229,-1.799,-1.7805,-1.7661,-1.7132,-1.7493,-1.8313,-1.7882,0.0,-1.8436,0.0,-1.1349,-1.0335,-0.8095,-0.719,-0.6938,-0.6526,-0.6367,-0.6406,-0.6137,0.0,-1.4929,-1.3301,-1.6306,0.0,0.0,-2.0507,-2.1118,-2.3267,-2.4134,-2.4445,-2.4721,-2.4225,-2.4263,0.0,0.0,0.0,0.0,0.0,0.0,0.0,0.0,0.0,0.0,0.0,0.0,0.0,0.0,0.0,0.0,0.0,0.0,0.0,0.0,-4.3108,-4.3529,-4.2708,-4.2413,-4.2673,-4.2593,-4.2466,-4.2466,-4.2303,-4.2586,-4.3671,-4.359,-4.3691,-4.3934,-4.3259,-4.3015,-4.3039,-4.1728,-4.1507,-4.2038,-4.1759,-4.1624,-4.1439,-4.1836,-4.2443,-4.3075,-4.2466,-4.3075,-4.4175,-4.3553,-4.3326,-4.3428,-1.2425,-1.1497,-1.1009,-1.1781,-1.2337,-1.2831,-1.335,-1.3471,-1.3857,-1.4959,-0.698,-0.1611,-0.284,0.0,0.0,0.0,0.0,0.0,-0.2347,0.0,0.0,-0.2107,-1.2009,-1.309,-0.3526,-1.3492,-1.8926,-1.9237,-1.854,-1.8357,-1.8614,-1.755,-1.7222,-1.7423,-1.5732,-1.6349,-1.8554,-1.6881,-1.5613,0.0,-1.378,-1.4652,0.0,-1.5993,-1.3722,-1.0431,-0.8506,-0.7859,-0.8309,0.0,-1.231,-1.3942,0.0,-1.8033,-1.6809,-2.2888,-2.1992,-1.9907,-2.4035,-2.5197,-2.5161,-2.4867,-2.4427,-2.4141,0.0,0.0,-2.3389,-2.3765,0.0,0.0,0.0,0.0,0.0,0.0,0.0,0.0,0.0,0.0,0.0,0.0,0.0,0.0,0.0,0.0,0.0,-4.386,-4.0638,-4.0098,-4.3931,-4.3553,-4.32,-4.32,-4.2214,-4.2096,-4.3165,-4.3085,-4.3602,-4.4412,-4.3375,-4.3242,-4.3613,-4.1153,-4.0342,-4.0932,-4.0018,-3.9997,-4.0843,-4.0928,-4.155,-4.2466,-4.2339,-4.3075,-4.4175,-4.3553,-4.3326,-4.3451,-1.2041,-1.1564,-1.1443,-1.224,-1.2554,-1.2892,-1.3435,-1.4498,-1.5352,-1.5708,-1.2973,-1.1027,0.0,0.0,0.0,0.0,0.0,0.4566,0.0,0.0,0.0,-1.1646,-1.6463,-1.6632,-1.1886,-1.6296,-1.8687,-1.8614,-1.8045,-1.7844,-1.799,-1.7257,-1.7421,-1.8172,-1.5734,-1.6095,-1.8411,0.0,-1.4419,0.0,0.0,0.0,0.0,-1.3409,-1.104,-0.9875,-0.9068,-0.8875,-0.9215,0.0,-1.3172,0.0,0.0,0.0,0.0,-2.1167,-2.1631,-2.2448,-2.5503,-2.6116,-2.5878,-2.5983,0.0,0.0,-2.3535,0.0,-2.2793,0.0,0.0,0.0,0.0,0.0,0.0,0.0,0.0,0.0,0.0,0.0,0.0,0.0,0.0,0.0,0.0,0.0,0.0,0.0,0.0,-4.1447,-4.4178,-4.4051,-4.3428,-4.2374,-4.2477,-4.2738,-4.3202,-4.3768,-4.3845,-4.3308,-4.3555,-4.2882,-4.1463,-4.0431,-4.041,-4.1153,-4.0843,-4.0887,-4.1283,-4.1897,-4.2316,-4.2339,-4.2339,-4.2822,-4.3678,-4.2949,-4.32,-4.3802,-1.2503,-1.2337,-1.2479,-1.3175,-1.3516,-1.3788,-1.4205,-1.5527,-1.638,0.0,0.0,0.0,-1.3449,-0.7628,0.0,0.0,1.1458,1.2107,0.0,0.0,-0.0334,-0.6064,-1.5038,0.0,-1.0273,-1.5831,-1.8742,-1.8449,-1.8027,-1.7935,-1.8155,-1.7532,-1.7952,-1.909,-1.6496,-1.6598,-1.8571,0.0,-1.4376,-1.7078,-1.4086,-1.4418,-1.6276,-1.1636,-0.9658,-0.9551,-0.9646,-0.9651,-0.9745,-1.0998,-1.376,0.0,-1.4595,0.0,-2.1278,0.0,-2.1318,-2.3278,-2.5663,0.0,0.0,0.0,0.0,0.0,0.0,0.0,0.0,0.0,0.0,0.0,0.0,0.0,0.0,0.0,0.0,0.0,0.0,0.0,0.0,0.0,0.0,0.0,0.0,0.0,0.0,0.0,0.0,0.0,-4.4646,-4.4669,-4.4027,-4.273,-4.3168,-4.3531,-4.3739,-4.4156,-4.4015,-4.3286,-4.3986,-4.3219,-4.1287,-4.1172,-4.1388,-4.1871,-4.2161,-4.1927,-4.1611,-4.2812,-4.2949,-4.2339,-4.2339,-4.2593,-4.2949,-4.2466,-4.32,-4.4175,-1.4958,-1.4469,-1.4313,-1.485,-1.5503,-1.5967,-1.6244,-1.639,0.0,0.0,0.0,0.0,0.0,0.0,0.0,0.0,0.0,4.3945,3.2546,0.0,1.8689,0.0,-0.2183,-0.9541,0.0,-0.8143,-1.9274,-1.9256,-1.8871,-1.9072,-1.9824,-1.8632,-1.8683,-1.9761,-1.7877,-1.7792,-1.8972,-1.6994,-1.5561,-1.4531,-1.4568,-1.3595,-1.2508,0.0,-1.3081,-1.0473,-1.0855,0.0,0.0,-1.3037,-1.4097,0.0,0.0,0.0,0.0,0.0,0.0,0.0,0.0,0.0,0.0,-2.543,0.0,0.0,0.0,0.0,-2.2832,0.0,0.0,0.0,0.0,0.0,0.0,0.0,0.0,0.0,0.0,0.0,0.0,0.0,0.0,0.0,0.0,0.0,0.0,0.0,0.0,0.0,-4.593,-4.5671,-4.5281,-4.5159,-4.4128,-4.4009,-4.4724,-4.3762,-4.4015,-4.5497,-4.4595,-4.4357,-4.4864,-4.388,-4.3194,-4.2753,-4.3241,-4.2811,-4.1738,-4.2925,-4.2949,-4.2339,-4.2339,-4.2339,-4.2339,-4.2339,-4.32,-4.4175,-1.6931,-1.711,-1.6784,-1.5466,-1.4896,-1.4972,0.0,-1.6286,0.0,0.0,0.0,0.0,0.0,0.0,2.4862,0.0,0.0,3.8366,3.3549,2.1483,0.0,0.0,0.0,-1.4193,0.0,0.0,-1.9586,-1.9292,-1.8907,-1.8999,-1.9512,-1.9091,-2.0,-2.1883,-1.9579,-1.9112,-1.9836,0.0,0.0,0.0,0.0,-1.4665,-1.4365,0.0,0.0,-1.1538,-1.1758,-1.1578,0.0,-1.2203,-1.3997,-1.6024,-1.653,-1.8765,-2.1008,-2.0618,-2.1726,0.0,0.0,0.0,-2.5898,-2.6481,0.0,0.0,0.0,0.0,0.0,0.0,0.0,0.0,0.0,0.0,0.0,0.0,0.0,0.0,0.0,0.0,0.0,0.0,0.0,0.0,0.0,0.0,0.0,0.0,0.0,0.0,0.0,-4.5793,-4.5281,-4.3606,-4.3921,-4.4026,-4.4033,-4.4313,-4.4384,-4.429,-4.511,-4.475,-4.3514,-4.3112,-4.3458,-4.4302,-4.3836,-4.3482,-4.3264,-4.382,-4.3326,-4.2339,-4.2339,-4.2339,-4.2339,-4.2339,-4.32,-4.4299,-1.8115,-1.843,-1.8065,-1.6773,-1.6204,0.0,0.0,0.0,0.0,0.0,-0.1167,0.0,1.4811,0.0,2.559,0.0,3.8102,3.9191,3.3583,2.577,0.0,2.0424,0.1106,0.0,0.0,0.0,-1.4253,-1.4307,-1.7972,-2.029,-2.1229,-2.0775,-2.1787,-2.4002,-2.2221,-2.0948,-1.9789,-1.7502,-1.5861,0.0,0.0,-1.4973,0.0,0.0,-1.3877,0.0,0.0,-1.2421,-1.1916,-1.1776,-1.3492,-1.5435,-1.5115,-1.7748,-2.0726,-1.9575,-2.0902,-2.3006,-2.394,-2.4637,0.0,-2.629,-2.5978,0.0,-2.4338,0.0,0.0,0.0,0.0,0.0,0.0,0.0,0.0,0.0,0.0,0.0,0.0,0.0,0.0,0.0,0.0,0.0,0.0,0.0,0.0,0.0,0.0,0.0,0.0,0.0,-4.555,-4.3979,-4.4591,-4.4732,-4.4539,-4.4942,-4.4816,-4.4159,-4.5001,-4.4836,-4.3606,-4.3796,-4.4511,-4.5475,-4.486,-4.4386,-4.4152,-4.3945,-4.3451,-4.257,-4.2339,-4.2466,-4.2593,-4.2339,-4.2822,-4.36,-1.8742,-1.8449,0.0,0.0,-1.9323,0.0,0.0,0.0,-1.3261,0.0,0.0072,0.5616,1.8665,2.8629,3.5047,3.6556,4.662,0.0,3.4747,3.3769,0.0,0.0,2.0322,1.9081,2.9251,0.0,0.0,0.0,-1.6389,-2.2858,-2.4774,-2.3501,-2.4026,-2.6022,-2.5805,-2.3221,-1.91,-2.0841,-1.8081,-1.2794,-1.3554,-1.4738,-1.6053,-1.7044,0.0,-1.674,-1.4688,-1.321,-1.2312,-1.1909,-1.2561,-1.3735,-1.5424,-1.6742,-1.781,-1.8852,-1.9443,-1.9801,-2.077,-2.2257,-2.3752,-2.514,0.0,0.0,0.0,0.0,-2.63,0.0,0.0,0.0,0.0,0.0,0.0,0.0,0.0,0.0,0.0,0.0,0.0,0.0,0.0,0.0,0.0,0.0,0.0,0.0,0.0,0.0,0.0,0.0,0.0,-4.618,-4.6167,-4.6068,-4.5968,-4.5445,-4.5068,-4.5092,-4.4539,-4.4693,-4.5331,-4.5822,-4.6167,-4.6376,-4.6093,-4.5378,-4.4299,-4.3576,-4.3326,-4.32,-4.2593,-4.2719,-4.3224,-4.2616,-4.2385,-4.2558,-1.9091,-1.9329,-1.9494,0.0,-1.8869,-1.8379,0.0,0.0,0.0,0.0,1.9787,3.0208,4.2438,4.5898,4.7733,4.8767,5.1863,0.0,0.0,0.0,0.0,4.5875,2.4541,1.7657,2.8722,0.6877,0.0,-0.6622,0.0,-2.4008,-2.4794,-2.5001,-2.5958,-2.7413,-2.7413,-2.5249,-2.1744,-2.298,-2.055,-1.5979,-1.5898,-1.713,0.0,0.0,-1.8243,-1.9018,-1.6022,-1.3997,-1.2576,-1.2305,-1.3613,-1.5424,-1.5814,-1.75,-1.9399,-2.0323,-2.0927,-2.159,-2.3133,-2.4665,-2.595,-2.6759,-2.726,-2.7644,0.0,0.0,0.0,0.0,0.0,0.0,0.0,0.0,0.0,0.0,0.0,0.0,0.0,0.0,0.0,0.0,0.0,0.0,0.0,0.0,0.0,0.0,0.0,0.0,0.0,0.0,0.0,-4.4743,-4.5282,-4.5257,-4.4763,-4.4639,-4.4515,-4.4515,-4.4371,-4.4863,-4.5871,-4.5601,-4.6018,-4.6781,-4.5871,-4.5036,-4.4299,-4.3576,-4.3326,-4.32,-4.2593,-4.2951,-4.3914,-4.3786,-4.3659,-4.3729,-1.9292,-1.9916,0.0,-2.0448,0.0,0.0,-1.1642,0.0,0.0,1.3945,2.2723,0.0,4.4173,5.0082,5.3409,5.4108,5.4411,0.0,0.0,0.0,0.0,4.3259,3.3197,3.0203,3.6127,1.6708,0.0,-0.0368,0.0,-2.2312,-2.6187,-2.6904,-2.8007,-2.9173,-2.9086,-2.7355,-2.4249,-2.3178,-2.1314,-1.9056,-1.8148,0.0,0.0,-1.799,-1.8046,-1.817,-1.6855,-1.5717,-1.4796,-1.4778,-1.5707,-1.7182,-1.794,-1.9252,-2.0881,-2.2044,-2.2457,-2.2749,-2.4422,-2.5628,-2.6771,-2.7661,-2.8378,-2.8759,-2.8497,-2.8114,-2.8126,0.0,0.0,0.0,0.0,0.0,0.0,0.0,0.0,0.0,0.0,0.0,0.0,0.0,0.0,0.0,0.0,0.0,0.0,0.0,0.0,0.0,0.0,0.0,0.0,-4.1821,-4.3649,-4.4451,-4.4299,-4.3842,-4.3962,-4.4635,-4.4419,-4.4936,-4.6068,-4.5773,-4.6068,-4.6656,-4.5675,-4.4887,-4.4299,-4.3576,-4.3326,-4.3349,-4.3435,-4.4253,-4.53,-4.4913,-4.4501,-4.4219,-1.9439,-2.0393,0.0,0.0,0.0,0.0,0.0,-0.7407,0.0,1.5552,0.0,2.6823,3.7627,4.815,5.459,5.4966,0.0,4.9958,3.7614,4.6811,4.7285,3.5057,4.3008,4.6815,4.4755,2.9211,0.0,0.0,0.0,-1.9579,-2.7913,-2.861,-2.9676,-3.0879,-3.0706,-2.8903,-2.5818,-2.245,-2.1028,0.0,-1.955,-1.8279,-1.7163,-1.7971,-1.7421,-1.6255,-1.7577,-1.7766,-1.7307,-1.768,-1.8228,-1.8821,-2.0552,-2.1378,-2.2198,-2.3952,-2.4106,-2.4024,-2.5334,-2.6145,-2.7013,-2.8201,-2.9241,-2.9847,-2.9447,-2.9067,-2.9007,-3.0265,-2.9665,0.0,0.0,0.0,0.0,0.0,0.0,0.0,0.0,0.0,0.0,0.0,0.0,0.0,0.0,0.0,0.0,0.0,0.0,0.0,0.0,0.0,0.0,-3.9589,-4.23,0.0,-4.4082,0.0,-4.3553,-4.4905,-4.4639,-4.5181,-4.6191,-4.6241,-4.6266,-4.6284,-4.5351,-4.4732,-4.4299,-4.3576,-4.3349,-4.3467,-4.4744,-4.579,-4.6549,-4.6012,-4.516,-4.4478,-1.9769,-2.1053,-2.2006,0.0,0.0,0.0212,1.0328,1.9002,2.6167,3.1057,4.0416,0.0,5.0634,5.2843,5.4244,5.4413,5.4339,0.0,0.0,0.0,0.0,4.6564,4.7345,4.5094,3.9284,2.7414,1.5498,0.0,0.0,-1.9579,-2.7913,-2.861,-2.9676,-3.0879,-3.0879,-2.8451,-2.4175,-2.2383,0.0,-1.8339,-1.8163,-1.8033,-1.7821,-1.7752,-1.7658,-1.7577,-1.9507,-1.8697,-1.7006,-1.7959,-1.9166,-2.0281,-2.0822,-2.2316,-2.4164,-2.5432,-2.6461,-2.7402,-2.7975,-2.8707,-2.9298,-2.9126,-2.9563,-3.0054,-3.0532,-2.983,-2.9761,-3.1622,-3.1875,-3.1961,-3.2795,0.0,0.0,0.0,0.0,0.0,0.0,0.0,0.0,0.0,0.0,0.0,0.0,0.0,0.0,0.0,0.0,0.0,0.0,0.0,0.0,0.0,0.0,0.0,0.0,0.0,0.0,-4.3912,-4.5233,-4.6116,-4.6882,-4.696,-4.6935,-4.6734,-4.5154,-4.4395,-4.4299,-4.3576,-4.3561,-4.4135,-4.527,-4.5763,-4.5856,-4.6123,-4.5912,-4.5357,-2.1676,-2.2428,-2.068,-1.3444,0.0,0.0,0.0,3.6149,0.0,3.6457,4.1065,4.4996,4.5365,5.0959,5.458,5.4171,5.4279,5.3938,5.2767,5.2309,5.1236,4.9459,4.7996,0.0,3.56,2.7809,1.5655,-0.0916,0.0,-1.8449,-2.8958,-2.9917,-3.0714,-3.1312,-3.0489,-2.8914,0.0,0.0,0.0,-2.0315,-1.9042,-1.836,-1.8131,-1.7449,-1.7245,-1.7528,-1.8977,-1.8943,-1.8457,-2.065,-2.1565,-2.2141,-2.3268,-2.4776,-2.6313,-2.7165,-2.7879,-2.8633,-2.9404,-2.96,-2.9688,-2.978,-3.0021,-3.0258,-3.0635,-3.0681,-3.0839,-3.1248,-3.2766,-3.3721,-3.2915,-3.1534,0.0,0.0,0.0,0.0,0.0,0.0,0.0,0.0,0.0,0.0,0.0,0.0,0.0,0.0,0.0,0.0,0.0,0.0,0.0,0.0,0.0,0.0,0.0,0.0,0.0,-4.4889,-4.5351,-4.641,-4.7956,-4.7658,-4.7159,-4.6461,-4.5174,-4.4563,-4.4323,-4.386,-4.4413,-4.5573,-4.6078,-4.6501,-4.6632,-4.687,-4.6532,-4.5966,-1.9586,-1.939,-1.5212,0.0,1.0944,0.0,0.0,4.5985,5.0892,4.1232,4.0729,4.12,4.1129,4.9471,5.4798,5.4008,5.4217,5.3795,5.2325,5.185,5.0892,4.9078,4.5987,4.0458,3.2064,2.6871,1.5102,0.0,0.0,0.0,-2.7971,-3.0214,-3.121,0.0,0.0,0.0,0.0,0.0,-2.3376,-2.2213,-1.9992,-1.8994,-1.8576,-1.7545,-1.7223,-1.741,-1.8465,-1.9379,-2.0352,-2.3187,-2.3928,-2.4178,-2.5988,-2.721,-2.8225,-2.8726,-2.8975,-2.9281,-3.0105,-3.014,-3.0003,-3.0293,-3.0565,-3.0718,-3.0532,-3.1296,-3.1819,-3.0908,-3.3137,-3.4903,-3.3801,-3.2724,0.0,0.0,0.0,0.0,0.0,0.0,0.0,0.0,0.0,0.0,0.0,0.0,0.0,0.0,0.0,0.0,0.0,0.0,0.0,0.0,0.0,-4.123,-4.0954,0.0,-4.3251,0.0,-4.5435,-4.6528,-4.8482,-4.8033,-4.7159,-4.6015,-4.5271,-4.4559,-4.4099,-4.4475,-4.5532,-4.6978,-4.6722,-4.6992,-4.7606,-4.7497,-4.6894,-4.5996,0.0,0.0,0.0,0.0,0.0,0.0,0.0,4.6498,5.4296,5.2326,5.2629,5.3048,5.3176,5.3941,5.43,5.3832,5.3452,5.2877,5.2232,5.054,4.9052,4.8,4.0683,3.3717,2.7519,2.1085,1.1503,0.0,0.0,0.0,0.0,-2.7462,-2.9542,0.0,0.0,0.0,0.0,-2.3185,-2.2118,-2.0297,-1.9678,-1.9422,-1.9388,-1.9071,-1.8583,-1.8237,-1.9842,-2.0894,-2.176,-2.3707,-2.4801,-2.5746,-2.7944,-2.8798,-2.9313,-2.9658,-3.0065,-3.0207,-3.0446,-3.109,-3.163,-3.0701,-3.1226,-3.1737,-3.115,-3.1489,-3.1962,-3.1582,-3.3495,-3.4981,-3.4424,-3.6652,-3.7458,0.0,0.0,0.0,0.0,0.0,0.0,0.0,0.0,0.0,0.0,0.0,0.0,0.0,-2.9485,0.0,0.0,0.0,0.0,-3.7423,0.0,-3.6896,-3.646,-4.092,0.0,-4.3647,-4.5792,-4.7174,-4.7844,-4.7908,-4.7257,-4.5917,-4.4804,-4.3974,-4.3475,-4.5427,-4.6588,-4.7282,-4.6827,-4.723,-4.7773,-4.7606,-4.639,-4.4815,0.0,0.0,0.0,0.0,0.0,0.0,0.0,5.1916,5.5148,5.46,5.4743,5.4874,5.4806,5.4776,5.4522,5.3975,5.3646,5.3355,5.3116,5.1299,5.0436,5.0879,4.1781,3.3454,2.6425,1.7177,0.5881,0.0,0.0,0.0,0.0,0.0,0.0,0.0,0.0,-2.5311,-2.3395,-2.2326,-2.1562,-2.0863,-1.9918,-1.9903,-2.0634,-2.0011,-1.9781,-1.9807,-2.0857,-2.1446,-2.2048,-2.4288,-2.5903,-2.6938,-2.7586,-2.876,-2.9917,-2.9655,-3.0001,-3.0429,-3.0429,-3.1226,-3.2034,-3.1496,-3.1944,-3.2313,-3.2063,-3.323,-3.4158,-3.3393,-3.5355,-3.7267,-3.7297,-3.7,-3.6886,0.0,0.0,0.0,0.0,0.0,0.0,0.0,0.0,0.0,0.0,0.0,0.0,0.0,0.0,0.0,0.0,0.0,0.0,-3.6197,0.0,-4.0118,-3.8938,-4.2626,-4.4325,-4.4318,-4.6038,-4.7666,-4.906,-4.7805,-4.6685,-4.5548,-4.511,-4.4792,-4.4594,-4.6786,-4.8027,-4.8702,-4.9317,-4.9135,-4.8583,-4.8477,-4.6717,-4.4566,2.0006,0.0,2.5661,0.0,4.147,4.4905,5.4052,5.5413,5.5314,5.5195,5.5183,5.5102,5.4836,5.4866,5.4609,5.4011,5.3907,5.3603,5.2893,5.122,4.9555,4.8056,3.8644,0.0,2.2351,1.1561,0.1118,-0.8854,-1.4919,0.0,0.0,0.0,0.0,0.0,-2.4154,-2.3858,-2.353,-2.2377,-2.2032,-2.2066,-2.1344,-2.1476,-2.2159,-2.1667,-2.1459,-2.1558,-2.2025,-2.2402,-2.3117,-2.473,-2.6451,-2.7996,-2.783,-2.8907,-3.0293,-2.9747,-3.002,-3.0446,-3.0976,-3.2015,-3.2936,-3.3065,-3.3413,-3.3586,-3.3309,-3.4859,-3.6426,-3.668,-3.8057,-3.9108,-3.9687,-3.7912,-3.6981,0.0,0.0,0.0,0.0,0.0,0.0,0.0,-3.8904,-3.6665,-3.5367,0.0,0.0,0.0,0.0,0.0,0.0,0.0,0.0,0.0,0.0,0.0,0.0,0.0,-4.5103,-4.5243,-4.6415,-4.7758,-4.9264,-4.7428,-4.6389,-4.5991,-4.5991,-4.5944,-4.6044,-4.8201,-4.9348,-4.9819,-5.0503,-5.0232,-4.9311,-4.8411,-4.6478,-4.429,3.2248,3.4965,3.9235,5.2882,5.5148,5.511,5.5288,5.5183,5.513,5.5301,5.5389,5.5339,5.4836,5.4654,5.4397,5.3832,5.4031,5.323,5.0976,4.9687,4.5184,0.0,0.0,2.0473,1.3373,0.3247,-0.2001,-0.2268,0.0,0.0,-1.3241,-1.8473,-2.142,-2.2245,-2.2966,-2.2826,-2.2215,-2.3201,-2.3532,-2.3618,-2.4168,-2.4305,-2.398,-2.4288,-2.4176,-2.3688,-2.3394,-2.4247,-2.5353,-2.4677,-2.6314,-2.884,-2.922,-2.9883,-3.0429,-3.0429,-3.0429,-3.0787,-3.2266,-3.3724,-3.5078,-3.5515,-3.5793,-3.583,-3.4685,-3.5934,-3.8286,-4.1924,-4.1364,-4.0244,-4.0889,-4.0403,-3.9497,-3.8133,0.0,0.0,0.0,0.0,0.0,-3.6692,-3.2672,-3.1506,-3.4997,0.0,0.0,0.0,0.0,0.0,0.0,0.0,0.0,-3.7441,-3.7548,0.0,-3.8481,-4.2864,-4.5357,-4.5886,-4.7213,-4.774,-4.7715,-4.6609,-4.6686,-4.7516,-4.7491,-4.7428,-4.7583,-4.9657,-5.0629,-5.0532,-4.9519,-4.9568,-4.9977,-4.6848,-4.4929,-4.3739,4.9372,5.0099,5.1206,5.4753,5.5352,5.5275,5.5195,5.499,5.4962,5.5236,5.5183,5.5113,5.5074,5.495,5.4678,0.0,5.4154,5.4479,0.0,5.3426,4.9585,4.3465,3.2751,2.2663,1.3398,0.1489,-0.5852,-0.8254,0.0,0.0,0.0,-1.9037,-2.0264,-2.0099,-2.0735,-2.1493,-2.2132,-2.2936,-2.3046,-2.2841,-2.4026,-2.4092,-2.361,-2.5029,-2.4946,-2.4288,-2.4974,-2.5437,-2.5857,-2.5577,-2.6399,-2.7661,-2.7771,-2.9593,-3.1414,-3.1029,-3.1548,-3.2521,-3.3332,-3.4574,-3.6036,-3.6891,-3.6605,-3.6276,-3.6701,-3.8047,-3.9962,-4.286,-4.2993,-4.2416,-4.1615,-4.1325,-4.0796,-3.9908,0.0,0.0,0.0,0.0,-4.1877,-4.1742,-3.9798,-3.8885,0.0,0.0,0.0,0.0,0.0,0.0,0.0,0.0,0.0,0.0,-3.9991,0.0,-4.2083,-4.538,-4.6777,-4.6415,-4.7727,-4.8084,-4.774,-4.8636,-4.8876,-4.8737,-4.81,-4.8569,-4.9845,-5.0933,-5.1777,-5.2311,-5.1874,-5.119,-5.0104,-4.7555,-4.5384,-4.3739,5.7489,5.7389,5.7081,5.612,5.6082,5.594,5.5238,5.5496,5.573,5.5531,5.5607,5.5706,5.5798,5.5522,0.0,5.4436,5.4282,0.0,5.6017,5.4363,4.9326,4.0198,3.0763,2.0215,0.837,0.0,0.0,-0.9984,-1.3607,-1.5357,-1.5357,-1.6874,-1.7987,-1.8652,-1.9164,-2.0387,-2.2314,-2.3206,-2.3398,-2.316,-2.4753,-2.4833,-2.4214,-2.5696,-2.5867,-2.5512,-2.6023,-2.6193,-2.6179,-2.6061,-2.6513,-2.7336,-2.7881,-3.0215,-3.2701,-3.1165,-3.2403,-3.4416,-3.4673,-3.5897,-3.7378,-3.8507,-3.7637,-3.6876,-3.8283,-3.9532,-4.1315,-4.3825,-4.4382,-4.3913,-4.2254,-4.1939,-4.176,-4.1158,0.0,-4.1507,-4.3563,0.0,0.0,0.0,0.0,0.0,0.0,-3.8403,0.0,0.0,0.0,0.0,0.0,0.0,0.0,-3.9094,-4.3,0.0,-4.502,-4.7154,-4.8031,-4.7458,-4.8318,-4.8704,-4.8761,-4.9163,-4.9729,-5.0185,-4.8833,-4.9677,-5.2095,-5.199,-5.2393,-5.2902,-5.2322,-5.119,-4.9595,-4.6795,-4.4958,-4.3716,5.8028,5.8119,0.0,0.0,5.7484,0.0,5.5508,5.6555,5.7165,5.604,5.6468,5.6894,5.6911,5.637,5.5729,5.4955,0.0,0.0,0.0,5.2873,4.5107,2.9445,2.3487,0.0,-0.053,-0.8864,-1.1534,-0.8376,-1.0802,-1.1894,-1.1894,-1.2947,-1.5033,-1.8011,-1.8022,-1.972,-2.2594,-2.3984,-2.4231,-2.4008,-2.6147,-2.6364,-2.5338,-2.6228,-2.6705,-2.6925,-2.6632,-2.653,-2.6486,-2.6193,-2.6721,-2.7891,-2.9059,-3.1674,-3.3907,-3.1429,-3.3393,-3.6295,-3.6314,-3.7494,-3.8826,-3.998,-3.8982,-3.7932,-3.9326,-4.0616,-4.2214,-4.4778,-4.537,-4.4801,-4.2782,-4.242,-4.2289,-4.1852,-4.1108,-4.1337,-4.339,0.0,0.0,0.0,0.0,0.0,0.0,-3.536,-3.7471,0.0,0.0,0.0,0.0,0.0,-3.8294,-4.5134,-4.5798,-4.6489,-4.7179,-4.8359,-4.8913,-4.9065,-4.8938,-4.9443,-5.0318,-4.8759,-4.9405,-5.1615,-4.9669,-5.0825,-5.4019,-5.3078,-5.2588,-5.2588,-5.0965,-4.9799,-4.854,-4.5052,-4.3785,-4.3625,0.0,0.0,6.0083,5.9148,5.8505,5.788,5.7192,5.711,5.7078,5.6809,5.6899,5.7137,5.7667,5.7491,5.7416,5.7638,5.7038,5.7005,5.7829,5.1632,4.3069,3.2055,2.1049,0.8967,-0.4367,-0.93,-1.1848,-1.1995,-1.2676,-1.2947,-1.2947,-1.4006,-1.5824,-1.8011,-1.8216,-1.9646,-2.2005,-2.3644,-2.4024,-2.3678,-2.6011,-2.6286,-2.5366,-2.6489,-2.6764,-2.6647,-2.6808,-2.6881,-2.6866,-2.6793,-2.755,-2.855,-2.8773,-3.1234,-3.4014,-3.3659,-3.56,-3.7877,-3.8039,-3.8497,-3.9246,-4.0432,-4.0371,-4.0126,-4.0085,-4.1368,-4.3097,-4.4228,-4.4937,-4.4892,-4.3222,-4.2922,-4.2762,-4.1979,-4.1519,-4.1546,-4.2772,-4.2148,0.0,0.0,-4.0382,-4.036,-4.0374,-4.0478,-3.9645,0.0,0.0,0.0,0.0,-3.8381,-4.0362,-4.5208,-4.5798,-4.6662,-4.7732,-4.9161,-5.0473,-5.1636,-5.0887,-5.0636,-5.0887,-4.9749,-5.0381,-5.2253,-5.0282,-5.1564,-5.4998,-5.3322,-5.3078,-5.3416,-5.1315,-4.9546,-4.8021,-4.4935,-4.3579,-4.3165,6.0089,6.0189,6.024,5.9474,5.8913,5.839,5.7674,5.7866,5.7966,5.7578,5.778,5.8194,5.8883,5.8493,5.8384,5.8959,5.764,5.762,5.9579,5.0248,4.0249,3.0256,1.7044,0.4153,-0.8296,-1.1148,-1.225,-1.1351,-1.1754,-1.2157,-1.2684,-1.3744,-1.5541,-1.7851,-1.8127,-1.9711,-2.2392,-2.3596,-2.4145,-2.4323,-2.6272,-2.643,-2.5707,-2.6619,-2.6881,-2.6749,-2.6925,-2.7509,-2.7921,-2.735,-2.8293,-2.9765,-2.979,-3.1696,-3.4074,-3.4827,-3.6708,-3.8759,-3.8779,-3.9369,-3.9982,-4.0002,-4.0433,-4.0719,-4.0249,-4.1672,-4.3236,-4.409,-4.48,-4.4937,-4.3375,-4.3097,-4.2753,-4.186,-4.0141,-3.963,-4.1429,-4.0159,0.0,-4.0607,-4.1217,-4.1539,-4.1315,-4.1934,-4.1216,-3.864,0.0,0.0,-4.0773,-4.1724,-4.3455,-4.5993,-4.6687,-4.7359,-4.8284,-4.9845,-5.1282,-5.2588,-5.157,-5.132,-5.1721,-5.0206,-5.0461,-5.1846,-5.0206,-5.132,-5.4047,-5.2562,-5.1909,-5.1742,-5.0076,-4.8252,-4.648,-4.4689,-4.3563,-4.3028,5.9773,5.9736,5.9811,5.9437,5.9206,5.875,5.7925,5.869,5.9099,5.838,5.88,5.9323,5.9874,5.9223,5.8954,5.9502,5.5473,5.4129,5.6985,4.6457,3.5095,2.3768,1.0467,-0.1334,-1.1682,-1.3248,-1.2513,-0.9763,-1.0041,-1.0717,-1.1799,-1.3013,-1.5081,-1.7641,-1.7988,-2.0,-2.3313,-2.3661,-2.4528,-2.551,-2.6416,-2.6546,-2.6093,-2.6546,-2.6838,-2.6998,-2.7042,-2.8097,-2.9059,-2.797,-2.9236,-3.1202,-3.091,-3.2226,-3.4101,-3.5199,-3.707,-3.8681,-3.8951,-3.9982,-4.0576,-3.9694,-4.0146,-4.0862,-4.0412,-4.1672,-4.3097,-4.3952,-4.4503,-4.4618,-4.3288,-4.2988,-4.2375,-4.0646,-3.8326,-3.748,-3.9363,0.0,-3.7569,-3.8906,-4.0583,-4.1503,-4.0649,-4.1595,-4.2408,-4.2545,-4.3238,0.0,0.0,-4.5966,-4.6638,-4.738,-4.7807,-4.8435,-4.9141,-5.0584,-5.1721,-5.2588,-5.1695,-5.1695,-5.2465,-5.0461,-5.0206,-5.132,-5.0206,-5.0842,-5.2588,-5.1616,-5.0378,-4.9191,-4.8459,-4.6841,-4.4819,-4.4371,-4.3799,-4.317,6.0454,6.0713,6.1039,6.1039,6.0067,5.9375,5.9723,5.9362,5.9103,5.9174,5.9499,5.9609,5.9214,5.9294,5.9493,5.9811,4.6857,3.9752,4.2306,3.4613,2.3262,0.8065,-0.2496,-0.9621,-1.2816,-1.2505,-1.2281,-1.2684,-1.0969,-1.0772,-1.197,-1.4009,-1.5564,-1.6756,-1.8692,-2.1059,-2.3327,-2.3875,-2.5008,-2.6243,-2.6111,-2.6399,-2.6692,-2.6239,-2.6399,-2.7027,-2.7305,-2.8293,-2.9105,-2.8223,-2.9875,-3.2259,-3.1292,-3.2274,-3.4053,-3.5288,-3.5903,-3.6627,-3.8535,-3.9982,-4.0882,-4.0719,-4.074,-4.0882,-4.0862,-4.1573,-4.2419,-4.3097,-4.3375,-4.3244,-4.2573,-4.2507,-4.1092,-3.6485,-3.8061,-3.8849,-3.5549,0.0,-3.8885,-3.9886,-4.0236,-4.102,-4.2548,-4.2463,-4.2683,-4.351,-4.4324,-4.5062,-4.5718,-4.6907,-4.7883,-4.851,-4.8611,-4.9267,-5.0687,-5.1793,-5.2465,-5.2588,-5.2465,-5.2465,-5.2465,-5.0461,-5.0588,-5.2342,-5.132,-5.1596,-5.2562,-5.1907,-5.0637,-4.9265,-4.8683,-4.7034,-4.5086,-4.5038,-4.4199,-4.3294,5.9542,5.9557,5.9812,5.9817,5.9374,5.9366,6.0336,6.0257,6.0149,6.0433,6.053,6.0361,5.99,6.0048,5.5822,4.5021,3.8962,2.8904,1.2694,1.236,0.9442,0.19,-0.7118,-1.2188,-1.2759,-1.2765,-1.2296,-1.1087,-1.071,-1.0822,-1.131,-1.2998,-1.4771,-1.6339,-1.8566,-2.0694,-2.2708,-2.3426,-2.4409,-2.5444,-2.529,-2.5345,-2.5653,-2.5345,-2.5456,-2.5931,-2.6666,-2.8253,-2.99,-2.8595,-3.0672,-3.3678,-3.175,-3.232,-3.3837,-3.4423,-3.6034,-3.7658,-3.8826,-3.9982,-4.0882,-4.0882,-4.0882,-4.0882,-4.0882,-4.1452,-4.2159,-4.2419,-4.2818,-4.2892,-4.2258,-4.2236,-4.1219,-3.8225,-3.7987,0.0,0.0,-3.7331,-3.8336,-4.0222,-4.1155,-4.1926,-4.2809,-4.302,-4.3326,-4.3762,-4.423,-4.4971,-4.6271,-4.6938,-4.7848,-4.9188,-4.9213,-4.9595,-5.0334,-5.132,-5.1819,-5.1819,-5.1819,-5.1819,-5.1721,-5.0206,-5.0104,-5.0968,-5.0461,-5.0409,-5.0503,-5.0219,-4.911,-4.7533,-4.7283,-4.6117,-4.4659,-4.5057,-4.4391,-4.3326,5.89,5.8806,5.9042,5.9085,5.9024,5.9428,6.0754,6.0923,6.0998,6.1278,6.1098,6.0773,6.0392,5.621,4.7174,3.1648,2.6397,1.371,-1.052,-0.8115,-0.5693,-0.532,-1.0936,-1.3944,-1.3515,-1.3278,-1.2165,-1.0023,-1.0271,-1.0407,-1.0438,-1.233,-1.4172,-1.5954,-1.8518,-2.0524,-2.2223,-2.2992,-2.3883,-2.4609,-2.4462,-2.4502,-2.4716,-2.4568,-2.4754,-2.5184,-2.6143,-2.8401,-3.064,-2.9105,-3.143,-3.4556,-3.2146,-3.2452,-3.3837,-3.4139,-3.6479,-3.9116,-3.9116,-3.9982,-4.0882,-4.0882,-4.0882,-4.0882,-4.0882,-4.131,-4.1735,-4.1573,-4.2138,-4.2376,-4.1566,-4.1707,-4.1193,-3.9249,0.0,0.0,0.0,-3.8006,-3.8384,-4.0571,-4.1968,-4.2972,-4.3218,-4.3636,-4.39,-4.4153,-4.4193,-4.4991,-4.6824,-4.6979,-4.7824,-4.959,-4.959,-4.959,-4.959,-5.0588,-5.0942,-5.0689,-5.0942,-5.1068,-5.1068,-5.0078,-4.9643,-4.9773,-4.9773,-4.9343,-4.856,-4.8686,-4.7733,-4.6068,-4.6069,-4.5527,-4.4669,-4.5281,-4.4792,-4.3802,5.959,6.0129,6.0654,6.0707,6.0091,6.0042,6.158,6.1135,6.0752,6.1073,6.0676,6.015,5.9642,4.2758,3.0969,2.9787,0.4202,-1.2054,-1.2447,-1.9345,-2.2421,-2.0165,-1.7966,-1.6817,-1.6918,-1.3737,-1.2082,-1.2094,-1.0187,-0.933,-0.9435,-1.289,-1.4613,-1.511,-1.9062,-2.1291,-2.2223,-2.2992,-2.3883,-2.4462,-2.3735,-2.4039,-2.4887,-2.4121,-2.4454,-2.5504,-2.671,-2.8635,-3.0521,-2.9359,-3.1622,-3.4556,-3.2146,-3.2452,-3.3988,-3.5174,-3.7217,-3.9116,-3.9116,-3.9982,-4.0882,-4.0882,-4.0882,-4.0882,-4.0882,-4.0882,-4.0862,-4.0392,-4.0698,-4.0737,-4.0,-4.064,-4.0042,-3.58,0.0,0.0,-3.5684,-3.8194,-4.0571,-4.1542,-4.2371,-4.3241,-4.4363,-4.4107,-4.4199,-4.5163,-4.5489,-4.6106,-4.7401,-4.806,-4.8738,-4.959,-4.959,-4.959,-4.959,-5.0588,-5.0588,-4.9719,-5.0715,-5.1068,-5.1068,-5.0078,-4.9825,-5.0219,-5.0219,-4.9387,-4.8057,-4.8384,-4.7643,-4.6167,-4.6188,-4.5842,-4.5281,-4.5939,-4.5793,-4.5037,6.0103,6.0481,6.0748,6.0619,6.0997,6.1567,6.2279,6.2657,6.278,6.2659,6.2146,6.1611,6.1151,5.3813,3.9637,1.6484,0.7366,-0.6286,-2.8018,-2.716,-2.3794,-1.9124,-1.7848,-1.6928,-1.6231,-1.4318,-1.3035,-1.2403,-1.1194,-1.0504,-1.0706,-1.2928,-1.4478,-1.5455,-1.8723,-2.0436,-2.0737,-2.2097,-2.2843,-2.3154,-2.3029,-2.3166,-2.3581,-2.3438,-2.3674,-2.4246,-2.527,-2.6804,-2.8342,-2.8203,-3.0253,-3.2859,-3.1055,-3.2146,-3.3988,-3.5306,-3.6182,-3.707,-3.7805,-3.9405,-4.0882,-4.0882,-4.0882,-4.0882,-4.0882,-4.0882,-4.0576,-3.9694,-3.9694,-3.9654,-3.9329,-3.9576,-3.9698,-3.8748,0.0,-4.022,-3.8849,-4.0236,-4.1743,-4.2435,-4.3259,-4.403,-4.5048,-4.4887,-4.4933,-4.5324,-4.5838,-4.6485,-4.7497,-4.8526,-4.9332,-4.959,-4.959,-4.959,-4.959,-4.9976,-4.9976,-4.959,-4.9976,-5.0206,-5.0206,-4.9494,-4.9216,-4.9367,-4.9011,-4.8306,-4.7405,-4.7572,-4.7147,-4.6213,-4.6255,-4.618,-4.5914,-4.618,-4.5914,-4.5159,6.0772,6.1198,6.1439,6.1202,6.2003,6.278,6.3056,6.3719,6.4068,6.3679,6.3161,6.2667,6.2161,5.5808,3.9104,0.7899,0.5538,-0.6863,-3.6716,-3.0155,-2.2986,-1.8114,-1.688,-1.6086,-1.5767,-1.4388,-1.3115,-1.208,-1.1283,-1.1177,-1.1521,-1.2984,-1.4337,-1.5718,-1.8309,-1.938,-1.9531,-2.1199,-2.1995,-2.2091,-2.2585,-2.2754,-2.2923,-2.3104,-2.3345,-2.3575,-2.451,-2.5701,-2.6949,-2.7462,-2.9634,-3.1944,-3.0901,-3.2588,-3.5157,-3.5903,-3.6479,-3.707,-3.8243,-3.957,-4.0433,-4.0433,-4.0576,-4.0882,-4.0882,-4.0882,-4.0433,-3.8826,-3.8826,-3.9096,-3.8951,-3.8951,-3.955,-4.1004,-4.1025,-4.0882,-4.0882,-4.1714,-4.2559,-4.3097,-4.3952,-4.48,-4.537,-4.537,-4.5483,-4.5754,-4.616,-4.6808,-4.7738,-4.8942,-4.959,-4.959,-4.959,-4.959,-4.959,-4.959,-4.959,-4.959,-4.959,-4.9515,-4.9314,-4.8937,-4.8586,-4.8234,-4.7832,-4.7355,-4.6878,-4.6878,-4.6652,-4.6301,-4.6301,-4.6301,-4.6301,-4.6301,-4.5793,-4.4767,6.1691,6.245,6.3099,6.2855,6.3187,6.36,6.3878,6.4094,6.4068,6.3679,6.3427,6.3034,6.2218,4.359,2.4158,0.6766,-0.5781,-1.9354,-3.4928,-2.7723,-2.1804,-1.9434,-1.5808,-1.4525,-1.6086,-1.3743,-1.1952,-1.1244,-1.0202,-1.0329,-1.1669,-1.3034,-1.4337,-1.5718,-1.7702,-1.8623,-1.8774,-2.0285,-2.1185,-2.1425,-2.2353,-2.2983,-2.3454,-2.3454,-2.3623,-2.384,-2.4786,-2.5872,-2.6949,-2.7462,-2.9774,-3.2402,-3.1686,-3.4238,-3.7364,-3.7364,-3.8535,-3.9858,-4.0719,-4.0289,-3.957,-3.9261,-3.9982,-4.0882,-4.0882,-4.0882,-4.0289,-3.7951,-3.8243,-3.8951,-3.8622,-3.8787,-3.9694,-4.1714,-4.131,-4.0882,-4.0882,-4.2138,-4.3097,-4.3097,-4.4503,-4.5347,-4.537,-4.537,-4.5619,-4.6405,-4.6405,-4.7074,-4.8371,-4.9177,-4.959,-4.959,-4.959,-4.959,-4.959,-4.959,-4.959,-4.959,-4.959,-4.9314,-4.8761,-4.8761,-4.8159,-4.7129,-4.7129,-4.6803,-4.6301,-4.6301,-4.6301,-4.6301,-4.6301,-4.6301,-4.6301,-4.6301,-4.5403,-4.4251,6.2667,6.2999,6.3147,6.3099,6.3674,6.4174,6.4053,6.4483,6.4803,6.4643,6.4291,6.4039,6.3844,5.807,4.2167,1.2232,0.9575,-0.0967,-2.5729,-2.3652,-2.0429,-1.7787,-1.7569,-1.6353,-1.379,-1.2237,-1.1345,-1.1244,-0.9601,-0.972,-1.1669,-1.1651,-1.2944,-1.5718,-1.6788,-1.7854,-1.8785,-2.0472,-2.1357,-2.146,-2.2758,-2.3309,-2.3478,-2.3659,-2.378,-2.384,-2.416,-2.4467,-2.5092,-2.7278,-2.8983,-3.0685,-3.2892,-3.4105,-3.5139,-3.6201,-3.6941,-3.753,-3.8555,-3.9116,-3.9405,-4.0146,-4.0576,-4.0882,-4.0882,-4.0289,-3.9261,-3.7658,-3.6922,-3.6627,-3.646,-3.7217,-3.8389,-3.9694,-4.0433,-4.0882,-4.0882,-4.1714,-4.2559,-4.3097,-4.3952,-4.48,-4.537,-4.537,-4.5619,-4.6405,-4.734,-4.824,-4.9177,-4.9461,-4.959,-4.959,-4.959,-4.9976,-5.0715,-4.9976,-4.959,-4.959,-4.959,-4.9314,-4.8761,-4.836,-4.7782,-4.7104,-4.6728,-4.6451,-4.6301,-4.6301,-4.6301,-4.6301,-4.6301,-4.6059,-4.555,-4.555,-4.4792,-4.338,6.3025,6.3099,6.3242,6.3345,6.4009,6.4445,6.4331,6.4775,6.5019,6.4666,6.4818,6.4782,6.4268,5.8104,4.3081,1.5912,0.6297,-0.544,-2.2538,-2.1739,-1.9485,-1.6867,-1.7282,-1.5821,-1.2173,-1.1312,-1.0838,-1.0595,-0.9174,-0.9591,-1.1753,-1.0904,-1.2172,-1.4952,-1.5871,-1.6834,-1.7683,-1.997,-2.1078,-2.1279,-2.2851,-2.3514,-2.3623,-2.378,-2.384,-2.384,-2.384,-2.384,-2.416,-2.6662,-2.8842,-3.0854,-3.3348,-3.4556,-3.5157,-3.6201,-3.6201,-3.6331,-3.8243,-3.8389,-3.8641,-4.0433,-4.0882,-4.0882,-4.0882,-4.0002,-3.8826,-3.7658,-3.6479,-3.5754,-3.6015,-3.6775,-3.7805,-3.9241,-4.0289,-4.0882,-4.0882,-4.1855,-4.2559,-4.3097,-4.409,-4.4937,-4.5347,-4.537,-4.5754,-4.6831,-4.8133,-4.9177,-4.959,-4.9976,-4.9976,-4.959,-5.0334,-5.0842,-5.1068,-5.0842,-5.0588,-5.0206,-5.0206,-4.9546,-4.841,-4.8058,-4.7506,-4.6803,-4.6451,-4.6301,-4.6301,-4.6301,-4.6301,-4.6301,-4.6059,-4.5671,-4.5281,-4.4645,-4.363,-4.2247,6.2953,6.3002,6.3252,6.3587,6.4053,6.4445,6.4593,6.481,6.4701,6.4019,6.5033,6.5277,6.3877,4.9056,3.3124,1.8123,-0.8749,-2.4554,-2.376,-2.1308,-1.8916,-1.6486,-1.5652,-1.3831,-1.1025,-1.0894,-1.0456,-0.9521,-0.877,-0.9487,-1.1572,-1.0785,-1.1553,-1.3722,-1.4952,-1.5675,-1.6164,-1.9121,-2.049,-2.091,-2.2688,-2.3476,-2.368,-2.384,-2.384,-2.384,-2.384,-2.384,-2.416,-2.607,-2.9168,-3.2419,-3.35,-3.5157,-3.6812,-3.6664,-3.6331,-3.646,-3.8971,-3.835,-3.7747,-4.0269,-4.0882,-4.0882,-4.0882,-3.9858,-3.8681,-3.7658,-3.6331,-3.5736,-3.6423,-3.7032,-3.8078,-3.9818,-4.0555,-4.1025,-4.0882,-4.2116,-4.3097,-4.3097,-4.4503,-4.537,-4.537,-4.5483,-4.616,-4.7497,-4.8812,-4.959,-4.959,-5.0461,-5.0588,-4.9719,-5.1471,-5.2094,-5.132,-5.2218,-5.2218,-5.1068,-5.1016,-4.9922,-4.7908,-4.7857,-4.728,-4.6301,-4.6301,-4.6301,-4.6301,-4.618,-4.618,-4.618,-4.5403,-4.5159,-4.4915,-4.3654,-4.2374,-4.0968,6.3147,6.3002,6.311,6.3803,6.3755,6.3883,6.4701,6.4254,6.3855,6.4099,6.4709,6.501,6.4648,5.2076,3.6596,1.9227,-0.9549,-2.5529,-2.2356,-2.0304,-1.8068,-1.5379,-1.3421,-1.1729,-1.0167,-0.9977,-0.9514,-0.861,-0.7933,-0.8184,-0.9402,-0.8618,-1.0158,-1.3722,-1.403,-1.5358,-1.7418,-1.9605,-2.0326,-2.0134,-2.2715,-2.3312,-2.2889,-2.352,-2.384,-2.384,-2.384,-2.432,-2.5263,-2.7933,-3.1024,-3.3936,-3.3802,-3.5007,-3.6219,-3.5903,-3.6793,-3.8117,-3.872,-3.9425,-4.0126,-4.0719,-4.0882,-4.0882,-4.0882,-3.9261,-3.7658,-3.7511,-3.5754,-3.4574,-3.5587,-3.7179,-3.8496,-3.9241,-4.0698,-4.1594,-4.1025,-4.2116,-4.3097,-4.3097,-4.4503,-4.537,-4.537,-4.6429,-4.734,-4.8264,-4.9047,-4.959,-4.959,-4.9847,-5.0206,-5.0715,-5.1194,-5.2068,-5.3416,-5.3537,-5.2807,-5.1068,-5.0654,-4.9563,-4.7883,-4.7481,-4.6954,-4.6301,-4.6301,-4.6301,-4.6301,-4.5671,-4.555,-4.5403,-4.4792,-4.4175,-4.3678,-4.2799,-4.1633,-4.0236,6.3279,6.3205,6.3308,6.3718,6.3971,6.4292,6.4845,6.4255,6.3944,6.436,6.4709,6.4971,6.5122,4.5296,2.2447,-0.1251,-1.663,-2.3762,-2.0495,-1.9413,-1.7518,-1.4273,-1.2445,-1.1025,-0.9879,-0.8882,-0.8398,-0.8459,-0.7341,-0.7435,-0.8778,-0.7838,-0.9387,-1.2804,-1.3414,-1.5098,-1.7714,-1.924,-2.0116,-2.0611,-2.251,-2.305,-2.2728,-2.352,-2.384,-2.384,-2.432,-2.5263,-2.6517,-2.809,-3.087,-3.3331,-3.2571,-3.3966,-3.5815,-3.5253,-3.5906,-3.708,-3.7972,-3.8524,-3.9181,-4.0329,-4.0432,-4.0289,-4.0289,-3.8971,-3.753,-3.6941,-3.5754,-3.5025,-3.5456,-3.7345,-3.8787,-3.9096,-4.0412,-4.131,-4.1025,-4.2116,-4.3097,-4.3097,-4.4503,-4.5483,-4.589,-4.6831,-4.7762,-4.8502,-4.9177,-4.959,-4.959,-5.0078,-5.0588,-5.1068,-5.157,-5.2315,-5.3322,-5.3322,-5.2429,-5.068,-5.089,-4.9929,-4.7883,-4.738,-4.6828,-4.6301,-4.6301,-4.6301,-4.6301,-4.555,-4.5281,-4.5159,-4.4175,-4.3428,-4.2673,-4.1655,-4.0366,-3.9099,6.3194,6.3308,6.3498,6.3587,6.4215,6.4701,6.4737,6.4294,6.4105,6.4502,6.4792,6.4123,6.1846,3.3477,0.3751,-2.335,-2.3407,-2.1076,-1.8613,-1.8269,-1.6583,-1.3167,-1.2029,-1.0894,-0.9908,-0.8053,-0.7398,-0.8004,-0.6747,-0.6829,-0.8154,-0.7838,-0.909,-1.1604,-1.2683,-1.4563,-1.7118,-1.8227,-1.9573,-2.0931,-2.2073,-2.2567,-2.2395,-2.3359,-2.384,-2.384,-2.4786,-2.6215,-2.7633,-2.779,-2.9789,-3.2097,-3.1347,-3.2927,-3.5229,-3.4812,-3.4913,-3.5631,-3.7239,-3.7364,-3.7575,-3.9313,-3.9698,-3.957,-3.9425,-3.87,-3.7677,-3.6645,-3.6349,-3.6201,-3.6182,-3.7932,-3.9261,-3.9405,-4.0289,-4.1025,-4.0882,-4.2116,-4.3097,-4.3097,-4.4503,-4.589,-4.654,-4.7232,-4.8002,-4.8657,-4.9177,-4.959,-4.959,-5.0588,-5.1194,-5.132,-5.2218,-5.2711,-5.2834,-5.2711,-5.1804,-5.0266,-5.0996,-5.0019,-4.7757,-4.723,-4.6753,-4.6301,-4.618,-4.618,-4.6059,-4.5281,-4.4915,-4.4669,-4.3428,-4.2546,-4.1783,-4.0495,-3.921,-3.8191,6.2953,6.2904,6.3062,6.3543,6.368,6.385,6.4176,6.3482,6.3163,6.3914,6.4724,6.035,4.7507,2.0149,-0.4011,-2.0697,-2.0526,-1.8683,-1.6903,-1.5569,-1.3898,-1.1907,-1.1031,-1.0215,-0.9449,-0.7941,-0.6947,-0.6194,-0.6337,-0.5945,-0.5492,-0.7681,-0.913,-0.984,-1.0791,-1.2675,-1.5377,-1.6334,-1.7602,-1.9326,-2.1588,-2.2073,-2.1577,-2.3199,-2.384,-2.384,-2.4786,-2.6215,-2.779,-2.8417,-2.9649,-3.1194,-3.2097,-3.3078,-3.4292,-3.5082,-3.5702,-3.6085,-3.6371,-3.7533,-3.8704,-3.8379,-3.8962,-3.9281,-3.799,-3.7843,-3.797,-3.7824,-3.6941,-3.6645,-3.8389,-3.9385,-4.0105,-4.0576,-4.1289,-4.1594,-4.1025,-4.2116,-4.3097,-4.3097,-4.5028,-4.6563,-4.7232,-4.8002,-4.8657,-4.9461,-4.959,-4.959,-4.959,-5.0588,-5.1445,-5.2342,-5.2465,-5.2956,-5.3779,-5.2956,-5.1804,-5.0266,-4.9871,-4.884,-4.723,-4.6677,-4.6376,-4.6301,-4.5671,-4.5403,-4.5281,-4.4051,-4.3177,-4.2673,-4.1934,-4.1164,-4.0366,-3.9604,-3.8835,-3.8191,6.3099,6.3158,6.3317,6.3587,6.385,6.4096,6.4254,6.4255,6.4552,6.5482,5.6814,4.904,4.5122,1.8062,-0.51,-1.8132,-1.9823,-1.8801,-1.5632,-1.5363,-1.4051,-1.1596,-1.0863,-1.0158,-0.9029,-0.7352,-0.6067,-0.5346,-0.5441,-0.535,-0.5068,-0.6652,-0.8278,-0.9636,-0.9961,-1.1814,-1.4592,-1.4584,-1.6316,-1.9134,-2.0262,-2.1243,-2.2234,-2.3359,-2.384,-2.4,-2.5276,-2.6751,-2.8201,-2.8671,-2.9869,-3.1093,-3.115,-3.2622,-3.4108,-3.4177,-3.499,-3.5811,-3.5811,-3.6836,-3.7708,-3.7637,-3.8086,-3.8282,-3.7549,-3.7843,-3.8136,-3.753,-3.7824,-3.8389,-3.8971,-3.9982,-4.0719,-4.0862,-4.1167,-4.1452,-4.1452,-4.2419,-4.3514,-4.4755,-4.5866,-4.6808,-4.8002,-4.8396,-4.8787,-4.959,-4.959,-4.959,-4.959,-4.995,-5.0715,-5.1695,-5.122,-5.132,-5.2439,-5.1445,-5.0278,-4.8909,-4.8655,-4.8002,-4.7104,-4.6552,-4.6059,-4.5793,-4.5793,-4.5428,-4.4669,-4.3678,-4.2902,-4.2166,-4.1164,-4.0257,-3.9604,-3.8835,-3.8437,-3.8191]}]]